<?xml version='1.0' encoding='UTF-8'?><gpx version="1.1" creator="JPX - https://github.com/jenetics/jpx" xmlns="http://www.topografix.com/GPX/1/1"><trk><trkseg><trkpt lat="44.29688105011457" lon="10.828474734590285"><ele>840.9999999999999</ele><time>2026-04-06T07:56:17.002Z</time></trkpt><trkpt lat="44.29684619347208" lon="10.828556218415155"><ele>841.0</ele><time>2026-04-06T07:56:25.001Z</time></trkpt><trkpt lat="44.2968701380829" lon="10.828445744898351"><ele>841.0</ele><time>2026-04-06T07:56:34Z</time></trkpt><trkpt lat="44.29680795314613" lon="10.82848882886872"><ele>841.0</ele><time>2026-04-06T07:56:51.999Z</time></trkpt><trkpt lat="44.296814429401955" lon="10.828399178063538"><ele>840.9999999999999</ele><time>2026-04-06T07:57:00.999Z</time></trkpt><trkpt lat="44.29689868748127" lon="10.828401143394368"><ele>841.0</ele><time>2026-04-06T07:57:10.999Z</time></trkpt><trkpt lat="44.29696892270949" lon="10.828479353465108"><ele>842.3333333333333</ele><time>2026-04-06T07:57:16.999Z</time></trkpt><trkpt lat="44.296903909558466" lon="10.828574986762133"><ele>843.6666666666666</ele><time>2026-04-06T07:57:18.999Z</time></trkpt><trkpt lat="44.29685678744431" lon="10.8286586211169"><ele>845.0</ele><time>2026-04-06T07:57:20.999Z</time></trkpt><trkpt lat="44.29693343581505" lon="10.828729301864072"><ele>846.3333333333333</ele><time>2026-04-06T07:57:23.999Z</time></trkpt><trkpt lat="44.296998414382394" lon="10.828777408247312"><ele>847.6666666666666</ele><time>2026-04-06T07:57:24.999Z</time></trkpt><trkpt lat="44.29705685483086" lon="10.828830070098382"><ele>849.0</ele><time>2026-04-06T07:57:25.999Z</time></trkpt><trkpt lat="44.297125648269365" lon="10.828903919314062"><ele>849.0</ele><time>2026-04-06T07:57:26.999Z</time></trkpt><trkpt lat="44.29716011036269" lon="10.829011588443601"><ele>849.0</ele><time>2026-04-06T07:57:27.999Z</time></trkpt><trkpt lat="44.29722914621687" lon="10.829100186714742"><ele>849.0</ele><time>2026-04-06T07:57:29.999Z</time></trkpt><trkpt lat="44.297278572021966" lon="10.829165230299985"><ele>849.0</ele><time>2026-04-06T07:57:32.999Z</time></trkpt><trkpt lat="44.29736420091809" lon="10.829223134574459"><ele>849.0</ele><time>2026-04-06T08:03:58.999Z</time></trkpt><trkpt lat="44.297275712705314" lon="10.829337408752345"><ele>849.6</ele><time>2026-04-06T08:04:01.999Z</time></trkpt><trkpt lat="44.297206500291274" lon="10.829376453372863"><ele>850.2</ele><time>2026-04-06T08:04:02.999Z</time></trkpt><trkpt lat="44.297127991323464" lon="10.829422211238175"><ele>850.8000000000001</ele><time>2026-04-06T08:04:03.999Z</time></trkpt><trkpt lat="44.29704521684552" lon="10.829484353983556"><ele>851.4000000000001</ele><time>2026-04-06T08:04:04.999Z</time></trkpt><trkpt lat="44.296941673974885" lon="10.829580499770058"><ele>852.0</ele><time>2026-04-06T08:04:05.999Z</time></trkpt><trkpt lat="44.296827639114355" lon="10.829703471651094"><ele>852.0</ele><time>2026-04-06T08:04:06.999Z</time></trkpt><trkpt lat="44.29671265922849" lon="10.829828430558583"><ele>852.0</ele><time>2026-04-06T08:04:07.999Z</time></trkpt><trkpt lat="44.296603170457985" lon="10.829957768991829"><ele>852.0</ele><time>2026-04-06T08:04:08.999Z</time></trkpt><trkpt lat="44.296516548395104" lon="10.830059295015873"><ele>852.0</ele><time>2026-04-06T08:04:09.999Z</time></trkpt><trkpt lat="44.29643627735176" lon="10.830135098363737"><ele>852.1666666666666</ele><time>2026-04-06T08:04:10.999Z</time></trkpt><trkpt lat="44.296356259197296" lon="10.830207393724946"><ele>852.3333333333333</ele><time>2026-04-06T08:04:11.999Z</time></trkpt><trkpt lat="44.29627688773847" lon="10.830291058096709"><ele>852.5</ele><time>2026-04-06T08:04:12.999Z</time></trkpt><trkpt lat="44.29621567759835" lon="10.830355371575942"><ele>852.6666666666666</ele><time>2026-04-06T08:04:13.999Z</time></trkpt><trkpt lat="44.296151339739076" lon="10.830422678114758"><ele>852.8333333333333</ele><time>2026-04-06T08:04:14.999Z</time></trkpt><trkpt lat="44.29608304934249" lon="10.830505417590862"><ele>853.0</ele><time>2026-04-06T08:04:15.999Z</time></trkpt><trkpt lat="44.29602486745643" lon="10.830586204542623"><ele>853.0</ele><time>2026-04-06T08:04:16.999Z</time></trkpt><trkpt lat="44.29596105312946" lon="10.830677394240874"><ele>853.0</ele><time>2026-04-06T08:04:18.999Z</time></trkpt><trkpt lat="44.29604137050165" lon="10.830904756296801"><ele>853.0</ele><time>2026-04-06T08:04:20.999Z</time></trkpt><trkpt lat="44.29613897071162" lon="10.83102463554938"><ele>853.0</ele><time>2026-04-06T08:04:21.999Z</time></trkpt><trkpt lat="44.296262121041366" lon="10.831192923375635"><ele>851.0</ele><time>2026-04-06T08:04:22.999Z</time></trkpt><trkpt lat="44.296393130507596" lon="10.831418607908338"><ele>849.0</ele><time>2026-04-06T08:04:23.999Z</time></trkpt><trkpt lat="44.29649487359281" lon="10.831595387373891"><ele>847.0</ele><time>2026-04-06T08:04:24.999Z</time></trkpt><trkpt lat="44.29659172647832" lon="10.831738066789223"><ele>844.25</ele><time>2026-04-06T08:04:25.999Z</time></trkpt><trkpt lat="44.29667112653887" lon="10.831872074632022"><ele>841.5</ele><time>2026-04-06T08:04:26.999Z</time></trkpt><trkpt lat="44.29677543396303" lon="10.831985932151204"><ele>838.75</ele><time>2026-04-06T08:04:28.001Z</time></trkpt><trkpt lat="44.2969148195367" lon="10.832050572506345"><ele>836.0</ele><time>2026-04-06T08:04:29.001Z</time></trkpt><trkpt lat="44.297038192290835" lon="10.832119469156034"><ele>836.0</ele><time>2026-04-06T08:04:30.001Z</time></trkpt><trkpt lat="44.297131505810036" lon="10.832198129643489"><ele>836.0</ele><time>2026-04-06T08:04:31.001Z</time></trkpt><trkpt lat="44.29721223514923" lon="10.832320185106425"><ele>836.0</ele><time>2026-04-06T08:04:32.001Z</time></trkpt><trkpt lat="44.297293978761935" lon="10.832465711360015"><ele>836.0</ele><time>2026-04-06T08:04:33.001Z</time></trkpt><trkpt lat="44.29735898377917" lon="10.832603501435647"><ele>835.1999999999999</ele><time>2026-04-06T08:04:34.001Z</time></trkpt><trkpt lat="44.29742728001577" lon="10.832727903774247"><ele>834.4</ele><time>2026-04-06T08:04:35.001Z</time></trkpt><trkpt lat="44.29751494127798" lon="10.83282150384055"><ele>833.6</ele><time>2026-04-06T08:04:36.001Z</time></trkpt><trkpt lat="44.29758840028507" lon="10.832919262864806"><ele>832.8</ele><time>2026-04-06T08:04:37.001Z</time></trkpt><trkpt lat="44.297670392150486" lon="10.833000446576898"><ele>832.0</ele><time>2026-04-06T08:04:38.001Z</time></trkpt><trkpt lat="44.29775902886419" lon="10.833071879548786"><ele>831.9999999999999</ele><time>2026-04-06T08:04:39.001Z</time></trkpt><trkpt lat="44.29784804563841" lon="10.833131794879233"><ele>832.0</ele><time>2026-04-06T08:04:40.001Z</time></trkpt><trkpt lat="44.297928992115324" lon="10.833182562118468"><ele>832.0</ele><time>2026-04-06T08:04:41.001Z</time></trkpt><trkpt lat="44.29800731359686" lon="10.83323657259503"><ele>832.0</ele><time>2026-04-06T08:04:42Z</time></trkpt><trkpt lat="44.298067008404196" lon="10.833295404002628"><ele>831.9999999999999</ele><time>2026-04-06T08:04:43Z</time></trkpt><trkpt lat="44.29809653733473" lon="10.833427821843502"><ele>832.0</ele><time>2026-04-06T08:04:44Z</time></trkpt><trkpt lat="44.298113704746406" lon="10.833540840919252"><ele>830.75</ele><time>2026-04-06T08:04:45Z</time></trkpt><trkpt lat="44.29813260816987" lon="10.833664549693962"><ele>829.5</ele><time>2026-04-06T08:04:47Z</time></trkpt><trkpt lat="44.298327818041116" lon="10.833675951416362"><ele>828.25</ele><time>2026-04-06T08:04:50Z</time></trkpt><trkpt lat="44.298434467089244" lon="10.833772566146143"><ele>827.0</ele><time>2026-04-06T08:04:52Z</time></trkpt><trkpt lat="44.29849716846989" lon="10.833760568605076"><ele>827.0</ele><time>2026-04-06T08:04:54Z</time></trkpt><trkpt lat="44.2985651865857" lon="10.833652443106452"><ele>827.0</ele><time>2026-04-06T08:04:56Z</time></trkpt><trkpt lat="44.29867929000939" lon="10.833618159411635"><ele>827.0</ele><time>2026-04-06T08:04:58Z</time></trkpt><trkpt lat="44.29872668996781" lon="10.8337055465015"><ele>827.0</ele><time>2026-04-06T08:05:00Z</time></trkpt><trkpt lat="44.29877489297871" lon="10.833810402485794"><ele>827.0</ele><time>2026-04-06T08:05:01Z</time></trkpt><trkpt lat="44.29885822978881" lon="10.833947385655362"><ele>825.6</ele><time>2026-04-06T08:05:02Z</time></trkpt><trkpt lat="44.298929306782824" lon="10.834008258949066"><ele>824.2</ele><time>2026-04-06T08:05:03Z</time></trkpt><trkpt lat="44.29902483164151" lon="10.834011331801305"><ele>822.8</ele><time>2026-04-06T08:05:05Z</time></trkpt><trkpt lat="44.299108639792834" lon="10.833978573273757"><ele>821.4</ele><time>2026-04-06T08:05:07Z</time></trkpt><trkpt lat="44.29920957053798" lon="10.833934902548885"><ele>820.0</ele><time>2026-04-06T08:05:10Z</time></trkpt><trkpt lat="44.2993116794096" lon="10.833872469652647"><ele>820.0</ele><time>2026-04-06T08:05:12Z</time></trkpt><trkpt lat="44.29937291582557" lon="10.833804054118318"><ele>820.0</ele><time>2026-04-06T08:05:14Z</time></trkpt><trkpt lat="44.29948768734481" lon="10.833708280340336"><ele>820.0</ele><time>2026-04-06T08:05:16Z</time></trkpt><trkpt lat="44.29958880617789" lon="10.83367142568416"><ele>820.0</ele><time>2026-04-06T08:05:18Z</time></trkpt><trkpt lat="44.299653832786156" lon="10.833623126361973"><ele>820.0</ele><time>2026-04-06T08:05:19Z</time></trkpt><trkpt lat="44.29973963710203" lon="10.833538739883219"><ele>815.8</ele><time>2026-04-06T08:05:20Z</time></trkpt><trkpt lat="44.29981860610308" lon="10.833437748771388"><ele>811.6</ele><time>2026-04-06T08:05:21Z</time></trkpt><trkpt lat="44.29989113193329" lon="10.833336159250962"><ele>807.4000000000001</ele><time>2026-04-06T08:05:22Z</time></trkpt><trkpt lat="44.29995663454638" lon="10.833256438271015"><ele>803.2</ele><time>2026-04-06T08:05:23Z</time></trkpt><trkpt lat="44.299997760427594" lon="10.833189434667304"><ele>799.0</ele><time>2026-04-06T08:05:24Z</time></trkpt><trkpt lat="44.30006909159575" lon="10.83310400269484"><ele>798.9999999999999</ele><time>2026-04-06T08:05:26Z</time></trkpt><trkpt lat="44.3001396511585" lon="10.833062984735626"><ele>799.0</ele><time>2026-04-06T08:05:29Z</time></trkpt><trkpt lat="44.3001679064263" lon="10.833175117622826"><ele>799.0</ele><time>2026-04-06T08:05:31Z</time></trkpt><trkpt lat="44.30015499134829" lon="10.833290775553618"><ele>799.0</ele><time>2026-04-06T08:05:33Z</time></trkpt><trkpt lat="44.30021832265467" lon="10.833349912441555"><ele>798.9999999999999</ele><time>2026-04-06T08:05:35Z</time></trkpt><trkpt lat="44.30028518339226" lon="10.833380574798632"><ele>799.0</ele><time>2026-04-06T08:05:36Z</time></trkpt><trkpt lat="44.300356790941194" lon="10.833425607538274"><ele>799.3333333333333</ele><time>2026-04-06T08:05:37Z</time></trkpt><trkpt lat="44.300407410287896" lon="10.833486906445527"><ele>799.6666666666666</ele><time>2026-04-06T08:05:38Z</time></trkpt><trkpt lat="44.30046048498209" lon="10.833570309372147"><ele>800.0</ele><time>2026-04-06T08:05:39Z</time></trkpt><trkpt lat="44.300479075739624" lon="10.833705695212258"><ele>800.3333333333333</ele><time>2026-04-06T08:05:41Z</time></trkpt><trkpt lat="44.3003680474584" lon="10.833753418692039"><ele>800.6666666666666</ele><time>2026-04-06T08:05:43Z</time></trkpt><trkpt lat="44.30030051231405" lon="10.83378856198752"><ele>801.0</ele><time>2026-04-06T08:05:44Z</time></trkpt><trkpt lat="44.30025167551824" lon="10.833848202621125"><ele>801.0</ele><time>2026-04-06T08:05:45Z</time></trkpt><trkpt lat="44.3001736333958" lon="10.834014243526001"><ele>801.0</ele><time>2026-04-06T08:05:46.999Z</time></trkpt><trkpt lat="44.3001612192447" lon="10.834113319280366"><ele>801.0</ele><time>2026-04-06T08:05:47.999Z</time></trkpt><trkpt lat="44.30017430815804" lon="10.834278307436588"><ele>801.0</ele><time>2026-04-06T08:05:49.999Z</time></trkpt><trkpt lat="44.30020915138953" lon="10.834363033261852"><ele>801.0</ele><time>2026-04-06T08:05:50.999Z</time></trkpt><trkpt lat="44.30026053199228" lon="10.8344466527822"><ele>801.1666666666666</ele><time>2026-04-06T08:05:51.999Z</time></trkpt><trkpt lat="44.30033293237133" lon="10.83455031221992"><ele>801.3333333333333</ele><time>2026-04-06T08:05:52.999Z</time></trkpt><trkpt lat="44.30039337070013" lon="10.8346195791821"><ele>801.5</ele><time>2026-04-06T08:05:53.999Z</time></trkpt><trkpt lat="44.30043816342813" lon="10.834699075799822"><ele>801.6666666666666</ele><time>2026-04-06T08:05:54.999Z</time></trkpt><trkpt lat="44.30048521615955" lon="10.834761171669497"><ele>801.8333333333333</ele><time>2026-04-06T08:05:55.999Z</time></trkpt><trkpt lat="44.30053682034932" lon="10.834821850975793"><ele>802.0</ele><time>2026-04-06T08:05:56.999Z</time></trkpt><trkpt lat="44.300644390268516" lon="10.834935408893225"><ele>800.75</ele><time>2026-04-06T08:05:58.999Z</time></trkpt><trkpt lat="44.30071898588981" lon="10.835047843674783"><ele>799.5</ele><time>2026-04-06T08:06:00.999Z</time></trkpt><trkpt lat="44.300793225115044" lon="10.835163168851636"><ele>798.25</ele><time>2026-04-06T08:06:02.999Z</time></trkpt><trkpt lat="44.300904613091504" lon="10.83522831552473"><ele>797.0</ele><time>2026-04-06T08:06:04.999Z</time></trkpt><trkpt lat="44.30099290473413" lon="10.835332042128334"><ele>795.6666666666667</ele><time>2026-04-06T08:06:06.999Z</time></trkpt><trkpt lat="44.30103723200497" lon="10.83539724198083"><ele>794.3333333333334</ele><time>2026-04-06T08:06:07.999Z</time></trkpt><trkpt lat="44.301098596534324" lon="10.83548620182913"><ele>793.0</ele><time>2026-04-06T08:06:09.999Z</time></trkpt><trkpt lat="44.30116467393569" lon="10.835608934108263"><ele>791.6666666666667</ele><time>2026-04-06T08:06:11.999Z</time></trkpt><trkpt lat="44.301142670423715" lon="10.835723114785013"><ele>790.3333333333334</ele><time>2026-04-06T08:06:13.999Z</time></trkpt><trkpt lat="44.301106507496925" lon="10.835840189539871"><ele>789.0</ele><time>2026-04-06T08:06:16.999Z</time></trkpt><trkpt lat="44.30100274028572" lon="10.835909418867473"><ele>789.0</ele><time>2026-04-06T08:06:18.999Z</time></trkpt><trkpt lat="44.300948864906964" lon="10.835963906627185"><ele>789.0</ele><time>2026-04-06T08:06:19.999Z</time></trkpt><trkpt lat="44.300905722109796" lon="10.836062487412866"><ele>789.0</ele><time>2026-04-06T08:06:21.999Z</time></trkpt><trkpt lat="44.3009054282051" lon="10.836151114050724"><ele>789.0</ele><time>2026-04-06T08:06:22.999Z</time></trkpt><trkpt lat="44.300870165685865" lon="10.83631881392029"><ele>789.0</ele><time>2026-04-06T08:06:24.999Z</time></trkpt><trkpt lat="44.30085775382182" lon="10.836508840726673"><ele>787.3333333333334</ele><time>2026-04-06T08:06:26.999Z</time></trkpt><trkpt lat="44.30086471154944" lon="10.836609753345881"><ele>785.6666666666667</ele><time>2026-04-06T08:06:27.999Z</time></trkpt><trkpt lat="44.300926838152165" lon="10.836743850016182"><ele>784.0</ele><time>2026-04-06T08:06:29.999Z</time></trkpt><trkpt lat="44.30095965732051" lon="10.836870102205944"><ele>782.3333333333334</ele><time>2026-04-06T08:06:31.999Z</time></trkpt><trkpt lat="44.30099021405686" lon="10.836948826699004"><ele>780.6666666666667</ele><time>2026-04-06T08:06:34Z</time></trkpt><trkpt lat="44.301049090866876" lon="10.836981852539656"><ele>779.0</ele><time>2026-04-06T08:06:36Z</time></trkpt><trkpt lat="44.30112760623429" lon="10.837014570001358"><ele>776.8000000000001</ele><time>2026-04-06T08:06:38Z</time></trkpt><trkpt lat="44.30118400081798" lon="10.837081637883685"><ele>774.6</ele><time>2026-04-06T08:06:40Z</time></trkpt><trkpt lat="44.3012691504103" lon="10.837150690247611"><ele>772.4</ele><time>2026-04-06T08:06:42Z</time></trkpt><trkpt lat="44.30134539947052" lon="10.83724888634182"><ele>770.2</ele><time>2026-04-06T08:06:44Z</time></trkpt><trkpt lat="44.30144340652583" lon="10.83730689949448"><ele>768.0</ele><time>2026-04-06T08:06:46Z</time></trkpt><trkpt lat="44.30150918921961" lon="10.837390454880074"><ele>766.0</ele><time>2026-04-06T08:06:48Z</time></trkpt><trkpt lat="44.30157386119803" lon="10.837495974081824"><ele>764.0</ele><time>2026-04-06T08:06:50Z</time></trkpt><trkpt lat="44.30164367397372" lon="10.83761477344251"><ele>762.0</ele><time>2026-04-06T08:06:52Z</time></trkpt><trkpt lat="44.30172576883711" lon="10.837725381597043"><ele>760.0</ele><time>2026-04-06T08:06:54Z</time></trkpt><trkpt lat="44.30177702774554" lon="10.83782948673372"><ele>758.0</ele><time>2026-04-06T08:06:56Z</time></trkpt><trkpt lat="44.3018558506755" lon="10.83790427576732"><ele>755.5999999999999</ele><time>2026-04-06T08:06:58Z</time></trkpt><trkpt lat="44.30191435342626" lon="10.838030606395066"><ele>753.1999999999999</ele><time>2026-04-06T08:07:00Z</time></trkpt><trkpt lat="44.301927927934244" lon="10.838120021615286"><ele>750.8</ele><time>2026-04-06T08:07:01Z</time></trkpt><trkpt lat="44.301966475629584" lon="10.838242315114266"><ele>748.4</ele><time>2026-04-06T08:07:03Z</time></trkpt><trkpt lat="44.302034190893124" lon="10.83835243346808"><ele>746.0</ele><time>2026-04-06T08:07:05Z</time></trkpt><trkpt lat="44.30212928132131" lon="10.838343460442891"><ele>746.0</ele><time>2026-04-06T08:07:07Z</time></trkpt><trkpt lat="44.30222279248752" lon="10.83835450517564"><ele>746.0</ele><time>2026-04-06T08:07:09Z</time></trkpt><trkpt lat="44.3022717217911" lon="10.838501410521655"><ele>746.0</ele><time>2026-04-06T08:07:11Z</time></trkpt><trkpt lat="44.302252407448314" lon="10.838643486624042"><ele>746.0</ele><time>2026-04-06T08:07:13Z</time></trkpt><trkpt lat="44.302258624681244" lon="10.83877356931289"><ele>746.0</ele><time>2026-04-06T08:07:15Z</time></trkpt><trkpt lat="44.30228487281455" lon="10.838855864812393"><ele>743.5</ele><time>2026-04-06T08:07:16Z</time></trkpt><trkpt lat="44.30232989970833" lon="10.838963802991453"><ele>741.0</ele><time>2026-04-06T08:07:18Z</time></trkpt><trkpt lat="44.30234317546378" lon="10.839057840367582"><ele>738.5</ele><time>2026-04-06T08:07:20Z</time></trkpt><trkpt lat="44.30239702992205" lon="10.839106111217252"><ele>736.0</ele><time>2026-04-06T08:07:22Z</time></trkpt><trkpt lat="44.30247612875109" lon="10.839130563427512"><ele>733.5</ele><time>2026-04-06T08:07:24Z</time></trkpt><trkpt lat="44.302525638791074" lon="10.839275930134317"><ele>731.0</ele><time>2026-04-06T08:07:26Z</time></trkpt><trkpt lat="44.30253408656667" lon="10.839393737356936"><ele>730.0</ele><time>2026-04-06T08:07:28Z</time></trkpt><trkpt lat="44.30251864721023" lon="10.839513096923655"><ele>729.0</ele><time>2026-04-06T08:07:31Z</time></trkpt><trkpt lat="44.3024907357394" lon="10.83963751416778"><ele>728.0</ele><time>2026-04-06T08:07:33Z</time></trkpt><trkpt lat="44.30243497181755" lon="10.839746109388173"><ele>727.0</ele><time>2026-04-06T08:07:35Z</time></trkpt><trkpt lat="44.30236038168565" lon="10.839855561724827"><ele>726.0</ele><time>2026-04-06T08:07:37Z</time></trkpt><trkpt lat="44.302359309818605" lon="10.839979311016975"><ele>726.0</ele><time>2026-04-06T08:07:39Z</time></trkpt><trkpt lat="44.302433812662926" lon="10.840024423480884"><ele>726.0</ele><time>2026-04-06T08:07:41Z</time></trkpt><trkpt lat="44.30250015118276" lon="10.839932965406174"><ele>726.0</ele><time>2026-04-06T08:07:43Z</time></trkpt><trkpt lat="44.30258353963187" lon="10.83983213664982"><ele>726.0</ele><time>2026-04-06T08:07:45Z</time></trkpt><trkpt lat="44.302639035437224" lon="10.839774865404818"><ele>726.0</ele><time>2026-04-06T08:07:46Z</time></trkpt><trkpt lat="44.30269495788294" lon="10.839702973800412"><ele>726.0</ele><time>2026-04-06T08:07:47.999Z</time></trkpt><trkpt lat="44.3027487281399" lon="10.839633617207772"><ele>726.0</ele><time>2026-04-06T08:07:50.999Z</time></trkpt><trkpt lat="44.302825581710614" lon="10.83964912524741"><ele>726.0</ele><time>2026-04-06T08:07:55.999Z</time></trkpt><trkpt lat="44.30291538486432" lon="10.83964825388427"><ele>726.0</ele><time>2026-04-06T08:07:58.999Z</time></trkpt><trkpt lat="44.30298171163558" lon="10.83962509035715"><ele>726.0</ele><time>2026-04-06T08:08:01.999Z</time></trkpt><trkpt lat="44.30304499026628" lon="10.839661653448928"><ele>726.0</ele><time>2026-04-06T08:08:04.999Z</time></trkpt><trkpt lat="44.30309084259965" lon="10.839745056584809"><ele>726.0</ele><time>2026-04-06T08:08:06.999Z</time></trkpt><trkpt lat="44.30314911945952" lon="10.839802732407536"><ele>723.8333333333334</ele><time>2026-04-06T08:08:09.999Z</time></trkpt><trkpt lat="44.30322789127111" lon="10.839865010764651"><ele>721.6666666666666</ele><time>2026-04-06T08:08:14.999Z</time></trkpt><trkpt lat="44.30329067443379" lon="10.83989238933275"><ele>719.5</ele><time>2026-04-06T08:08:17.999Z</time></trkpt><trkpt lat="44.30335578818711" lon="10.839914624479375"><ele>717.3333333333333</ele><time>2026-04-06T08:08:21.999Z</time></trkpt><trkpt lat="44.30343289071261" lon="10.839951584570995"><ele>715.1666666666666</ele><time>2026-04-06T08:08:30.999Z</time></trkpt><trkpt lat="44.303460935219285" lon="10.840030863218157"><ele>713.0</ele><time>2026-04-06T08:08:38.999Z</time></trkpt><trkpt lat="44.30351309167746" lon="10.840121353868941"><ele>712.5714285714286</ele><time>2026-04-06T08:08:45Z</time></trkpt><trkpt lat="44.30354728448543" lon="10.840215429796805"><ele>712.1428571428572</ele><time>2026-04-06T08:08:49Z</time></trkpt><trkpt lat="44.30356890479625" lon="10.840302894009616"><ele>711.7142857142858</ele><time>2026-04-06T08:08:57Z</time></trkpt><trkpt lat="44.30357166784706" lon="10.84040252162544"><ele>711.2857142857142</ele><time>2026-04-06T08:09:06Z</time></trkpt><trkpt lat="44.30359544916214" lon="10.840496176083244"><ele>710.8571428571429</ele><time>2026-04-06T08:09:16Z</time></trkpt><trkpt lat="44.30359312730422" lon="10.840618734146656"><ele>710.4285714285714</ele><time>2026-04-06T08:09:45Z</time></trkpt><trkpt lat="44.30365414866855" lon="10.84067360893195"><ele>710.0</ele><time>2026-04-06T08:09:53.999Z</time></trkpt><trkpt lat="44.30374109922786" lon="10.840766662142933"><ele>710.0</ele><time>2026-04-06T08:09:56.999Z</time></trkpt><trkpt lat="44.30380635889673" lon="10.840801838643008"><ele>710.0</ele><time>2026-04-06T08:09:59.999Z</time></trkpt><trkpt lat="44.303848653570086" lon="10.840712745935667"><ele>710.0</ele><time>2026-04-06T08:10:02.999Z</time></trkpt><trkpt lat="44.303868392139776" lon="10.8406210752393"><ele>710.0</ele><time>2026-04-06T08:10:04.999Z</time></trkpt><trkpt lat="44.303876001489975" lon="10.84049357833779"><ele>710.0</ele><time>2026-04-06T08:10:07.999Z</time></trkpt><trkpt lat="44.303886389008966" lon="10.840396220402807"><ele>710.0</ele><time>2026-04-06T08:10:09.999Z</time></trkpt><trkpt lat="44.303917450987754" lon="10.840268655544113"><ele>706.0</ele><time>2026-04-06T08:10:12.999Z</time></trkpt><trkpt lat="44.303973191760484" lon="10.840157326288972"><ele>702.0</ele><time>2026-04-06T08:10:14.999Z</time></trkpt><trkpt lat="44.3040205116518" lon="10.840046229723473"><ele>698.0</ele><time>2026-04-06T08:10:16.999Z</time></trkpt><trkpt lat="44.30407377754846" lon="10.839969234157245"><ele>694.0</ele><time>2026-04-06T08:10:18.999Z</time></trkpt><trkpt lat="44.30411533838225" lon="10.839861268996417"><ele>690.0</ele><time>2026-04-06T08:10:21.999Z</time></trkpt><trkpt lat="44.30413136612041" lon="10.839756230956391"><ele>686.0</ele><time>2026-04-06T08:10:25.999Z</time></trkpt><trkpt lat="44.30405017046637" lon="10.839734632017002"><ele>686.0</ele><time>2026-04-06T08:10:27.999Z</time></trkpt><trkpt lat="44.30400655975306" lon="10.839626428458347"><ele>686.0</ele><time>2026-04-06T08:10:30.999Z</time></trkpt><trkpt lat="44.304001958156874" lon="10.83953818627743"><ele>686.0</ele><time>2026-04-06T08:10:32.999Z</time></trkpt><trkpt lat="44.304064199717935" lon="10.8395005463969"><ele>686.0</ele><time>2026-04-06T08:10:35.999Z</time></trkpt><trkpt lat="44.30412761715972" lon="10.839527014131283"><ele>686.0</ele><time>2026-04-06T08:10:38.999Z</time></trkpt><trkpt lat="44.304218032584345" lon="10.839527334979799"><ele>686.0</ele><time>2026-04-06T08:10:41.999Z</time></trkpt><trkpt lat="44.30430115926988" lon="10.83955887093137"><ele>686.0</ele><time>2026-04-06T08:10:44.999Z</time></trkpt><trkpt lat="44.30437085047746" lon="10.839559600601383"><ele>686.0</ele><time>2026-04-06T08:10:47Z</time></trkpt><trkpt lat="44.30445778394418" lon="10.839613112614153"><ele>686.0</ele><time>2026-04-06T08:10:50Z</time></trkpt><trkpt lat="44.30453407360165" lon="10.839685010601475"><ele>686.0</ele><time>2026-04-06T08:10:53Z</time></trkpt><trkpt lat="44.30459891090754" lon="10.839725977153353"><ele>686.0</ele><time>2026-04-06T08:10:55Z</time></trkpt><trkpt lat="44.304654172043264" lon="10.83977051297301"><ele>686.0</ele><time>2026-04-06T08:10:57Z</time></trkpt><trkpt lat="44.30472052923709" lon="10.839822871453881"><ele>681.1666666666666</ele><time>2026-04-06T08:10:59Z</time></trkpt><trkpt lat="44.30478804327584" lon="10.839843213026999"><ele>676.3333333333333</ele><time>2026-04-06T08:11:01Z</time></trkpt><trkpt lat="44.3048737556887" lon="10.839857442365908"><ele>671.5</ele><time>2026-04-06T08:11:03Z</time></trkpt><trkpt lat="44.30492605153195" lon="10.839907424871381"><ele>666.6666666666666</ele><time>2026-04-06T08:11:05Z</time></trkpt><trkpt lat="44.30498757783183" lon="10.839999852217428"><ele>661.8333333333334</ele><time>2026-04-06T08:11:07Z</time></trkpt><trkpt lat="44.30504883392558" lon="10.84006504862203"><ele>657.0</ele><time>2026-04-06T08:11:09Z</time></trkpt><trkpt lat="44.30510650367952" lon="10.840129447637905"><ele>657.0</ele><time>2026-04-06T08:11:12Z</time></trkpt><trkpt lat="44.30518154803747" lon="10.840132377077296"><ele>657.0</ele><time>2026-04-06T08:11:15Z</time></trkpt><trkpt lat="44.305244555351194" lon="10.840079516169439"><ele>657.0</ele><time>2026-04-06T08:11:17Z</time></trkpt><trkpt lat="44.3052873997872" lon="10.840165855681464"><ele>657.0</ele><time>2026-04-06T08:11:19Z</time></trkpt><trkpt lat="44.30533109487194" lon="10.840321565538755"><ele>657.0</ele><time>2026-04-06T08:11:21Z</time></trkpt><trkpt lat="44.30542385289407" lon="10.840385598059852"><ele>657.0</ele><time>2026-04-06T08:11:23Z</time></trkpt><trkpt lat="44.30549570913356" lon="10.84043665284196"><ele>656.8333333333334</ele><time>2026-04-06T08:11:24Z</time></trkpt><trkpt lat="44.30560434932264" lon="10.840519916468574"><ele>656.6666666666666</ele><time>2026-04-06T08:11:26Z</time></trkpt><trkpt lat="44.305667250034844" lon="10.84056956672043"><ele>656.5</ele><time>2026-04-06T08:11:27Z</time></trkpt><trkpt lat="44.30572727010611" lon="10.840646699405218"><ele>656.3333333333333</ele><time>2026-04-06T08:11:28Z</time></trkpt><trkpt lat="44.30577574083742" lon="10.840735021358071"><ele>656.1666666666666</ele><time>2026-04-06T08:11:29Z</time></trkpt><trkpt lat="44.3058167476842" lon="10.840823579865186"><ele>656.0</ele><time>2026-04-06T08:11:30Z</time></trkpt><trkpt lat="44.30585938727586" lon="10.840906191345496"><ele>657.9999999999999</ele><time>2026-04-06T08:11:31Z</time></trkpt><trkpt lat="44.30589574692953" lon="10.840984255476075"><ele>660.0</ele><time>2026-04-06T08:11:32Z</time></trkpt><trkpt lat="44.305935540372026" lon="10.84105501138818"><ele>662.0</ele><time>2026-04-06T08:11:33Z</time></trkpt><trkpt lat="44.30597249008343" lon="10.841128339645303"><ele>664.0</ele><time>2026-04-06T08:11:34Z</time></trkpt><trkpt lat="44.30600834163184" lon="10.841211380007572"><ele>666.0</ele><time>2026-04-06T08:11:35Z</time></trkpt><trkpt lat="44.30604021595305" lon="10.841302298168769"><ele>667.9999999999999</ele><time>2026-04-06T08:11:36Z</time></trkpt><trkpt lat="44.306069713793605" lon="10.841390024026879"><ele>670.0</ele><time>2026-04-06T08:11:37Z</time></trkpt><trkpt lat="44.30609312764716" lon="10.841472033051502"><ele>670.0</ele><time>2026-04-06T08:11:38Z</time></trkpt><trkpt lat="44.30610915930534" lon="10.841557394670527"><ele>670.0</ele><time>2026-04-06T08:11:39Z</time></trkpt><trkpt lat="44.30609514113619" lon="10.841728855215457"><ele>670.0</ele><time>2026-04-06T08:11:41Z</time></trkpt><trkpt lat="44.30607967489754" lon="10.84182498819557"><ele>670.0</ele><time>2026-04-06T08:11:42Z</time></trkpt><trkpt lat="44.30608120887141" lon="10.841967260194613"><ele>670.0</ele><time>2026-04-06T08:11:44Z</time></trkpt><trkpt lat="44.30616686096045" lon="10.842051597887533"><ele>670.0</ele><time>2026-04-06T08:11:46Z</time></trkpt><trkpt lat="44.30622772128102" lon="10.842093741519305"><ele>670.0</ele><time>2026-04-06T08:11:47Z</time></trkpt><trkpt lat="44.30628673078397" lon="10.84214360279431"><ele>670.0</ele><time>2026-04-06T08:11:48Z</time></trkpt><trkpt lat="44.306342692912885" lon="10.842188081152132"><ele>670.0</ele><time>2026-04-06T08:11:49Z</time></trkpt><trkpt lat="44.30640471992952" lon="10.842209253958025"><ele>670.0</ele><time>2026-04-06T08:11:50Z</time></trkpt><trkpt lat="44.306518611959405" lon="10.842228474253655"><ele>670.0</ele><time>2026-04-06T08:11:52Z</time></trkpt><trkpt lat="44.30658691840566" lon="10.84225178868119"><ele>670.0</ele><time>2026-04-06T08:11:53.999Z</time></trkpt><trkpt lat="44.306612181538945" lon="10.84235986291493"><ele>670.0</ele><time>2026-04-06T08:11:55.999Z</time></trkpt><trkpt lat="44.306598001396424" lon="10.842459680908199"><ele>670.0</ele><time>2026-04-06T08:11:56.999Z</time></trkpt><trkpt lat="44.30665539885903" lon="10.842605317713348"><ele>670.0</ele><time>2026-04-06T08:11:58.999Z</time></trkpt><trkpt lat="44.30668528578742" lon="10.842690082046706"><ele>670.0</ele><time>2026-04-06T08:11:59.999Z</time></trkpt><trkpt lat="44.306716163930155" lon="10.84277558536331"><ele>670.0</ele><time>2026-04-06T08:12:00.999Z</time></trkpt><trkpt lat="44.30674988278984" lon="10.842868166911389"><ele>667.0</ele><time>2026-04-06T08:12:01.999Z</time></trkpt><trkpt lat="44.30678607548597" lon="10.842957452590618"><ele>664.0</ele><time>2026-04-06T08:12:02.999Z</time></trkpt><trkpt lat="44.30682946097872" lon="10.843054569749508"><ele>661.0</ele><time>2026-04-06T08:12:03.999Z</time></trkpt><trkpt lat="44.306882475609285" lon="10.843161862559983"><ele>658.0</ele><time>2026-04-06T08:12:04.999Z</time></trkpt><trkpt lat="44.30692405024391" lon="10.843291532842965"><ele>655.0</ele><time>2026-04-06T08:12:05.999Z</time></trkpt><trkpt lat="44.30697790691447" lon="10.843408982982357"><ele>653.0</ele><time>2026-04-06T08:12:06.999Z</time></trkpt><trkpt lat="44.30704260139795" lon="10.84352189759911"><ele>651.0</ele><time>2026-04-06T08:12:07.999Z</time></trkpt><trkpt lat="44.30708978116541" lon="10.843646745652583"><ele>649.0</ele><time>2026-04-06T08:12:08.999Z</time></trkpt><trkpt lat="44.307128419001124" lon="10.843765243007399"><ele>647.0</ele><time>2026-04-06T08:12:09.999Z</time></trkpt><trkpt lat="44.3071777528456" lon="10.843875617851472"><ele>645.0</ele><time>2026-04-06T08:12:10.999Z</time></trkpt><trkpt lat="44.307234570507234" lon="10.843959544737606"><ele>648.3333333333334</ele><time>2026-04-06T08:12:11.999Z</time></trkpt><trkpt lat="44.307302553292836" lon="10.844010522316061"><ele>651.6666666666666</ele><time>2026-04-06T08:12:12.999Z</time></trkpt><trkpt lat="44.307378075200354" lon="10.84403535726748"><ele>655.0</ele><time>2026-04-06T08:12:13.999Z</time></trkpt><trkpt lat="44.30746525207036" lon="10.844030180444676"><ele>658.3333333333333</ele><time>2026-04-06T08:12:14.999Z</time></trkpt><trkpt lat="44.30756288657047" lon="10.84401649074366"><ele>661.6666666666666</ele><time>2026-04-06T08:12:15.999Z</time></trkpt><trkpt lat="44.30763414919089" lon="10.844015882773574"><ele>665.0</ele><time>2026-04-06T08:12:16.999Z</time></trkpt><trkpt lat="44.30771056258923" lon="10.844050609530687"><ele>665.0</ele><time>2026-04-06T08:12:17.999Z</time></trkpt><trkpt lat="44.30779752230727" lon="10.844079573164562"><ele>665.0</ele><time>2026-04-06T08:12:18.999Z</time></trkpt><trkpt lat="44.30787606918972" lon="10.84410395861979"><ele>665.0</ele><time>2026-04-06T08:12:19.999Z</time></trkpt><trkpt lat="44.30795287381538" lon="10.844125962300577"><ele>665.0</ele><time>2026-04-06T08:12:20.999Z</time></trkpt><trkpt lat="44.30807555306594" lon="10.844157031591735"><ele>665.0</ele><time>2026-04-06T08:12:22.999Z</time></trkpt><trkpt lat="44.30815661509359" lon="10.844160202020841"><ele>666.8</ele><time>2026-04-06T08:12:23.999Z</time></trkpt><trkpt lat="44.308232752549955" lon="10.84416871460945"><ele>668.6</ele><time>2026-04-06T08:12:25.999Z</time></trkpt><trkpt lat="44.30835153172834" lon="10.844083269428312"><ele>670.4000000000001</ele><time>2026-04-06T08:12:27.999Z</time></trkpt><trkpt lat="44.30843449836678" lon="10.844029319271979"><ele>672.2</ele><time>2026-04-06T08:12:28.999Z</time></trkpt><trkpt lat="44.308544166240225" lon="10.843984835025147"><ele>674.0</ele><time>2026-04-06T08:12:29.999Z</time></trkpt><trkpt lat="44.308658035114554" lon="10.843919226978569"><ele>674.0</ele><time>2026-04-06T08:12:30.999Z</time></trkpt><trkpt lat="44.30878436630097" lon="10.843834442585871"><ele>674.0</ele><time>2026-04-06T08:12:31.999Z</time></trkpt><trkpt lat="44.30889230137773" lon="10.843712896960518"><ele>674.0</ele><time>2026-04-06T08:12:32.999Z</time></trkpt><trkpt lat="44.30899323831908" lon="10.843617701190723"><ele>674.0</ele><time>2026-04-06T08:12:33.999Z</time></trkpt><trkpt lat="44.309104887181476" lon="10.843554815434418"><ele>673.4000000000001</ele><time>2026-04-06T08:12:34.999Z</time></trkpt><trkpt lat="44.30921228682275" lon="10.843483910448313"><ele>672.8</ele><time>2026-04-06T08:12:35.999Z</time></trkpt><trkpt lat="44.30929274632703" lon="10.843386812495407"><ele>672.2</ele><time>2026-04-06T08:12:36.999Z</time></trkpt><trkpt lat="44.309376042996035" lon="10.843308871090487"><ele>671.5999999999999</ele><time>2026-04-06T08:12:37.999Z</time></trkpt><trkpt lat="44.30947785572316" lon="10.843272044802326"><ele>671.0</ele><time>2026-04-06T08:12:38.999Z</time></trkpt><trkpt lat="44.30958649668757" lon="10.843264189098557"><ele>677.0</ele><time>2026-04-06T08:12:39.999Z</time></trkpt><trkpt lat="44.30970233270895" lon="10.843261457557668"><ele>683.0</ele><time>2026-04-06T08:12:40.999Z</time></trkpt><trkpt lat="44.30982112526161" lon="10.843263477409236"><ele>689.0</ele><time>2026-04-06T08:12:41.999Z</time></trkpt><trkpt lat="44.30993659348088" lon="10.843284523220206"><ele>695.0</ele><time>2026-04-06T08:12:42.999Z</time></trkpt><trkpt lat="44.310039670405786" lon="10.84332692487363"><ele>694.8</ele><time>2026-04-06T08:12:43.999Z</time></trkpt><trkpt lat="44.31012667348012" lon="10.843396851663815"><ele>694.6</ele><time>2026-04-06T08:12:44.999Z</time></trkpt><trkpt lat="44.31020146638375" lon="10.843492422163877"><ele>694.4000000000001</ele><time>2026-04-06T08:12:45.999Z</time></trkpt><trkpt lat="44.3102438763846" lon="10.84362472757485"><ele>694.2</ele><time>2026-04-06T08:12:46.999Z</time></trkpt><trkpt lat="44.31024145895986" lon="10.843769165208942"><ele>694.0</ele><time>2026-04-06T08:12:47.999Z</time></trkpt><trkpt lat="44.310226997735626" lon="10.843957260637264"><ele>694.0</ele><time>2026-04-06T08:12:48.999Z</time></trkpt><trkpt lat="44.31023764450756" lon="10.844166237646977"><ele>694.0</ele><time>2026-04-06T08:12:49.999Z</time></trkpt><trkpt lat="44.31023327342738" lon="10.844365046723683"><ele>694.0</ele><time>2026-04-06T08:12:50.999Z</time></trkpt><trkpt lat="44.310234955218206" lon="10.844564192146548"><ele>694.0</ele><time>2026-04-06T08:12:52Z</time></trkpt><trkpt lat="44.31023617314123" lon="10.844775643745319"><ele>693.75</ele><time>2026-04-06T08:12:53Z</time></trkpt><trkpt lat="44.31023649751219" lon="10.844988608605721"><ele>693.5</ele><time>2026-04-06T08:12:54Z</time></trkpt><trkpt lat="44.31024267103831" lon="10.845191951746276"><ele>693.25</ele><time>2026-04-06T08:12:55Z</time></trkpt><trkpt lat="44.310266758839866" lon="10.84538471068758"><ele>693.0</ele><time>2026-04-06T08:12:56Z</time></trkpt><trkpt lat="44.31030592521794" lon="10.845566928203603"><ele>692.25</ele><time>2026-04-06T08:12:57Z</time></trkpt><trkpt lat="44.31035124292187" lon="10.845744948501512"><ele>691.5</ele><time>2026-04-06T08:12:58Z</time></trkpt><trkpt lat="44.310396345917226" lon="10.845918513751258"><ele>690.75</ele><time>2026-04-06T08:12:59Z</time></trkpt><trkpt lat="44.31044329758661" lon="10.846066031031807"><ele>690.0</ele><time>2026-04-06T08:13:00Z</time></trkpt><trkpt lat="44.31050143767715" lon="10.846183004033207"><ele>691.4</ele><time>2026-04-06T08:13:01Z</time></trkpt><trkpt lat="44.310564242710136" lon="10.846255391694045"><ele>692.8</ele><time>2026-04-06T08:13:02Z</time></trkpt><trkpt lat="44.310640106773256" lon="10.846281641185136"><ele>694.2</ele><time>2026-04-06T08:13:03Z</time></trkpt><trkpt lat="44.310733587697065" lon="10.846236614974222"><ele>695.6</ele><time>2026-04-06T08:13:04Z</time></trkpt><trkpt lat="44.310823614636526" lon="10.846138611361445"><ele>697.0</ele><time>2026-04-06T08:13:05Z</time></trkpt><trkpt lat="44.31090439022707" lon="10.845998183642905"><ele>701.5</ele><time>2026-04-06T08:13:06Z</time></trkpt><trkpt lat="44.310966396463016" lon="10.845850650527519"><ele>706.0</ele><time>2026-04-06T08:13:07Z</time></trkpt><trkpt lat="44.31102997837179" lon="10.845707256838196"><ele>710.5</ele><time>2026-04-06T08:13:08Z</time></trkpt><trkpt lat="44.31110720036669" lon="10.845576227623623"><ele>715.0</ele><time>2026-04-06T08:13:09Z</time></trkpt><trkpt lat="44.31117518895075" lon="10.845433882770308"><ele>715.0</ele><time>2026-04-06T08:13:10Z</time></trkpt><trkpt lat="44.31124474131732" lon="10.84529211735766"><ele>715.0</ele><time>2026-04-06T08:13:11Z</time></trkpt><trkpt lat="44.3112978503387" lon="10.84513768668172"><ele>715.0</ele><time>2026-04-06T08:13:12Z</time></trkpt><trkpt lat="44.311356992247845" lon="10.845012211009383"><ele>715.0</ele><time>2026-04-06T08:13:13Z</time></trkpt><trkpt lat="44.31138055811066" lon="10.844869207795002"><ele>715.0</ele><time>2026-04-06T08:13:14Z</time></trkpt><trkpt lat="44.31139322489411" lon="10.844724106604929"><ele>715.0</ele><time>2026-04-06T08:13:15Z</time></trkpt><trkpt lat="44.311401268370545" lon="10.844572077892057"><ele>715.0</ele><time>2026-04-06T08:13:16Z</time></trkpt><trkpt lat="44.311408028521925" lon="10.844420740191195"><ele>715.0</ele><time>2026-04-06T08:13:17Z</time></trkpt><trkpt lat="44.311409165581594" lon="10.84426885266327"><ele>715.0</ele><time>2026-04-06T08:13:18Z</time></trkpt><trkpt lat="44.31141184822499" lon="10.844128341462207"><ele>716.6</ele><time>2026-04-06T08:13:19Z</time></trkpt><trkpt lat="44.31140596055381" lon="10.84396911744691"><ele>718.2</ele><time>2026-04-06T08:13:20Z</time></trkpt><trkpt lat="44.31141077576032" lon="10.843813359000382"><ele>719.8</ele><time>2026-04-06T08:13:21Z</time></trkpt><trkpt lat="44.311417287710874" lon="10.843663016920098"><ele>721.4</ele><time>2026-04-06T08:13:22Z</time></trkpt><trkpt lat="44.31142306256827" lon="10.843516387773676"><ele>723.0</ele><time>2026-04-06T08:13:23Z</time></trkpt><trkpt lat="44.31142268040796" lon="10.84337597054631"><ele>724.0</ele><time>2026-04-06T08:13:24Z</time></trkpt><trkpt lat="44.311426190341614" lon="10.843234731924818"><ele>725.0</ele><time>2026-04-06T08:13:25Z</time></trkpt><trkpt lat="44.311436146699045" lon="10.843102018843613"><ele>726.0</ele><time>2026-04-06T08:13:26Z</time></trkpt><trkpt lat="44.31144172975164" lon="10.842967671885699"><ele>727.0</ele><time>2026-04-06T08:13:27Z</time></trkpt><trkpt lat="44.31148939802495" lon="10.842841864099816"><ele>728.0</ele><time>2026-04-06T08:13:28Z</time></trkpt><trkpt lat="44.311528472481015" lon="10.842711401673903"><ele>730.25</ele><time>2026-04-06T08:13:29Z</time></trkpt><trkpt lat="44.311554999375275" lon="10.842580037217152"><ele>732.5</ele><time>2026-04-06T08:13:30Z</time></trkpt><trkpt lat="44.31160614159683" lon="10.84242398761651"><ele>734.75</ele><time>2026-04-06T08:13:31Z</time></trkpt><trkpt lat="44.31165291076935" lon="10.842272112955408"><ele>737.0</ele><time>2026-04-06T08:13:32Z</time></trkpt><trkpt lat="44.311717961782215" lon="10.84213733096921"><ele>737.0</ele><time>2026-04-06T08:13:33Z</time></trkpt><trkpt lat="44.31177214842912" lon="10.842005942947512"><ele>737.0</ele><time>2026-04-06T08:13:34Z</time></trkpt><trkpt lat="44.31183601665013" lon="10.841860712955018"><ele>737.0</ele><time>2026-04-06T08:13:35Z</time></trkpt><trkpt lat="44.311901207240275" lon="10.841720154191075"><ele>737.0</ele><time>2026-04-06T08:13:36Z</time></trkpt><trkpt lat="44.31198663590707" lon="10.841572160954472"><ele>736.5</ele><time>2026-04-06T08:13:37Z</time></trkpt><trkpt lat="44.31209216017389" lon="10.841402774242736"><ele>736.0</ele><time>2026-04-06T08:13:38Z</time></trkpt><trkpt lat="44.31218039364996" lon="10.841243315706958"><ele>735.5</ele><time>2026-04-06T08:13:39Z</time></trkpt><trkpt lat="44.31228692785839" lon="10.84114986467028"><ele>735.0</ele><time>2026-04-06T08:13:40Z</time></trkpt><trkpt lat="44.31237731805735" lon="10.841081187435679"><ele>735.0</ele><time>2026-04-06T08:13:41Z</time></trkpt><trkpt lat="44.312491855751645" lon="10.841042282412882"><ele>735.0</ele><time>2026-04-06T08:13:42Z</time></trkpt><trkpt lat="44.312626249276796" lon="10.841043467288696"><ele>735.0</ele><time>2026-04-06T08:13:43Z</time></trkpt><trkpt lat="44.31276261368659" lon="10.841097505839379"><ele>735.0</ele><time>2026-04-06T08:13:44Z</time></trkpt><trkpt lat="44.312908762923016" lon="10.84113001404264"><ele>735.0</ele><time>2026-04-06T08:13:45Z</time></trkpt><trkpt lat="44.31304805817226" lon="10.841188607620515"><ele>735.0</ele><time>2026-04-06T08:13:46Z</time></trkpt><trkpt lat="44.31316017332463" lon="10.841223906102341"><ele>735.0</ele><time>2026-04-06T08:13:47Z</time></trkpt><trkpt lat="44.313245394891844" lon="10.84126208461149"><ele>735.0</ele><time>2026-04-06T08:13:48Z</time></trkpt><trkpt lat="44.31334219689717" lon="10.84131234542614"><ele>736.0</ele><time>2026-04-06T08:13:50Z</time></trkpt><trkpt lat="44.313417547372524" lon="10.841324192636899"><ele>737.0</ele><time>2026-04-06T08:14:52.999Z</time></trkpt><trkpt lat="44.31348743009764" lon="10.841342197640069"><ele>738.0</ele><time>2026-04-06T08:14:53.999Z</time></trkpt><trkpt lat="44.3135626144981" lon="10.841338420954612"><ele>739.0</ele><time>2026-04-06T08:14:54.999Z</time></trkpt><trkpt lat="44.31369159022233" lon="10.841331942202238"><ele>740.0</ele><time>2026-04-06T08:14:55.999Z</time></trkpt><trkpt lat="44.31383325656993" lon="10.841324677648261"><ele>741.0</ele><time>2026-04-06T08:14:56.999Z</time></trkpt><trkpt lat="44.313998144087066" lon="10.841355516335481"><ele>742.0</ele><time>2026-04-06T08:14:58Z</time></trkpt><trkpt lat="44.314182434448576" lon="10.84142006103348"><ele>743.0</ele><time>2026-04-06T08:14:59Z</time></trkpt><trkpt lat="44.314379386583255" lon="10.8414487849543"><ele>743.0</ele><time>2026-04-06T08:15:00Z</time></trkpt><trkpt lat="44.31456472458132" lon="10.841479715595636"><ele>743.0</ele><time>2026-04-06T08:15:01Z</time></trkpt><trkpt lat="44.31478829846738" lon="10.8414850813653"><ele>743.0</ele><time>2026-04-06T08:15:02Z</time></trkpt><trkpt lat="44.31499350851858" lon="10.84153513623406"><ele>743.3333333333333</ele><time>2026-04-06T08:15:03Z</time></trkpt><trkpt lat="44.31518252187243" lon="10.841572892000961"><ele>743.6666666666666</ele><time>2026-04-06T08:15:04Z</time></trkpt><trkpt lat="44.31535228871232" lon="10.841581907854161"><ele>744.0</ele><time>2026-04-06T08:15:05Z</time></trkpt><trkpt lat="44.31549963855599" lon="10.841615174976683"><ele>745.75</ele><time>2026-04-06T08:15:06Z</time></trkpt><trkpt lat="44.31565974045807" lon="10.84164061240893"><ele>747.5</ele><time>2026-04-06T08:15:07Z</time></trkpt><trkpt lat="44.315799180337635" lon="10.841668537787257"><ele>749.25</ele><time>2026-04-06T08:15:08Z</time></trkpt><trkpt lat="44.315929038730324" lon="10.841681567317757"><ele>751.0</ele><time>2026-04-06T08:15:09Z</time></trkpt><trkpt lat="44.31605409803584" lon="10.841677337282851"><ele>751.0</ele><time>2026-04-06T08:15:10Z</time></trkpt><trkpt lat="44.316157538503774" lon="10.841670620580452"><ele>751.0</ele><time>2026-04-06T08:15:11Z</time></trkpt><trkpt lat="44.316247922093865" lon="10.841693992180685"><ele>751.0</ele><time>2026-04-06T08:15:12Z</time></trkpt><trkpt lat="44.31631158574548" lon="10.84178158523781"><ele>751.0</ele><time>2026-04-06T08:15:13Z</time></trkpt><trkpt lat="44.31633547854626" lon="10.841921509860812"><ele>751.0</ele><time>2026-04-06T08:15:14Z</time></trkpt><trkpt lat="44.316358024616825" lon="10.842085357861347"><ele>751.75</ele><time>2026-04-06T08:15:15Z</time></trkpt><trkpt lat="44.31638619715224" lon="10.842264334682463"><ele>752.5</ele><time>2026-04-06T08:15:16Z</time></trkpt><trkpt lat="44.31643168173092" lon="10.842444574157174"><ele>753.25</ele><time>2026-04-06T08:15:17Z</time></trkpt><trkpt lat="44.316500076468586" lon="10.842616080092572"><ele>754.0</ele><time>2026-04-06T08:15:18Z</time></trkpt><trkpt lat="44.316598252610376" lon="10.84276738871649"><ele>755.0</ele><time>2026-04-06T08:15:19Z</time></trkpt><trkpt lat="44.31672743526325" lon="10.84291695036792"><ele>756.0</ele><time>2026-04-06T08:15:20Z</time></trkpt><trkpt lat="44.316848464949885" lon="10.843047379563858"><ele>757.0</ele><time>2026-04-06T08:15:21Z</time></trkpt><trkpt lat="44.316979850647755" lon="10.843160146955643"><ele>757.0</ele><time>2026-04-06T08:15:22Z</time></trkpt><trkpt lat="44.31711644048408" lon="10.843261698417955"><ele>757.0</ele><time>2026-04-06T08:15:23Z</time></trkpt><trkpt lat="44.317254344829436" lon="10.843340210878313"><ele>757.0</ele><time>2026-04-06T08:15:24Z</time></trkpt><trkpt lat="44.31739520875132" lon="10.843402190269348"><ele>757.6666666666667</ele><time>2026-04-06T08:15:25Z</time></trkpt><trkpt lat="44.317549969713355" lon="10.84345750198245"><ele>758.3333333333334</ele><time>2026-04-06T08:15:26Z</time></trkpt><trkpt lat="44.31769482846077" lon="10.84350686329761"><ele>759.0</ele><time>2026-04-06T08:15:27Z</time></trkpt><trkpt lat="44.31784039027759" lon="10.843559274781427"><ele>760.3333333333334</ele><time>2026-04-06T08:15:28Z</time></trkpt><trkpt lat="44.31799571203216" lon="10.843617916749459"><ele>761.6666666666667</ele><time>2026-04-06T08:15:29Z</time></trkpt><trkpt lat="44.318138800285794" lon="10.843707127323428"><ele>763.0</ele><time>2026-04-06T08:15:30Z</time></trkpt><trkpt lat="44.3182813848288" lon="10.843750400415082"><ele>763.0</ele><time>2026-04-06T08:15:31Z</time></trkpt><trkpt lat="44.318417068302196" lon="10.843823019894216"><ele>763.0</ele><time>2026-04-06T08:15:32Z</time></trkpt><trkpt lat="44.31853476626692" lon="10.843893557630299"><ele>763.0</ele><time>2026-04-06T08:15:33Z</time></trkpt><trkpt lat="44.318631465326156" lon="10.843984674449397"><ele>763.0</ele><time>2026-04-06T08:15:34Z</time></trkpt><trkpt lat="44.31871167109748" lon="10.844083611637194"><ele>763.0</ele><time>2026-04-06T08:15:35Z</time></trkpt><trkpt lat="44.31877935210633" lon="10.84419484214324"><ele>763.0</ele><time>2026-04-06T08:15:36Z</time></trkpt><trkpt lat="44.31882858450251" lon="10.844287822712982"><ele>763.0</ele><time>2026-04-06T08:15:37Z</time></trkpt><trkpt lat="44.31887429545655" lon="10.844401672632952"><ele>763.0</ele><time>2026-04-06T08:15:38Z</time></trkpt><trkpt lat="44.318912787501446" lon="10.844524159945193"><ele>763.0</ele><time>2026-04-06T08:15:39Z</time></trkpt><trkpt lat="44.31895047586775" lon="10.84466411011417"><ele>762.75</ele><time>2026-04-06T08:15:40Z</time></trkpt><trkpt lat="44.31901996966764" lon="10.844817361612302"><ele>762.5</ele><time>2026-04-06T08:15:41Z</time></trkpt><trkpt lat="44.31912773950003" lon="10.844951470777522"><ele>762.25</ele><time>2026-04-06T08:15:42Z</time></trkpt><trkpt lat="44.3192647185507" lon="10.84508085753638"><ele>762.0</ele><time>2026-04-06T08:15:43Z</time></trkpt><trkpt lat="44.31941466318417" lon="10.845190507142389"><ele>763.25</ele><time>2026-04-06T08:15:44Z</time></trkpt><trkpt lat="44.31956811213096" lon="10.845281360527519"><ele>764.5</ele><time>2026-04-06T08:15:45Z</time></trkpt><trkpt lat="44.319704647159405" lon="10.845340329967758"><ele>765.75</ele><time>2026-04-06T08:15:46Z</time></trkpt><trkpt lat="44.319812805161334" lon="10.845440209983787"><ele>767.0</ele><time>2026-04-06T08:15:47Z</time></trkpt><trkpt lat="44.31993217549259" lon="10.845518339789288"><ele>767.0</ele><time>2026-04-06T08:15:48Z</time></trkpt><trkpt lat="44.320026396762636" lon="10.845614869588477"><ele>767.0</ele><time>2026-04-06T08:15:49Z</time></trkpt><trkpt lat="44.32011647765058" lon="10.845716686080312"><ele>767.0</ele><time>2026-04-06T08:15:50Z</time></trkpt><trkpt lat="44.32021141106045" lon="10.845822151773701"><ele>767.0</ele><time>2026-04-06T08:15:51Z</time></trkpt><trkpt lat="44.3203193181294" lon="10.845950253123902"><ele>766.0</ele><time>2026-04-06T08:15:52Z</time></trkpt><trkpt lat="44.320432992483944" lon="10.846097961472054"><ele>765.0</ele><time>2026-04-06T08:15:53Z</time></trkpt><trkpt lat="44.32053112310255" lon="10.846238217588834"><ele>764.0</ele><time>2026-04-06T08:15:54Z</time></trkpt><trkpt lat="44.320629058785606" lon="10.8463752189178"><ele>763.0</ele><time>2026-04-06T08:15:55Z</time></trkpt><trkpt lat="44.320723383967184" lon="10.846508191560787"><ele>763.0</ele><time>2026-04-06T08:15:56Z</time></trkpt><trkpt lat="44.320813868757654" lon="10.846614796241441"><ele>763.0</ele><time>2026-04-06T08:15:57Z</time></trkpt><trkpt lat="44.3209024839428" lon="10.846709829022405"><ele>763.0</ele><time>2026-04-06T08:15:58Z</time></trkpt><trkpt lat="44.32099360349326" lon="10.846782373578662"><ele>763.0</ele><time>2026-04-06T08:15:59Z</time></trkpt><trkpt lat="44.32110247399504" lon="10.846854646539882"><ele>759.5999999999999</ele><time>2026-04-06T08:16:00Z</time></trkpt><trkpt lat="44.3211984281831" lon="10.846919616739138"><ele>756.1999999999999</ele><time>2026-04-06T08:16:01Z</time></trkpt><trkpt lat="44.321296933566565" lon="10.846994737267432"><ele>752.8</ele><time>2026-04-06T08:16:02Z</time></trkpt><trkpt lat="44.321399551606255" lon="10.847072766159854"><ele>749.4</ele><time>2026-04-06T08:16:03Z</time></trkpt><trkpt lat="44.32149442665953" lon="10.84713417336677"><ele>746.0</ele><time>2026-04-06T08:16:04Z</time></trkpt><trkpt lat="44.32157666408613" lon="10.847183088986853"><ele>746.0</ele><time>2026-04-06T08:16:04.999Z</time></trkpt><trkpt lat="44.32165287602128" lon="10.847201389256227"><ele>746.0</ele><time>2026-04-06T08:16:05.999Z</time></trkpt><trkpt lat="44.32172328293225" lon="10.847223971806192"><ele>746.0</ele><time>2026-04-06T08:16:06.999Z</time></trkpt><trkpt lat="44.32179566894461" lon="10.847249064157568"><ele>746.0</ele><time>2026-04-06T08:16:07.999Z</time></trkpt><trkpt lat="44.32190143640104" lon="10.847300571750463"><ele>746.0</ele><time>2026-04-06T08:16:09.999Z</time></trkpt><trkpt lat="44.322002513253146" lon="10.847346133611385"><ele>746.0</ele><time>2026-04-06T08:16:12.999Z</time></trkpt><trkpt lat="44.32207271355024" lon="10.847365651206147"><ele>746.0</ele><time>2026-04-06T08:16:13.999Z</time></trkpt><trkpt lat="44.32214367378642" lon="10.847379287285813"><ele>746.0</ele><time>2026-04-06T08:16:14.999Z</time></trkpt><trkpt lat="44.32223141499241" lon="10.847390702848939"><ele>746.0</ele><time>2026-04-06T08:16:15.999Z</time></trkpt><trkpt lat="44.322292893087265" lon="10.847368902718124"><ele>746.0</ele><time>2026-04-06T08:16:17.999Z</time></trkpt><trkpt lat="44.322362158460905" lon="10.84733938780099"><ele>746.0</ele><time>2026-04-06T08:16:50.999Z</time></trkpt><trkpt lat="44.32249373639621" lon="10.847321271891575"><ele>746.0</ele><time>2026-04-06T08:16:52.999Z</time></trkpt><trkpt lat="44.32257811751101" lon="10.847294077998162"><ele>748.75</ele><time>2026-04-06T08:16:53.999Z</time></trkpt><trkpt lat="44.32266955033735" lon="10.847286685750062"><ele>751.5</ele><time>2026-04-06T08:16:54.999Z</time></trkpt><trkpt lat="44.32280022531205" lon="10.847279064637293"><ele>754.25</ele><time>2026-04-06T08:16:55.999Z</time></trkpt><trkpt lat="44.322931402987535" lon="10.847286351710444"><ele>757.0</ele><time>2026-04-06T08:16:56.999Z</time></trkpt><trkpt lat="44.323032572625344" lon="10.847334404309699"><ele>757.4000000000001</ele><time>2026-04-06T08:16:57.999Z</time></trkpt><trkpt lat="44.32312063145084" lon="10.847381077968826"><ele>757.8000000000001</ele><time>2026-04-06T08:16:58.999Z</time></trkpt><trkpt lat="44.323195121037045" lon="10.847405023439213"><ele>758.2</ele><time>2026-04-06T08:16:59.999Z</time></trkpt><trkpt lat="44.32325904940604" lon="10.84745301050045"><ele>758.6</ele><time>2026-04-06T08:17:00.999Z</time></trkpt><trkpt lat="44.323361823474755" lon="10.847519861829058"><ele>759.0</ele><time>2026-04-06T08:17:02.999Z</time></trkpt><trkpt lat="44.32344528065556" lon="10.8476018646817"><ele>760.2</ele><time>2026-04-06T08:17:05Z</time></trkpt><trkpt lat="44.323543203890026" lon="10.847694493436652"><ele>761.4000000000001</ele><time>2026-04-06T08:17:07Z</time></trkpt><trkpt lat="44.32360715125872" lon="10.847783634124195"><ele>762.6</ele><time>2026-04-06T08:17:08Z</time></trkpt><trkpt lat="44.323650047798765" lon="10.847883973060405"><ele>763.8</ele><time>2026-04-06T08:17:09Z</time></trkpt><trkpt lat="44.32366295641823" lon="10.848014999500782"><ele>765.0</ele><time>2026-04-06T08:17:10Z</time></trkpt><trkpt lat="44.32364704832678" lon="10.84813505887006"><ele>765.0</ele><time>2026-04-06T08:17:11Z</time></trkpt><trkpt lat="44.323609170148366" lon="10.848224960975875"><ele>765.0</ele><time>2026-04-06T08:17:12Z</time></trkpt><trkpt lat="44.32350292348267" lon="10.848344050029368"><ele>765.0</ele><time>2026-04-06T08:17:14Z</time></trkpt><trkpt lat="44.32342690783085" lon="10.84838349795924"><ele>765.0</ele><time>2026-04-06T08:17:15Z</time></trkpt><trkpt lat="44.323341061715496" lon="10.848416523886454"><ele>765.0</ele><time>2026-04-06T08:17:16Z</time></trkpt><trkpt lat="44.323266104138455" lon="10.848451799203737"><ele>763.0</ele><time>2026-04-06T08:17:17Z</time></trkpt><trkpt lat="44.32320622330196" lon="10.848491556355397"><ele>761.0</ele><time>2026-04-06T08:17:18Z</time></trkpt><trkpt lat="44.32310426854382" lon="10.848582118308993"><ele>759.0</ele><time>2026-04-06T08:17:20Z</time></trkpt><trkpt lat="44.32301827647522" lon="10.848664170258186"><ele>757.0</ele><time>2026-04-06T08:17:22Z</time></trkpt><trkpt lat="44.32297663276787" lon="10.84874836212944"><ele>755.0</ele><time>2026-04-06T08:18:12.999Z</time></trkpt><trkpt lat="44.32289583631333" lon="10.848842287695065"><ele>755.0</ele><time>2026-04-06T08:18:14.999Z</time></trkpt><trkpt lat="44.322857355187026" lon="10.848929560262777"><ele>755.0</ele><time>2026-04-06T08:18:15.999Z</time></trkpt><trkpt lat="44.322837653298976" lon="10.849028035593852"><ele>755.0</ele><time>2026-04-06T08:18:16.999Z</time></trkpt><trkpt lat="44.32282135600169" lon="10.84911472859868"><ele>755.0</ele><time>2026-04-06T08:18:17.999Z</time></trkpt><trkpt lat="44.32281441014451" lon="10.849217123020974"><ele>755.0</ele><time>2026-04-06T08:18:18.999Z</time></trkpt><trkpt lat="44.32281783697672" lon="10.849340576526751"><ele>755.0</ele><time>2026-04-06T08:18:19.999Z</time></trkpt><trkpt lat="44.32282056461265" lon="10.849439410376696"><ele>755.0</ele><time>2026-04-06T08:18:20.999Z</time></trkpt><trkpt lat="44.32282797561386" lon="10.849588574083764"><ele>754.8333333333333</ele><time>2026-04-06T08:18:22.999Z</time></trkpt><trkpt lat="44.32284509248173" lon="10.84972984970062"><ele>754.6666666666666</ele><time>2026-04-06T08:18:24.999Z</time></trkpt><trkpt lat="44.32286660073284" lon="10.849843573591555"><ele>754.5</ele><time>2026-04-06T08:18:27.999Z</time></trkpt><trkpt lat="44.322871587715554" lon="10.849942127472026"><ele>754.3333333333334</ele><time>2026-04-06T08:18:28.999Z</time></trkpt><trkpt lat="44.32286907963533" lon="10.85005127581121"><ele>754.1666666666667</ele><time>2026-04-06T08:18:29.999Z</time></trkpt><trkpt lat="44.322868765412515" lon="10.850145269063152"><ele>754.0</ele><time>2026-04-06T08:18:30.999Z</time></trkpt><trkpt lat="44.32285087983506" lon="10.850283465916569"><ele>753.3333333333334</ele><time>2026-04-06T08:18:32.999Z</time></trkpt><trkpt lat="44.32299685779435" lon="10.850224138245654"><ele>752.6666666666667</ele><time>2026-04-06T08:18:38.999Z</time></trkpt><trkpt lat="44.323040731840095" lon="10.850152247388834"><ele>752.0</ele><time>2026-04-06T08:18:39.999Z</time></trkpt><trkpt lat="44.32309628171191" lon="10.850077414065554"><ele>751.3333333333334</ele><time>2026-04-06T08:18:40.999Z</time></trkpt><trkpt lat="44.32314279249122" lon="10.849998105317583"><ele>750.6666666666666</ele><time>2026-04-06T08:18:41.999Z</time></trkpt><trkpt lat="44.32317042659474" lon="10.849916539126173"><ele>750.0</ele><time>2026-04-06T08:18:42.999Z</time></trkpt><trkpt lat="44.323211568901485" lon="10.849828631659628"><ele>750.0</ele><time>2026-04-06T08:18:43.999Z</time></trkpt><trkpt lat="44.32325329014583" lon="10.849758847879633"><ele>750.0</ele><time>2026-04-06T08:18:44.999Z</time></trkpt><trkpt lat="44.32329551279387" lon="10.849651697994942"><ele>750.0</ele><time>2026-04-06T08:18:45.999Z</time></trkpt><trkpt lat="44.32334656041807" lon="10.849570662857865"><ele>750.0</ele><time>2026-04-06T08:18:46.999Z</time></trkpt><trkpt lat="44.32340059689649" lon="10.849452970351294"><ele>750.0</ele><time>2026-04-06T08:18:47.999Z</time></trkpt><trkpt lat="44.32345241558022" lon="10.849369173446718"><ele>750.0</ele><time>2026-04-06T08:18:48.999Z</time></trkpt><trkpt lat="44.32350954976004" lon="10.849279040762058"><ele>751.0</ele><time>2026-04-06T08:18:49.999Z</time></trkpt><trkpt lat="44.32356922428863" lon="10.849233182330597"><ele>752.0</ele><time>2026-04-06T08:18:50.999Z</time></trkpt><trkpt lat="44.323641694533855" lon="10.8492216152548"><ele>753.0</ele><time>2026-04-06T08:18:51.999Z</time></trkpt><trkpt lat="44.32372271825053" lon="10.849243008355383"><ele>754.0</ele><time>2026-04-06T08:18:52.999Z</time></trkpt><trkpt lat="44.32387955474877" lon="10.849257422814722"><ele>755.0</ele><time>2026-04-06T08:18:54.999Z</time></trkpt><trkpt lat="44.32401039401223" lon="10.849243293761232"><ele>752.1666666666666</ele><time>2026-04-06T08:18:56.999Z</time></trkpt><trkpt lat="44.32407353941322" lon="10.8492187144625"><ele>749.3333333333333</ele><time>2026-04-06T08:18:57.999Z</time></trkpt><trkpt lat="44.32415902232826" lon="10.84918858397194"><ele>746.5</ele><time>2026-04-06T08:18:59.999Z</time></trkpt><trkpt lat="44.3242317469833" lon="10.849158114708349"><ele>743.6666666666666</ele><time>2026-04-06T08:19:33Z</time></trkpt><trkpt lat="44.324327570022696" lon="10.84914929736806"><ele>740.8333333333334</ele><time>2026-04-06T08:19:35Z</time></trkpt><trkpt lat="44.32441427199313" lon="10.849098660931508"><ele>738.0</ele><time>2026-04-06T08:19:37Z</time></trkpt><trkpt lat="44.32448992438041" lon="10.849061679072621"><ele>738.0</ele><time>2026-04-06T08:19:41Z</time></trkpt><trkpt lat="44.32455118033237" lon="10.849031734913863"><ele>738.0</ele><time>2026-04-06T08:19:43Z</time></trkpt><trkpt lat="44.32461920966749" lon="10.849237997814539"><ele>738.0</ele><time>2026-04-06T08:19:44Z</time></trkpt><trkpt lat="44.32468419591071" lon="10.849276913350687"><ele>738.0</ele><time>2026-04-06T08:19:45Z</time></trkpt><trkpt lat="44.32473902378009" lon="10.849354915619987"><ele>738.0</ele><time>2026-04-06T08:19:46Z</time></trkpt><trkpt lat="44.324774779110946" lon="10.849429821460443"><ele>738.0</ele><time>2026-04-06T08:19:47Z</time></trkpt><trkpt lat="44.32481015357575" lon="10.849557297562997"><ele>738.0</ele><time>2026-04-06T08:19:48Z</time></trkpt><trkpt lat="44.32486290488162" lon="10.849625967164"><ele>738.0</ele><time>2026-04-06T08:19:49Z</time></trkpt><trkpt lat="44.32494883971712" lon="10.849659015601029"><ele>738.0</ele><time>2026-04-06T08:19:50Z</time></trkpt><trkpt lat="44.32505707912581" lon="10.849704193529734"><ele>738.0</ele><time>2026-04-06T08:19:51Z</time></trkpt><trkpt lat="44.32517106257278" lon="10.849753127303698"><ele>738.0</ele><time>2026-04-06T08:19:52Z</time></trkpt><trkpt lat="44.32528136346316" lon="10.849808868049529"><ele>738.0</ele><time>2026-04-06T08:19:53Z</time></trkpt><trkpt lat="44.3253880381889" lon="10.849866366552515"><ele>738.0</ele><time>2026-04-06T08:19:54Z</time></trkpt><trkpt lat="44.32549364828428" lon="10.849894279360202"><ele>738.0</ele><time>2026-04-06T08:19:55Z</time></trkpt><trkpt lat="44.32558049861334" lon="10.84993999541176"><ele>738.0</ele><time>2026-04-06T08:19:56Z</time></trkpt><trkpt lat="44.32571585419964" lon="10.849972593807975"><ele>739.2</ele><time>2026-04-06T08:19:57Z</time></trkpt><trkpt lat="44.325829428681274" lon="10.850030996831398"><ele>740.4</ele><time>2026-04-06T08:19:58Z</time></trkpt><trkpt lat="44.32592961232334" lon="10.850078954108849"><ele>741.6</ele><time>2026-04-06T08:19:59Z</time></trkpt><trkpt lat="44.32600350964894" lon="10.850122020604534"><ele>742.8000000000001</ele><time>2026-04-06T08:20:00Z</time></trkpt><trkpt lat="44.32609526374384" lon="10.850144035596411"><ele>744.0</ele><time>2026-04-06T08:20:01Z</time></trkpt><trkpt lat="44.32619726650802" lon="10.850159970157927"><ele>744.0</ele><time>2026-04-06T08:20:02Z</time></trkpt><trkpt lat="44.32631188577367" lon="10.850156423724796"><ele>744.0</ele><time>2026-04-06T08:20:03Z</time></trkpt><trkpt lat="44.326416491699526" lon="10.850220556438435"><ele>744.0</ele><time>2026-04-06T08:20:04Z</time></trkpt><trkpt lat="44.326525852408935" lon="10.850272719998074"><ele>744.0</ele><time>2026-04-06T08:20:05Z</time></trkpt><trkpt lat="44.32662508086797" lon="10.850364066279738"><ele>748.25</ele><time>2026-04-06T08:20:06Z</time></trkpt><trkpt lat="44.32670731108949" lon="10.850463025365695"><ele>752.5</ele><time>2026-04-06T08:20:07Z</time></trkpt><trkpt lat="44.32678375732256" lon="10.850567681874654"><ele>756.75</ele><time>2026-04-06T08:20:08Z</time></trkpt><trkpt lat="44.32686342284394" lon="10.850690326931094"><ele>761.0</ele><time>2026-04-06T08:20:09Z</time></trkpt><trkpt lat="44.326959750033076" lon="10.8508410097651"><ele>760.6666666666666</ele><time>2026-04-06T08:20:10Z</time></trkpt><trkpt lat="44.32706702549194" lon="10.85099096624183"><ele>760.3333333333334</ele><time>2026-04-06T08:20:11Z</time></trkpt><trkpt lat="44.32718550714441" lon="10.851132619710635"><ele>760.0</ele><time>2026-04-06T08:20:12Z</time></trkpt><trkpt lat="44.32729695136736" lon="10.851261996494292"><ele>759.5</ele><time>2026-04-06T08:20:12.999Z</time></trkpt><trkpt lat="44.327395526174776" lon="10.851384968298671"><ele>759.0</ele><time>2026-04-06T08:20:13.999Z</time></trkpt><trkpt lat="44.327481641576874" lon="10.851496803917856"><ele>758.5</ele><time>2026-04-06T08:20:14.999Z</time></trkpt><trkpt lat="44.327564486702684" lon="10.85160527594043"><ele>758.0</ele><time>2026-04-06T08:20:15.999Z</time></trkpt><trkpt lat="44.327647345809" lon="10.851720229154472"><ele>757.8</ele><time>2026-04-06T08:20:16.999Z</time></trkpt><trkpt lat="44.32772173408487" lon="10.851826548312651"><ele>757.5999999999999</ele><time>2026-04-06T08:20:17.999Z</time></trkpt><trkpt lat="44.32778532368227" lon="10.85191501156801"><ele>757.4000000000001</ele><time>2026-04-06T08:20:18.999Z</time></trkpt><trkpt lat="44.32785963955058" lon="10.852013601602257"><ele>757.2</ele><time>2026-04-06T08:20:19.999Z</time></trkpt><trkpt lat="44.32794005195588" lon="10.85210363111362"><ele>757.0</ele><time>2026-04-06T08:20:20.999Z</time></trkpt><trkpt lat="44.328036043499324" lon="10.85221340727301"><ele>757.8</ele><time>2026-04-06T08:20:21.999Z</time></trkpt><trkpt lat="44.32812117711554" lon="10.852313747009086"><ele>758.6</ele><time>2026-04-06T08:20:22.999Z</time></trkpt><trkpt lat="44.32817950925852" lon="10.852376013214672"><ele>759.4</ele><time>2026-04-06T08:20:23.999Z</time></trkpt><trkpt lat="44.3282641770536" lon="10.85247274244857"><ele>760.1999999999999</ele><time>2026-04-06T08:20:24.999Z</time></trkpt><trkpt lat="44.32832128570311" lon="10.852580737188722"><ele>761.0</ele><time>2026-04-06T08:20:25.999Z</time></trkpt><trkpt lat="44.32836099537532" lon="10.85268294347118"><ele>761.5999999999999</ele><time>2026-04-06T08:20:26.999Z</time></trkpt><trkpt lat="44.32837244999442" lon="10.852783732774622"><ele>762.2</ele><time>2026-04-06T08:20:27.999Z</time></trkpt><trkpt lat="44.32833392344606" lon="10.852940889461046"><ele>762.8</ele><time>2026-04-06T08:20:29.999Z</time></trkpt><trkpt lat="44.328318984446696" lon="10.853052008934585"><ele>763.4000000000001</ele><time>2026-04-06T08:20:30.999Z</time></trkpt><trkpt lat="44.32828786839864" lon="10.853165944983166"><ele>764.0</ele><time>2026-04-06T08:20:31.999Z</time></trkpt><trkpt lat="44.3282763834813" lon="10.853290415953367"><ele>764.0</ele><time>2026-04-06T08:20:32.999Z</time></trkpt><trkpt lat="44.32824886742443" lon="10.853387492439909"><ele>764.0</ele><time>2026-04-06T08:20:33.999Z</time></trkpt><trkpt lat="44.328226027777404" lon="10.853501661914835"><ele>764.0</ele><time>2026-04-06T08:20:34.999Z</time></trkpt><trkpt lat="44.32821572200913" lon="10.853608348891312"><ele>764.0</ele><time>2026-04-06T08:20:35.999Z</time></trkpt><trkpt lat="44.32818448519184" lon="10.853696260661987"><ele>764.0</ele><time>2026-04-06T08:20:36.999Z</time></trkpt><trkpt lat="44.32816299065536" lon="10.853799861946161"><ele>764.0</ele><time>2026-04-06T08:20:37.999Z</time></trkpt><trkpt lat="44.328152028799295" lon="10.85391831436564"><ele>764.4000000000001</ele><time>2026-04-06T08:20:38.999Z</time></trkpt><trkpt lat="44.32815276997551" lon="10.85404385996082"><ele>764.8</ele><time>2026-04-06T08:20:39.999Z</time></trkpt><trkpt lat="44.32816331095406" lon="10.854146494561165"><ele>765.2</ele><time>2026-04-06T08:20:40.999Z</time></trkpt><trkpt lat="44.32819437308284" lon="10.854292864409533"><ele>765.5999999999999</ele><time>2026-04-06T08:20:41.999Z</time></trkpt><trkpt lat="44.328211125790354" lon="10.854391247192428"><ele>766.0</ele><time>2026-04-06T08:20:42.999Z</time></trkpt><trkpt lat="44.32825354931265" lon="10.85457845208186"><ele>766.0</ele><time>2026-04-06T08:20:44.999Z</time></trkpt><trkpt lat="44.32829400503581" lon="10.854678494913703"><ele>766.0</ele><time>2026-04-06T08:20:45.999Z</time></trkpt><trkpt lat="44.32833780259789" lon="10.854749488268599"><ele>766.0</ele><time>2026-04-06T08:20:46.999Z</time></trkpt><trkpt lat="44.32841456300916" lon="10.85485088444296"><ele>766.0</ele><time>2026-04-06T08:20:47.999Z</time></trkpt><trkpt lat="44.32846031789896" lon="10.854932819999386"><ele>766.0</ele><time>2026-04-06T08:20:48.999Z</time></trkpt><trkpt lat="44.32851389956292" lon="10.855046818683958"><ele>766.0</ele><time>2026-04-06T08:20:49.999Z</time></trkpt><trkpt lat="44.32856176186161" lon="10.855169233335799"><ele>763.8333333333334</ele><time>2026-04-06T08:20:50.999Z</time></trkpt><trkpt lat="44.32860668169824" lon="10.855275234326754"><ele>761.6666666666667</ele><time>2026-04-06T08:20:51.999Z</time></trkpt><trkpt lat="44.32865130688447" lon="10.855361898439266"><ele>759.5</ele><time>2026-04-06T08:20:52.999Z</time></trkpt><trkpt lat="44.328707739768355" lon="10.855460121135362"><ele>757.3333333333334</ele><time>2026-04-06T08:20:53.999Z</time></trkpt><trkpt lat="44.32876827675854" lon="10.85555149221843"><ele>755.1666666666666</ele><time>2026-04-06T08:20:54.999Z</time></trkpt><trkpt lat="44.32882974525506" lon="10.855624194303637"><ele>753.0</ele><time>2026-04-06T08:20:55.999Z</time></trkpt><trkpt lat="44.328883200531585" lon="10.855702709408309"><ele>755.0</ele><time>2026-04-06T08:20:56.999Z</time></trkpt><trkpt lat="44.32896428464069" lon="10.855762864981813"><ele>757.0</ele><time>2026-04-06T08:20:57.999Z</time></trkpt><trkpt lat="44.32902342347851" lon="10.855800070322275"><ele>759.0</ele><time>2026-04-06T08:20:58.999Z</time></trkpt><trkpt lat="44.329142837616835" lon="10.855832240836824"><ele>761.0</ele><time>2026-04-06T08:20:59.999Z</time></trkpt><trkpt lat="44.32923714314673" lon="10.85589122238372"><ele>763.0</ele><time>2026-04-06T08:21:00.999Z</time></trkpt><trkpt lat="44.3293159648429" lon="10.855839050996394"><ele>763.0</ele><time>2026-04-06T08:21:01.999Z</time></trkpt><trkpt lat="44.32941575230376" lon="10.855798884594401"><ele>763.0</ele><time>2026-04-06T08:21:02.999Z</time></trkpt><trkpt lat="44.329516874185856" lon="10.855809364919931"><ele>763.0</ele><time>2026-04-06T08:21:03.999Z</time></trkpt><trkpt lat="44.329614569738794" lon="10.855819924819187"><ele>763.0</ele><time>2026-04-06T08:21:04.999Z</time></trkpt><trkpt lat="44.3297157314822" lon="10.855847646309627"><ele>763.0</ele><time>2026-04-06T08:21:05.999Z</time></trkpt><trkpt lat="44.32981913901929" lon="10.855883894968303"><ele>762.0</ele><time>2026-04-06T08:21:06.999Z</time></trkpt><trkpt lat="44.329926706916375" lon="10.85591461153945"><ele>761.0</ele><time>2026-04-06T08:21:07.999Z</time></trkpt><trkpt lat="44.330025238014045" lon="10.855966347597457"><ele>760.0</ele><time>2026-04-06T08:21:08.999Z</time></trkpt><trkpt lat="44.33010510897566" lon="10.856007576080057"><ele>759.0</ele><time>2026-04-06T08:21:09.999Z</time></trkpt><trkpt lat="44.330186178666594" lon="10.856040889038733"><ele>758.0</ele><time>2026-04-06T08:21:10.999Z</time></trkpt><trkpt lat="44.33027360982063" lon="10.856069676596402"><ele>758.0</ele><time>2026-04-06T08:21:11.999Z</time></trkpt><trkpt lat="44.33036330054599" lon="10.856084899637247"><ele>758.0</ele><time>2026-04-06T08:21:12.999Z</time></trkpt><trkpt lat="44.330472556438785" lon="10.856119635209216"><ele>758.0</ele><time>2026-04-06T08:21:13.999Z</time></trkpt><trkpt lat="44.330621104081075" lon="10.856178724602934"><ele>758.0</ele><time>2026-04-06T08:21:14.999Z</time></trkpt><trkpt lat="44.330784541208615" lon="10.85623578877728"><ele>762.0</ele><time>2026-04-06T08:21:16Z</time></trkpt><trkpt lat="44.330958600980026" lon="10.856257863532896"><ele>766.0</ele><time>2026-04-06T08:21:17Z</time></trkpt><trkpt lat="44.33111108273727" lon="10.856308497088484"><ele>770.0</ele><time>2026-04-06T08:21:18Z</time></trkpt><trkpt lat="44.33123086799948" lon="10.856307773300532"><ele>770.0000000000001</ele><time>2026-04-06T08:21:19Z</time></trkpt><trkpt lat="44.331325639247886" lon="10.856322265586487"><ele>770.0</ele><time>2026-04-06T08:21:20Z</time></trkpt><trkpt lat="44.33140426204061" lon="10.856313597577884"><ele>770.0</ele><time>2026-04-06T08:21:21Z</time></trkpt><trkpt lat="44.331470469254235" lon="10.856338121503974"><ele>770.0</ele><time>2026-04-06T08:21:22Z</time></trkpt><trkpt lat="44.3315363804347" lon="10.856353168878835"><ele>770.0000000000001</ele><time>2026-04-06T08:21:23Z</time></trkpt><trkpt lat="44.331602917446304" lon="10.856382150707502"><ele>770.0</ele><time>2026-04-06T08:21:24Z</time></trkpt><trkpt lat="44.33166785070213" lon="10.8564274240624"><ele>771.3333333333334</ele><time>2026-04-06T08:21:25Z</time></trkpt><trkpt lat="44.33173077086816" lon="10.856488275860567"><ele>772.6666666666667</ele><time>2026-04-06T08:21:26Z</time></trkpt><trkpt lat="44.331805723021446" lon="10.856534299851088"><ele>774.0</ele><time>2026-04-06T08:21:27Z</time></trkpt><trkpt lat="44.33186042977743" lon="10.856634429123902"><ele>775.3333333333333</ele><time>2026-04-06T08:21:28Z</time></trkpt><trkpt lat="44.33190283977842" lon="10.856707823641482"><ele>776.6666666666666</ele><time>2026-04-06T08:21:29Z</time></trkpt><trkpt lat="44.33193118999271" lon="10.856799826083835"><ele>778.0</ele><time>2026-04-06T08:21:30Z</time></trkpt><trkpt lat="44.33191284189612" lon="10.856930435761775"><ele>779.5999999999999</ele><time>2026-04-06T08:21:31Z</time></trkpt><trkpt lat="44.331923951985786" lon="10.857062485029529"><ele>781.1999999999999</ele><time>2026-04-06T08:21:32Z</time></trkpt><trkpt lat="44.33193330490907" lon="10.857213539784428"><ele>782.8</ele><time>2026-04-06T08:21:33Z</time></trkpt><trkpt lat="44.33195666257149" lon="10.857377968168532"><ele>784.4</ele><time>2026-04-06T08:21:34Z</time></trkpt><trkpt lat="44.33200833859844" lon="10.857528646697892"><ele>786.0</ele><time>2026-04-06T08:21:35Z</time></trkpt><trkpt lat="44.33209332602038" lon="10.857690739684482"><ele>788.0</ele><time>2026-04-06T08:21:36Z</time></trkpt><trkpt lat="44.332205449924366" lon="10.857867378162256"><ele>790.0</ele><time>2026-04-06T08:21:37Z</time></trkpt><trkpt lat="44.332313593560784" lon="10.858032812815472"><ele>792.0</ele><time>2026-04-06T08:21:38Z</time></trkpt><trkpt lat="44.33241131383757" lon="10.85817974277395"><ele>788.5</ele><time>2026-04-06T08:21:39Z</time></trkpt><trkpt lat="44.33249982975451" lon="10.858321404886679"><ele>785.0</ele><time>2026-04-06T08:21:40Z</time></trkpt><trkpt lat="44.33259686134134" lon="10.858446530808259"><ele>781.5</ele><time>2026-04-06T08:21:41Z</time></trkpt><trkpt lat="44.33270729971224" lon="10.858566184194636"><ele>778.0</ele><time>2026-04-06T08:21:42Z</time></trkpt><trkpt lat="44.33282073741071" lon="10.858684628115366"><ele>778.0</ele><time>2026-04-06T08:21:43Z</time></trkpt><trkpt lat="44.33293356259685" lon="10.858804298792355"><ele>778.0</ele><time>2026-04-06T08:21:44Z</time></trkpt><trkpt lat="44.33304923838435" lon="10.858931272582948"><ele>778.0</ele><time>2026-04-06T08:21:45Z</time></trkpt><trkpt lat="44.33317407912288" lon="10.859069697768641"><ele>778.0</ele><time>2026-04-06T08:21:46Z</time></trkpt><trkpt lat="44.333305252100836" lon="10.859243822786116"><ele>773.6666666666666</ele><time>2026-04-06T08:21:47Z</time></trkpt><trkpt lat="44.33343290202002" lon="10.859389588166344"><ele>769.3333333333333</ele><time>2026-04-06T08:21:48Z</time></trkpt><trkpt lat="44.33357375151235" lon="10.85952429507475"><ele>765.0</ele><time>2026-04-06T08:21:49Z</time></trkpt><trkpt lat="44.33369734802301" lon="10.859679447299802"><ele>765.0</ele><time>2026-04-06T08:21:50Z</time></trkpt><trkpt lat="44.33381262639171" lon="10.859809937004695"><ele>765.0</ele><time>2026-04-06T08:21:51Z</time></trkpt><trkpt lat="44.33392335634553" lon="10.859930454509817"><ele>765.0</ele><time>2026-04-06T08:21:52Z</time></trkpt><trkpt lat="44.33402930800488" lon="10.86004837305424"><ele>765.0</ele><time>2026-04-06T08:21:53Z</time></trkpt><trkpt lat="44.33412891122826" lon="10.860142950248319"><ele>765.75</ele><time>2026-04-06T08:21:54Z</time></trkpt><trkpt lat="44.33425891445538" lon="10.860187931794007"><ele>766.5</ele><time>2026-04-06T08:21:55Z</time></trkpt><trkpt lat="44.33441040278351" lon="10.86018969620956"><ele>767.25</ele><time>2026-04-06T08:21:56Z</time></trkpt><trkpt lat="44.33456798134042" lon="10.860129983499181"><ele>768.0</ele><time>2026-04-06T08:21:57Z</time></trkpt><trkpt lat="44.33473065877874" lon="10.860105817079978"><ele>768.0</ele><time>2026-04-06T08:21:58Z</time></trkpt><trkpt lat="44.3349199555386" lon="10.860057321588835"><ele>768.0</ele><time>2026-04-06T08:21:59Z</time></trkpt><trkpt lat="44.33506304873553" lon="10.860022692507556"><ele>768.0</ele><time>2026-04-06T08:22:00Z</time></trkpt><trkpt lat="44.33520654977035" lon="10.859988547360375"><ele>768.0</ele><time>2026-04-06T08:22:01Z</time></trkpt><trkpt lat="44.335330706651064" lon="10.859966640779609"><ele>768.0</ele><time>2026-04-06T08:22:02Z</time></trkpt><trkpt lat="44.3354483362196" lon="10.85996089380175"><ele>768.0</ele><time>2026-04-06T08:22:03Z</time></trkpt><trkpt lat="44.335553737978465" lon="10.860005952441197"><ele>768.0</ele><time>2026-04-06T08:22:04Z</time></trkpt><trkpt lat="44.33565929437342" lon="10.860090019212546"><ele>768.25</ele><time>2026-04-06T08:22:05Z</time></trkpt><trkpt lat="44.3358015415951" lon="10.86017845866822"><ele>768.5</ele><time>2026-04-06T08:22:06Z</time></trkpt><trkpt lat="44.33592874465985" lon="10.860283553048328"><ele>768.75</ele><time>2026-04-06T08:22:07Z</time></trkpt><trkpt lat="44.336050984937216" lon="10.860363574199834"><ele>769.0</ele><time>2026-04-06T08:22:08Z</time></trkpt><trkpt lat="44.33617637453359" lon="10.860426615315228"><ele>769.0</ele><time>2026-04-06T08:22:09Z</time></trkpt><trkpt lat="44.33629979032167" lon="10.860470870464976"><ele>769.0</ele><time>2026-04-06T08:22:10Z</time></trkpt><trkpt lat="44.336433765412565" lon="10.860488409090818"><ele>769.0</ele><time>2026-04-06T08:22:11Z</time></trkpt><trkpt lat="44.336578068133456" lon="10.86052207476387"><ele>769.0</ele><time>2026-04-06T08:22:12Z</time></trkpt><trkpt lat="44.33672882843331" lon="10.860539298185643"><ele>768.75</ele><time>2026-04-06T08:22:13Z</time></trkpt><trkpt lat="44.336873303120285" lon="10.860560169109077"><ele>768.5</ele><time>2026-04-06T08:22:14Z</time></trkpt><trkpt lat="44.33700757305596" lon="10.860580371266012"><ele>768.25</ele><time>2026-04-06T08:22:15Z</time></trkpt><trkpt lat="44.33712100182161" lon="10.860597876122833"><ele>768.0</ele><time>2026-04-06T08:22:16Z</time></trkpt><trkpt lat="44.33722581778622" lon="10.860614051824495"><ele>768.5999999999999</ele><time>2026-04-06T08:22:17Z</time></trkpt><trkpt lat="44.33732754654419" lon="10.860629088046325"><ele>769.1999999999999</ele><time>2026-04-06T08:22:17.999Z</time></trkpt><trkpt lat="44.337416671961165" lon="10.860641964529979"><ele>769.8</ele><time>2026-04-06T08:22:18.999Z</time></trkpt><trkpt lat="44.337482447001335" lon="10.860631850265785"><ele>770.4</ele><time>2026-04-06T08:22:19.999Z</time></trkpt><trkpt lat="44.337554284209425" lon="10.860642883735933"><ele>771.0</ele><time>2026-04-06T08:22:20.999Z</time></trkpt><trkpt lat="44.33768557527495" lon="10.860661603635416"><ele>771.0</ele><time>2026-04-06T08:22:22.999Z</time></trkpt><trkpt lat="44.33775580144887" lon="10.860677018939297"><ele>771.0</ele><time>2026-04-06T08:22:23.999Z</time></trkpt><trkpt lat="44.337838043068686" lon="10.86068471574608"><ele>771.0</ele><time>2026-04-06T08:22:25.999Z</time></trkpt><trkpt lat="44.33791461649987" lon="10.860705814776765"><ele>771.0</ele><time>2026-04-06T08:22:29.999Z</time></trkpt><trkpt lat="44.33791024434511" lon="10.86091947959847"><ele>771.0</ele><time>2026-04-06T08:22:32.999Z</time></trkpt><trkpt lat="44.337880038766905" lon="10.861078217742511"><ele>773.0</ele><time>2026-04-06T08:22:33.999Z</time></trkpt><trkpt lat="44.337865313695225" lon="10.861270748917173"><ele>775.0</ele><time>2026-04-06T08:22:34.999Z</time></trkpt><trkpt lat="44.33789696290812" lon="10.86147152270746"><ele>777.0</ele><time>2026-04-06T08:22:35.999Z</time></trkpt><trkpt lat="44.337978179284946" lon="10.861677939891159"><ele>776.5</ele><time>2026-04-06T08:22:36.999Z</time></trkpt><trkpt lat="44.33805445053721" lon="10.86184878863791"><ele>776.0</ele><time>2026-04-06T08:22:37.999Z</time></trkpt><trkpt lat="44.338120500879" lon="10.862006006336546"><ele>775.5</ele><time>2026-04-06T08:22:38.999Z</time></trkpt><trkpt lat="44.3381766964093" lon="10.86216011453633"><ele>775.0</ele><time>2026-04-06T08:22:39.999Z</time></trkpt><trkpt lat="44.33823466086983" lon="10.862319668236653"><ele>775.0</ele><time>2026-04-06T08:22:40.999Z</time></trkpt><trkpt lat="44.338285988747764" lon="10.862460466249855"><ele>775.0</ele><time>2026-04-06T08:22:41.999Z</time></trkpt><trkpt lat="44.33833213301987" lon="10.862590457838273"><ele>775.0</ele><time>2026-04-06T08:22:42.999Z</time></trkpt><trkpt lat="44.33837822839174" lon="10.862718440715971"><ele>775.0</ele><time>2026-04-06T08:22:43.999Z</time></trkpt><trkpt lat="44.33842292032478" lon="10.862848042637463"><ele>775.0</ele><time>2026-04-06T08:22:44.999Z</time></trkpt><trkpt lat="44.33846277336091" lon="10.862972699203445"><ele>775.2</ele><time>2026-04-06T08:22:45.999Z</time></trkpt><trkpt lat="44.338495593192974" lon="10.863102146146"><ele>775.4</ele><time>2026-04-06T08:22:46.999Z</time></trkpt><trkpt lat="44.3385138430002" lon="10.863239034684097"><ele>775.5999999999999</ele><time>2026-04-06T08:22:47.999Z</time></trkpt><trkpt lat="44.33853093237854" lon="10.863390484170244"><ele>775.8</ele><time>2026-04-06T08:22:48.999Z</time></trkpt><trkpt lat="44.33854759594016" lon="10.863528032761895"><ele>776.0</ele><time>2026-04-06T08:22:49.999Z</time></trkpt><trkpt lat="44.33856114914864" lon="10.863661834628333"><ele>776.0</ele><time>2026-04-06T08:22:50.999Z</time></trkpt><trkpt lat="44.33857295700017" lon="10.863811061473081"><ele>776.0</ele><time>2026-04-06T08:22:51.999Z</time></trkpt><trkpt lat="44.33858608532314" lon="10.863947348679135"><ele>776.0</ele><time>2026-04-06T08:22:52.999Z</time></trkpt><trkpt lat="44.33860546847031" lon="10.864086993527614"><ele>776.0</ele><time>2026-04-06T08:22:53.999Z</time></trkpt><trkpt lat="44.33862266623171" lon="10.864219921802595"><ele>776.0</ele><time>2026-04-06T08:22:54.999Z</time></trkpt><trkpt lat="44.33863087823621" lon="10.864362097518383"><ele>774.4</ele><time>2026-04-06T08:22:55.999Z</time></trkpt><trkpt lat="44.33862531651616" lon="10.864502558157618"><ele>772.8</ele><time>2026-04-06T08:22:56.999Z</time></trkpt><trkpt lat="44.338608476112825" lon="10.86464256913358"><ele>771.1999999999999</ele><time>2026-04-06T08:22:57.999Z</time></trkpt><trkpt lat="44.338580394067925" lon="10.864794436026358"><ele>769.5999999999999</ele><time>2026-04-06T08:22:58.999Z</time></trkpt><trkpt lat="44.33854367421701" lon="10.864954632196063"><ele>768.0</ele><time>2026-04-06T08:22:59.999Z</time></trkpt><trkpt lat="44.33850639527532" lon="10.865124286412735"><ele>766.25</ele><time>2026-04-06T08:23:00.999Z</time></trkpt><trkpt lat="44.338466636769056" lon="10.865305241395918"><ele>764.5</ele><time>2026-04-06T08:23:01.999Z</time></trkpt><trkpt lat="44.33842317342186" lon="10.865482066065931"><ele>762.75</ele><time>2026-04-06T08:23:02.999Z</time></trkpt><trkpt lat="44.33837911768583" lon="10.865658433846905"><ele>761.0</ele><time>2026-04-06T08:23:03.999Z</time></trkpt><trkpt lat="44.33833605541355" lon="10.865834382675327"><ele>760.25</ele><time>2026-04-06T08:23:04.999Z</time></trkpt><trkpt lat="44.33829984990888" lon="10.865998870464185"><ele>759.5</ele><time>2026-04-06T08:23:05.999Z</time></trkpt><trkpt lat="44.33826149654411" lon="10.866164080821607"><ele>758.75</ele><time>2026-04-06T08:23:06.999Z</time></trkpt><trkpt lat="44.33822189098494" lon="10.866317898870891"><ele>758.0</ele><time>2026-04-06T08:23:07.999Z</time></trkpt><trkpt lat="44.338184924403" lon="10.86647410091063"><ele>758.0</ele><time>2026-04-06T08:23:08.999Z</time></trkpt><trkpt lat="44.33815352152616" lon="10.86662637720953"><ele>758.0</ele><time>2026-04-06T08:23:09.999Z</time></trkpt><trkpt lat="44.33812939751525" lon="10.866789511642178"><ele>758.0</ele><time>2026-04-06T08:23:10.999Z</time></trkpt><trkpt lat="44.338118573628336" lon="10.866955874697243"><ele>758.0</ele><time>2026-04-06T08:23:11.999Z</time></trkpt><trkpt lat="44.33811834625813" lon="10.867123852700622"><ele>757.5999999999999</ele><time>2026-04-06T08:23:12.999Z</time></trkpt><trkpt lat="44.33812664072411" lon="10.867291990858032"><ele>757.1999999999999</ele><time>2026-04-06T08:23:13.999Z</time></trkpt><trkpt lat="44.33813778225502" lon="10.867446539095896"><ele>756.8</ele><time>2026-04-06T08:23:14.999Z</time></trkpt><trkpt lat="44.33817273086114" lon="10.867595665517747"><ele>756.4</ele><time>2026-04-06T08:23:15.999Z</time></trkpt><trkpt lat="44.338234511370935" lon="10.867715345474386"><ele>756.0</ele><time>2026-04-06T08:23:16.999Z</time></trkpt><trkpt lat="44.338316868644654" lon="10.867826537632752"><ele>755.75</ele><time>2026-04-06T08:23:17.999Z</time></trkpt><trkpt lat="44.338393736255526" lon="10.867917281424678"><ele>755.5</ele><time>2026-04-06T08:23:18.999Z</time></trkpt><trkpt lat="44.33848944353654" lon="10.868005268242696"><ele>755.25</ele><time>2026-04-06T08:23:19.999Z</time></trkpt><trkpt lat="44.338597089211966" lon="10.868057296346946"><ele>755.0</ele><time>2026-04-06T08:23:20.999Z</time></trkpt><trkpt lat="44.33872317673355" lon="10.868091069144054"><ele>755.0</ele><time>2026-04-06T08:23:22Z</time></trkpt><trkpt lat="44.33884239911758" lon="10.868102928638239"><ele>755.0</ele><time>2026-04-06T08:23:23Z</time></trkpt><trkpt lat="44.338954938715474" lon="10.868121007818417"><ele>755.0</ele><time>2026-04-06T08:23:24Z</time></trkpt><trkpt lat="44.339056360079184" lon="10.8681642066171"><ele>755.0</ele><time>2026-04-06T08:23:25Z</time></trkpt><trkpt lat="44.33914292899182" lon="10.868225282691547"><ele>755.0</ele><time>2026-04-06T08:23:26Z</time></trkpt><trkpt lat="44.339221785362334" lon="10.868310396315692"><ele>753.2</ele><time>2026-04-06T08:23:27Z</time></trkpt><trkpt lat="44.33928526076879" lon="10.868410925716919"><ele>751.4</ele><time>2026-04-06T08:23:28Z</time></trkpt><trkpt lat="44.33932908006129" lon="10.86852550549234"><ele>749.5999999999999</ele><time>2026-04-06T08:23:29Z</time></trkpt><trkpt lat="44.33934061358651" lon="10.868653494169967"><ele>747.8</ele><time>2026-04-06T08:23:30Z</time></trkpt><trkpt lat="44.339313966929346" lon="10.868775925606883"><ele>746.0</ele><time>2026-04-06T08:23:31Z</time></trkpt><trkpt lat="44.3392602231268" lon="10.868882092529976"><ele>744.75</ele><time>2026-04-06T08:23:32Z</time></trkpt><trkpt lat="44.339174947034586" lon="10.868978950724788"><ele>743.5</ele><time>2026-04-06T08:23:33Z</time></trkpt><trkpt lat="44.33908476235219" lon="10.869101236150508"><ele>742.25</ele><time>2026-04-06T08:23:34Z</time></trkpt><trkpt lat="44.338994942790585" lon="10.869250463585008"><ele>741.0</ele><time>2026-04-06T08:23:35Z</time></trkpt><trkpt lat="44.338900927822905" lon="10.869428053030664"><ele>738.6666666666666</ele><time>2026-04-06T08:23:36Z</time></trkpt><trkpt lat="44.33879611778281" lon="10.869639875507097"><ele>736.3333333333333</ele><time>2026-04-06T08:23:37Z</time></trkpt><trkpt lat="44.3387079533053" lon="10.86983931506468"><ele>734.0</ele><time>2026-04-06T08:23:38Z</time></trkpt><trkpt lat="44.33861959536364" lon="10.870073473214097"><ele>731.3333333333333</ele><time>2026-04-06T08:23:39Z</time></trkpt><trkpt lat="44.33854056147422" lon="10.870328392411727"><ele>728.6666666666666</ele><time>2026-04-06T08:23:40Z</time></trkpt><trkpt lat="44.33847978259866" lon="10.870556387226054"><ele>726.0</ele><time>2026-04-06T08:23:41Z</time></trkpt><trkpt lat="44.33843257268036" lon="10.870801304986392"><ele>724.6666666666666</ele><time>2026-04-06T08:23:42Z</time></trkpt><trkpt lat="44.33838335044514" lon="10.871041031769773"><ele>723.3333333333333</ele><time>2026-04-06T08:23:43Z</time></trkpt><trkpt lat="44.33832992895052" lon="10.871225020178057"><ele>722.0</ele><time>2026-04-06T08:23:44Z</time></trkpt><trkpt lat="44.33828276456363" lon="10.87139785353076"><ele>722.0</ele><time>2026-04-06T08:23:45Z</time></trkpt><trkpt lat="44.33824795819951" lon="10.871588715770937"><ele>722.0</ele><time>2026-04-06T08:23:46Z</time></trkpt><trkpt lat="44.3382133188471" lon="10.871759220862195"><ele>722.0</ele><time>2026-04-06T08:23:47Z</time></trkpt><trkpt lat="44.338191321186756" lon="10.871924392117881"><ele>722.0</ele><time>2026-04-06T08:23:48Z</time></trkpt><trkpt lat="44.33815230963294" lon="10.872076498147054"><ele>722.4000000000001</ele><time>2026-04-06T08:23:49Z</time></trkpt><trkpt lat="44.3381809043854" lon="10.87224965600423"><ele>722.8000000000001</ele><time>2026-04-06T08:23:50Z</time></trkpt><trkpt lat="44.338183077247464" lon="10.872394191266944"><ele>723.2</ele><time>2026-04-06T08:23:51Z</time></trkpt><trkpt lat="44.33817895141933" lon="10.872537114083748"><ele>723.6</ele><time>2026-04-06T08:23:52Z</time></trkpt><trkpt lat="44.33818913581598" lon="10.872662923812937"><ele>724.0</ele><time>2026-04-06T08:23:53Z</time></trkpt><trkpt lat="44.33824698881965" lon="10.872770187586687"><ele>724.75</ele><time>2026-04-06T08:23:54Z</time></trkpt><trkpt lat="44.33833307760371" lon="10.872858716310736"><ele>725.5</ele><time>2026-04-06T08:23:55Z</time></trkpt><trkpt lat="44.33844670931778" lon="10.872892559179306"><ele>726.25</ele><time>2026-04-06T08:23:56Z</time></trkpt><trkpt lat="44.33856042051138" lon="10.872887369110009"><ele>727.0</ele><time>2026-04-06T08:23:57Z</time></trkpt><trkpt lat="44.338674227898444" lon="10.872889509192085"><ele>727.0</ele><time>2026-04-06T08:23:58Z</time></trkpt><trkpt lat="44.33877358941289" lon="10.872898090060895"><ele>727.0</ele><time>2026-04-06T08:23:59Z</time></trkpt><trkpt lat="44.33887139443367" lon="10.872895415119867"><ele>727.0</ele><time>2026-04-06T08:24:00Z</time></trkpt><trkpt lat="44.33896774248254" lon="10.872900472801307"><ele>727.0</ele><time>2026-04-06T08:24:01Z</time></trkpt><trkpt lat="44.339044068055806" lon="10.872949012366098"><ele>727.0</ele><time>2026-04-06T08:24:02Z</time></trkpt><trkpt lat="44.33909529387719" lon="10.873027548422748"><ele>724.8</ele><time>2026-04-06T08:24:03Z</time></trkpt><trkpt lat="44.33914451195266" lon="10.873156356438404"><ele>722.6</ele><time>2026-04-06T08:24:04Z</time></trkpt><trkpt lat="44.33918108874046" lon="10.873301772878216"><ele>720.4</ele><time>2026-04-06T08:24:05Z</time></trkpt><trkpt lat="44.3392096339818" lon="10.873447292417634"><ele>718.1999999999999</ele><time>2026-04-06T08:24:06Z</time></trkpt><trkpt lat="44.33922653088603" lon="10.873552402784151"><ele>716.0</ele><time>2026-04-06T08:24:07Z</time></trkpt><trkpt lat="44.339195742196786" lon="10.873645507544301"><ele>716.8</ele><time>2026-04-06T08:24:08Z</time></trkpt><trkpt lat="44.33914069057754" lon="10.873743934778757"><ele>717.5999999999999</ele><time>2026-04-06T08:24:09Z</time></trkpt><trkpt lat="44.33904555131577" lon="10.873815448454705"><ele>718.4</ele><time>2026-04-06T08:24:10Z</time></trkpt><trkpt lat="44.338949735919456" lon="10.873872850999824"><ele>719.2</ele><time>2026-04-06T08:24:11Z</time></trkpt><trkpt lat="44.33886257449319" lon="10.873938367522102"><ele>720.0</ele><time>2026-04-06T08:24:12Z</time></trkpt><trkpt lat="44.33878582212444" lon="10.87401369490417"><ele>720.0</ele><time>2026-04-06T08:24:13Z</time></trkpt><trkpt lat="44.33873651288379" lon="10.87410428888388"><ele>720.0</ele><time>2026-04-06T08:24:14Z</time></trkpt><trkpt lat="44.33870943004832" lon="10.874230296981844"><ele>720.0</ele><time>2026-04-06T08:24:15Z</time></trkpt><trkpt lat="44.3387239732625" lon="10.874361515485294"><ele>720.0</ele><time>2026-04-06T08:24:16Z</time></trkpt><trkpt lat="44.33877283509655" lon="10.874495847069253"><ele>720.0</ele><time>2026-04-06T08:24:17Z</time></trkpt><trkpt lat="44.338842967584426" lon="10.874619694652994"><ele>714.8</ele><time>2026-04-06T08:24:18Z</time></trkpt><trkpt lat="44.33890946268205" lon="10.874736252589328"><ele>709.6</ele><time>2026-04-06T08:24:19Z</time></trkpt><trkpt lat="44.33896050619639" lon="10.874861407858283"><ele>704.4000000000001</ele><time>2026-04-06T08:24:20Z</time></trkpt><trkpt lat="44.33898830567016" lon="10.874996783444647"><ele>699.2</ele><time>2026-04-06T08:24:21Z</time></trkpt><trkpt lat="44.33898505397775" lon="10.875163436545048"><ele>694.0</ele><time>2026-04-06T08:24:22Z</time></trkpt><trkpt lat="44.338975578040554" lon="10.875333840412846"><ele>693.25</ele><time>2026-04-06T08:24:23Z</time></trkpt><trkpt lat="44.33899304304731" lon="10.8755196292646"><ele>692.5</ele><time>2026-04-06T08:24:24Z</time></trkpt><trkpt lat="44.33902937519653" lon="10.875699693554255"><ele>691.75</ele><time>2026-04-06T08:24:24.999Z</time></trkpt><trkpt lat="44.339070792676594" lon="10.875886852492348"><ele>691.0</ele><time>2026-04-06T08:24:25.999Z</time></trkpt><trkpt lat="44.33910415692886" lon="10.876073598940922"><ele>690.25</ele><time>2026-04-06T08:24:26.999Z</time></trkpt><trkpt lat="44.33913172916944" lon="10.876249866941384"><ele>689.5</ele><time>2026-04-06T08:24:27.999Z</time></trkpt><trkpt lat="44.33915878719635" lon="10.876425059520221"><ele>688.75</ele><time>2026-04-06T08:24:28.999Z</time></trkpt><trkpt lat="44.33918997165775" lon="10.876626602996144"><ele>688.0</ele><time>2026-04-06T08:24:29.999Z</time></trkpt><trkpt lat="44.33919868033341" lon="10.87681431514829"><ele>687.8</ele><time>2026-04-06T08:24:30.999Z</time></trkpt><trkpt lat="44.33919599974165" lon="10.87698493993931"><ele>687.5999999999999</ele><time>2026-04-06T08:24:31.999Z</time></trkpt><trkpt lat="44.339193905324294" lon="10.877119756061555"><ele>687.4000000000001</ele><time>2026-04-06T08:24:32.999Z</time></trkpt><trkpt lat="44.33921284520628" lon="10.877231909376652"><ele>687.2</ele><time>2026-04-06T08:24:33.999Z</time></trkpt><trkpt lat="44.33927715714485" lon="10.877308854236043"><ele>687.0</ele><time>2026-04-06T08:24:34.999Z</time></trkpt><trkpt lat="44.33939275266021" lon="10.877349280643624"><ele>687.0</ele><time>2026-04-06T08:24:35.999Z</time></trkpt><trkpt lat="44.33950373900944" lon="10.877411170686866"><ele>687.0</ele><time>2026-04-06T08:24:36.999Z</time></trkpt><trkpt lat="44.33961944787848" lon="10.877457826747325"><ele>687.0</ele><time>2026-04-06T08:24:37.999Z</time></trkpt><trkpt lat="44.33974419920852" lon="10.877484504982144"><ele>687.0</ele><time>2026-04-06T08:24:38.999Z</time></trkpt><trkpt lat="44.339856614885846" lon="10.877513610335102"><ele>684.5</ele><time>2026-04-06T08:24:39.999Z</time></trkpt><trkpt lat="44.339971168839895" lon="10.877505792174217"><ele>682.0</ele><time>2026-04-06T08:24:40.999Z</time></trkpt><trkpt lat="44.340088421352974" lon="10.877457133308683"><ele>679.5</ele><time>2026-04-06T08:24:41.999Z</time></trkpt><trkpt lat="44.340218151039984" lon="10.877421916687608"><ele>677.0</ele><time>2026-04-06T08:24:42.999Z</time></trkpt><trkpt lat="44.34033018891245" lon="10.87737229638425"><ele>677.0</ele><time>2026-04-06T08:24:43.999Z</time></trkpt><trkpt lat="44.34042141336904" lon="10.87729028672486"><ele>677.0</ele><time>2026-04-06T08:24:44.999Z</time></trkpt><trkpt lat="44.340513653667145" lon="10.877223919378709"><ele>677.0</ele><time>2026-04-06T08:24:45.999Z</time></trkpt><trkpt lat="44.34058030276983" lon="10.877096712353453"><ele>677.0</ele><time>2026-04-06T08:24:46.999Z</time></trkpt><trkpt lat="44.34065618710945" lon="10.877002959231355"><ele>677.0</ele><time>2026-04-06T08:24:47.999Z</time></trkpt><trkpt lat="44.34072106115557" lon="10.876889738313308"><ele>674.75</ele><time>2026-04-06T08:24:48.999Z</time></trkpt><trkpt lat="44.340802155457524" lon="10.876749501862736"><ele>672.5</ele><time>2026-04-06T08:24:49.999Z</time></trkpt><trkpt lat="44.340882414427824" lon="10.876616641724654"><ele>670.25</ele><time>2026-04-06T08:24:50.999Z</time></trkpt><trkpt lat="44.3409527942458" lon="10.876488835613888"><ele>668.0</ele><time>2026-04-06T08:24:51.999Z</time></trkpt><trkpt lat="44.341009163407776" lon="10.876362720523451"><ele>668.0</ele><time>2026-04-06T08:24:52.999Z</time></trkpt><trkpt lat="44.34104861327701" lon="10.87620148618897"><ele>668.0</ele><time>2026-04-06T08:24:53.999Z</time></trkpt><trkpt lat="44.34107856896063" lon="10.87602998278865"><ele>668.0</ele><time>2026-04-06T08:24:54.999Z</time></trkpt><trkpt lat="44.341115735828076" lon="10.875872822325858"><ele>668.0</ele><time>2026-04-06T08:24:55.999Z</time></trkpt><trkpt lat="44.34116356340379" lon="10.875729712372578"><ele>667.0</ele><time>2026-04-06T08:24:56.999Z</time></trkpt><trkpt lat="44.34121840611167" lon="10.875587283775129"><ele>666.0</ele><time>2026-04-06T08:24:57.999Z</time></trkpt><trkpt lat="44.34127215652718" lon="10.875447692081131"><ele>665.0</ele><time>2026-04-06T08:24:58.999Z</time></trkpt><trkpt lat="44.34132585181661" lon="10.875308243319406"><ele>664.0</ele><time>2026-04-06T08:24:59.999Z</time></trkpt><trkpt lat="44.341381862542285" lon="10.875161043075073"><ele>661.8333333333334</ele><time>2026-04-06T08:25:00.999Z</time></trkpt><trkpt lat="44.341430755968425" lon="10.875029714516902"><ele>659.6666666666667</ele><time>2026-04-06T08:25:01.999Z</time></trkpt><trkpt lat="44.3414791744574" lon="10.874906080656842"><ele>657.5</ele><time>2026-04-06T08:25:02.999Z</time></trkpt><trkpt lat="44.34151632998982" lon="10.87481722869772"><ele>655.3333333333334</ele><time>2026-04-06T08:25:03.999Z</time></trkpt><trkpt lat="44.341553677417835" lon="10.874744033965634"><ele>653.1666666666666</ele><time>2026-04-06T08:25:04.999Z</time></trkpt><trkpt lat="44.34160177059356" lon="10.874674952604797"><ele>651.0</ele><time>2026-04-06T08:25:06.999Z</time></trkpt><trkpt lat="44.34162034343685" lon="10.874821171433183"><ele>651.0</ele><time>2026-04-06T08:25:09.999Z</time></trkpt><trkpt lat="44.34169550886488" lon="10.874970241463096"><ele>651.0</ele><time>2026-04-06T08:25:10.999Z</time></trkpt><trkpt lat="44.3417578489437" lon="10.875109960037179"><ele>651.0</ele><time>2026-04-06T08:25:11.999Z</time></trkpt><trkpt lat="44.34182177683869" lon="10.875191682778716"><ele>651.0</ele><time>2026-04-06T08:25:12.999Z</time></trkpt><trkpt lat="44.34191232472323" lon="10.875282329599365"><ele>651.0</ele><time>2026-04-06T08:25:13.999Z</time></trkpt><trkpt lat="44.34201076170722" lon="10.875374969655061"><ele>651.0</ele><time>2026-04-06T08:25:14.999Z</time></trkpt><trkpt lat="44.34210572026905" lon="10.875466280739635"><ele>651.0</ele><time>2026-04-06T08:25:15.999Z</time></trkpt><trkpt lat="44.34219063171476" lon="10.875523800940625"><ele>651.0</ele><time>2026-04-06T08:25:16.999Z</time></trkpt><trkpt lat="44.34225679432083" lon="10.875590350691182"><ele>651.0</ele><time>2026-04-06T08:25:17.999Z</time></trkpt><trkpt lat="44.34232041108817" lon="10.875729065607018"><ele>651.0</ele><time>2026-04-06T08:25:19.999Z</time></trkpt><trkpt lat="44.34237467950124" lon="10.87582462745312"><ele>649.1666666666666</ele><time>2026-04-06T08:25:20.999Z</time></trkpt><trkpt lat="44.34243442700245" lon="10.875910504497158"><ele>647.3333333333334</ele><time>2026-04-06T08:25:21.999Z</time></trkpt><trkpt lat="44.3424979467687" lon="10.875984778600166"><ele>645.5</ele><time>2026-04-06T08:25:22.999Z</time></trkpt><trkpt lat="44.342571895665905" lon="10.876020600291147"><ele>643.6666666666667</ele><time>2026-04-06T08:25:23.999Z</time></trkpt><trkpt lat="44.34266443176007" lon="10.87601318112367"><ele>641.8333333333334</ele><time>2026-04-06T08:25:24.999Z</time></trkpt><trkpt lat="44.342751803536494" lon="10.876007650541386"><ele>640.0</ele><time>2026-04-06T08:25:25.999Z</time></trkpt><trkpt lat="44.342847944199164" lon="10.876030321698133"><ele>639.8333333333334</ele><time>2026-04-06T08:25:26.999Z</time></trkpt><trkpt lat="44.342931653492364" lon="10.876038287940355"><ele>639.6666666666667</ele><time>2026-04-06T08:25:28Z</time></trkpt><trkpt lat="44.34302333397462" lon="10.876053038535865"><ele>639.5</ele><time>2026-04-06T08:25:29Z</time></trkpt><trkpt lat="44.34309817454987" lon="10.8760767232969"><ele>639.3333333333334</ele><time>2026-04-06T08:25:30Z</time></trkpt><trkpt lat="44.34315186922942" lon="10.876217655615523"><ele>639.1666666666666</ele><time>2026-04-06T08:25:32Z</time></trkpt><trkpt lat="44.343160963461465" lon="10.876305283580525"><ele>639.0</ele><time>2026-04-06T08:25:33Z</time></trkpt><trkpt lat="44.34316754859265" lon="10.876430202735213"><ele>635.5</ele><time>2026-04-06T08:25:34Z</time></trkpt><trkpt lat="44.34317856354601" lon="10.87658022507214"><ele>632.0</ele><time>2026-04-06T08:25:35Z</time></trkpt><trkpt lat="44.343164629737025" lon="10.87677312678245"><ele>628.5</ele><time>2026-04-06T08:25:36Z</time></trkpt><trkpt lat="44.34314425573094" lon="10.876963133308982"><ele>625.0</ele><time>2026-04-06T08:25:37Z</time></trkpt><trkpt lat="44.34312466943894" lon="10.877152209515419"><ele>624.6</ele><time>2026-04-06T08:25:38Z</time></trkpt><trkpt lat="44.343114163939376" lon="10.87731485986755"><ele>624.2</ele><time>2026-04-06T08:25:39Z</time></trkpt><trkpt lat="44.343087974714855" lon="10.877450683405007"><ele>623.8</ele><time>2026-04-06T08:25:40Z</time></trkpt><trkpt lat="44.34307673179443" lon="10.877597075537913"><ele>623.4</ele><time>2026-04-06T08:25:41Z</time></trkpt><trkpt lat="44.343080237408174" lon="10.877743351768968"><ele>623.0</ele><time>2026-04-06T08:25:42Z</time></trkpt><trkpt lat="44.343074588955204" lon="10.877892060856224"><ele>622.4</ele><time>2026-04-06T08:25:43Z</time></trkpt><trkpt lat="44.34307246501422" lon="10.878035627748552"><ele>621.8</ele><time>2026-04-06T08:25:44Z</time></trkpt><trkpt lat="44.343069298585775" lon="10.878163652529825"><ele>621.2</ele><time>2026-04-06T08:25:45Z</time></trkpt><trkpt lat="44.34308661375575" lon="10.878290661315212"><ele>620.6</ele><time>2026-04-06T08:25:47Z</time></trkpt><trkpt lat="44.34308273462315" lon="10.878385050676345"><ele>620.0</ele><time>2026-04-06T08:25:49Z</time></trkpt><trkpt lat="44.343126459223534" lon="10.878541955104128"><ele>620.0</ele><time>2026-04-06T08:25:51Z</time></trkpt><trkpt lat="44.34338948800245" lon="10.87856297420322"><ele>620.0</ele><time>2026-04-06T08:25:52Z</time></trkpt><trkpt lat="44.34347429224763" lon="10.878623631458302"><ele>620.0</ele><time>2026-04-06T08:25:53Z</time></trkpt><trkpt lat="44.343563594105184" lon="10.878678829140542"><ele>620.0</ele><time>2026-04-06T08:25:54Z</time></trkpt><trkpt lat="44.343643744227734" lon="10.878794036302201"><ele>620.0</ele><time>2026-04-06T08:25:56Z</time></trkpt><trkpt lat="44.34373089719984" lon="10.878887348897836"><ele>620.0</ele><time>2026-04-06T08:25:58Z</time></trkpt><trkpt lat="44.34377307412762" lon="10.878987075721128"><ele>620.0</ele><time>2026-04-06T08:26:00Z</time></trkpt><trkpt lat="44.343731073929696" lon="10.879080425902865"><ele>620.0</ele><time>2026-04-06T08:26:02Z</time></trkpt><trkpt lat="44.34362674530471" lon="10.879123453083013"><ele>620.0</ele><time>2026-04-06T08:26:04Z</time></trkpt><trkpt lat="44.34352829983471" lon="10.87911988291557"><ele>620.0</ele><time>2026-04-06T08:26:06Z</time></trkpt><trkpt lat="44.34343653572011" lon="10.879126575577532"><ele>620.0</ele><time>2026-04-06T08:26:08Z</time></trkpt><trkpt lat="44.343372981387944" lon="10.879131112010535"><ele>620.0</ele><time>2026-04-06T08:26:10Z</time></trkpt><trkpt lat="44.3432334192965" lon="10.879180389375929"><ele>620.0</ele><time>2026-04-06T08:26:12Z</time></trkpt><trkpt lat="44.34313745790516" lon="10.879204663311716"><ele>620.5</ele><time>2026-04-06T08:26:14Z</time></trkpt><trkpt lat="44.34303632926019" lon="10.87922293731809"><ele>621.0</ele><time>2026-04-06T08:26:16Z</time></trkpt><trkpt lat="44.34294351554856" lon="10.879306802237778"><ele>621.5</ele><time>2026-04-06T08:26:18Z</time></trkpt><trkpt lat="44.342902671194075" lon="10.879393187968681"><ele>622.0</ele><time>2026-04-06T08:26:19Z</time></trkpt><trkpt lat="44.34285260779154" lon="10.879461088390222"><ele>622.5</ele><time>2026-04-06T08:26:20Z</time></trkpt><trkpt lat="44.34279342410442" lon="10.87949320904905"><ele>623.0</ele><time>2026-04-06T08:26:21Z</time></trkpt><trkpt lat="44.34271943525619" lon="10.87951555356663"><ele>621.8</ele><time>2026-04-06T08:26:22Z</time></trkpt><trkpt lat="44.342595617530975" lon="10.879534302997298"><ele>620.5999999999999</ele><time>2026-04-06T08:26:24Z</time></trkpt><trkpt lat="44.34250708537801" lon="10.879579345493955"><ele>619.4000000000001</ele><time>2026-04-06T08:26:26Z</time></trkpt><trkpt lat="44.342482295030734" lon="10.879717042896068"><ele>618.2</ele><time>2026-04-06T08:26:29Z</time></trkpt><trkpt lat="44.34257106906636" lon="10.879832513442969"><ele>617.0</ele><time>2026-04-06T08:26:30.999Z</time></trkpt><trkpt lat="44.34265165249902" lon="10.879889471664445"><ele>617.0</ele><time>2026-04-06T08:26:31.999Z</time></trkpt><trkpt lat="44.34271241703037" lon="10.879940271169348"><ele>617.0</ele><time>2026-04-06T08:26:32.999Z</time></trkpt><trkpt lat="44.342786201809844" lon="10.880036777857553"><ele>617.0</ele><time>2026-04-06T08:26:33.999Z</time></trkpt><trkpt lat="44.342847886403504" lon="10.880139651319013"><ele>617.0</ele><time>2026-04-06T08:26:34.999Z</time></trkpt><trkpt lat="44.342896143692435" lon="10.880219878854351"><ele>617.0</ele><time>2026-04-06T08:26:35.999Z</time></trkpt><trkpt lat="44.34296590565221" lon="10.880292794293817"><ele>617.0</ele><time>2026-04-06T08:26:36.999Z</time></trkpt><trkpt lat="44.343034213964955" lon="10.88036323797743"><ele>612.5</ele><time>2026-04-06T08:26:37.999Z</time></trkpt><trkpt lat="44.343101261517916" lon="10.880428207300332"><ele>608.0</ele><time>2026-04-06T08:26:38.999Z</time></trkpt><trkpt lat="44.34316114880049" lon="10.880491077755318"><ele>603.5</ele><time>2026-04-06T08:26:39.999Z</time></trkpt><trkpt lat="44.34322360578658" lon="10.880560745866356"><ele>599.0</ele><time>2026-04-06T08:26:40.999Z</time></trkpt><trkpt lat="44.34327955185904" lon="10.880614442657583"><ele>594.5</ele><time>2026-04-06T08:26:41.999Z</time></trkpt><trkpt lat="44.343343692259836" lon="10.880672169104882"><ele>590.0</ele><time>2026-04-06T08:26:42.999Z</time></trkpt><trkpt lat="44.34340797107701" lon="10.880717263729277"><ele>590.0</ele><time>2026-04-06T08:26:43.999Z</time></trkpt><trkpt lat="44.34352797515001" lon="10.880791476507465"><ele>590.0</ele><time>2026-04-06T08:26:45.999Z</time></trkpt><trkpt lat="44.343592787170564" lon="10.88082960796721"><ele>590.0</ele><time>2026-04-06T08:26:46.999Z</time></trkpt><trkpt lat="44.343703140459816" lon="10.880919995614281"><ele>590.0</ele><time>2026-04-06T08:26:48.999Z</time></trkpt><trkpt lat="44.34374932694414" lon="10.880982769034484"><ele>590.0</ele><time>2026-04-06T08:26:49.999Z</time></trkpt><trkpt lat="44.343779948699584" lon="10.881069475083262"><ele>590.7142857142858</ele><time>2026-04-06T08:26:50.999Z</time></trkpt><trkpt lat="44.34378512280193" lon="10.881170794576201"><ele>591.4285714285714</ele><time>2026-04-06T08:26:51.999Z</time></trkpt><trkpt lat="44.34378186929162" lon="10.881272159053614"><ele>592.1428571428571</ele><time>2026-04-06T08:26:52.999Z</time></trkpt><trkpt lat="44.34376804035292" lon="10.88136629873621"><ele>592.8571428571429</ele><time>2026-04-06T08:26:53.999Z</time></trkpt><trkpt lat="44.34375486694297" lon="10.88145777536777"><ele>593.5714285714286</ele><time>2026-04-06T08:26:54.999Z</time></trkpt><trkpt lat="44.34376515812481" lon="10.88155189897782"><ele>594.2857142857143</ele><time>2026-04-06T08:26:55.999Z</time></trkpt><trkpt lat="44.34378766449405" lon="10.881637658527538"><ele>595.0</ele><time>2026-04-06T08:26:56.999Z</time></trkpt><trkpt lat="44.343832695310475" lon="10.881706071812664"><ele>592.3333333333334</ele><time>2026-04-06T08:26:57.999Z</time></trkpt><trkpt lat="44.34389106750335" lon="10.881753343331264"><ele>589.6666666666667</ele><time>2026-04-06T08:26:58.999Z</time></trkpt><trkpt lat="44.343958123834526" lon="10.88176783127109"><ele>587.0</ele><time>2026-04-06T08:26:59.999Z</time></trkpt><trkpt lat="44.34407987182608" lon="10.881765077935794"><ele>584.3333333333334</ele><time>2026-04-06T08:27:01.999Z</time></trkpt><trkpt lat="44.344196554728306" lon="10.881775384981736"><ele>581.6666666666666</ele><time>2026-04-06T08:27:03.999Z</time></trkpt><trkpt lat="44.34425924417065" lon="10.881789097396338"><ele>579.0</ele><time>2026-04-06T08:27:04.999Z</time></trkpt><trkpt lat="44.34436403513008" lon="10.881836098284241"><ele>579.0</ele><time>2026-04-06T08:27:06.999Z</time></trkpt><trkpt lat="44.34442772215947" lon="10.881855689951694"><ele>579.0</ele><time>2026-04-06T08:27:07.999Z</time></trkpt><trkpt lat="44.34454622301452" lon="10.881910612305806"><ele>579.0</ele><time>2026-04-06T08:27:09.999Z</time></trkpt><trkpt lat="44.344605989062984" lon="10.881958320442433"><ele>579.0</ele><time>2026-04-06T08:27:10.999Z</time></trkpt><trkpt lat="44.344712366814605" lon="10.881996545217177"><ele>579.0</ele><time>2026-04-06T08:27:12.999Z</time></trkpt><trkpt lat="44.34477929029875" lon="10.88201944599148"><ele>579.0</ele><time>2026-04-06T08:27:13.999Z</time></trkpt><trkpt lat="44.34484445307891" lon="10.882049385687532"><ele>574.6</ele><time>2026-04-06T08:27:14.999Z</time></trkpt><trkpt lat="44.34495623667925" lon="10.882132375571697"><ele>570.2</ele><time>2026-04-06T08:27:16.999Z</time></trkpt><trkpt lat="44.34502488048163" lon="10.882242771426572"><ele>565.8000000000001</ele><time>2026-04-06T08:27:18.999Z</time></trkpt><trkpt lat="44.345065679090034" lon="10.882323252887868"><ele>561.4</ele><time>2026-04-06T08:27:19.999Z</time></trkpt><trkpt lat="44.34512812279619" lon="10.88240451157932"><ele>557.0</ele><time>2026-04-06T08:27:20.999Z</time></trkpt><trkpt lat="44.34521336773044" lon="10.882497357784976"><ele>557.0</ele><time>2026-04-06T08:27:21.999Z</time></trkpt><trkpt lat="44.34526069437942" lon="10.882558904696383"><ele>557.0</ele><time>2026-04-06T08:27:22.999Z</time></trkpt><trkpt lat="44.345311859211584" lon="10.882631730351843"><ele>557.0</ele><time>2026-04-06T08:27:23.999Z</time></trkpt><trkpt lat="44.3453708067056" lon="10.882718231161263"><ele>557.0</ele><time>2026-04-06T08:27:25.999Z</time></trkpt><trkpt lat="44.34545765514809" lon="10.882767636568747"><ele>557.0</ele><time>2026-04-06T08:27:28.999Z</time></trkpt><trkpt lat="44.34557026406958" lon="10.88279932911631"><ele>557.0</ele><time>2026-04-06T08:27:30.999Z</time></trkpt><trkpt lat="44.345686354308654" lon="10.882861473310045"><ele>558.3333333333333</ele><time>2026-04-06T08:27:32.999Z</time></trkpt><trkpt lat="44.345748889834645" lon="10.882910973438912"><ele>559.6666666666666</ele><time>2026-04-06T08:27:34Z</time></trkpt><trkpt lat="44.345810111344555" lon="10.88296350889703"><ele>561.0</ele><time>2026-04-06T08:27:35Z</time></trkpt><trkpt lat="44.34587029632469" lon="10.883021915168014"><ele>562.3333333333334</ele><time>2026-04-06T08:27:36Z</time></trkpt><trkpt lat="44.3459316874024" lon="10.883086883176825"><ele>563.6666666666667</ele><time>2026-04-06T08:27:37Z</time></trkpt><trkpt lat="44.34600028666401" lon="10.88315611607008"><ele>565.0</ele><time>2026-04-06T08:27:38Z</time></trkpt><trkpt lat="44.346076883308136" lon="10.883220407424934"><ele>565.0</ele><time>2026-04-06T08:27:39Z</time></trkpt><trkpt lat="44.34614943983206" lon="10.883277481558945"><ele>565.0</ele><time>2026-04-06T08:27:40Z</time></trkpt><trkpt lat="44.346223255262935" lon="10.88333784306384"><ele>565.0</ele><time>2026-04-06T08:27:41Z</time></trkpt><trkpt lat="44.34629193130697" lon="10.883375636096618"><ele>565.0</ele><time>2026-04-06T08:27:42Z</time></trkpt><trkpt lat="44.34635963900985" lon="10.883399073883107"><ele>565.0</ele><time>2026-04-06T08:27:43Z</time></trkpt><trkpt lat="44.34642639601299" lon="10.8834257968941"><ele>565.0</ele><time>2026-04-06T08:27:44Z</time></trkpt><trkpt lat="44.34649523019984" lon="10.88345789512292"><ele>564.1666666666667</ele><time>2026-04-06T08:27:45Z</time></trkpt><trkpt lat="44.34655101254476" lon="10.883510638711046"><ele>563.3333333333334</ele><time>2026-04-06T08:27:46Z</time></trkpt><trkpt lat="44.346611331670054" lon="10.883562530002505"><ele>562.5</ele><time>2026-04-06T08:27:47Z</time></trkpt><trkpt lat="44.346712368258466" lon="10.883605790385467"><ele>561.6666666666666</ele><time>2026-04-06T08:27:49Z</time></trkpt><trkpt lat="44.34677591425448" lon="10.883610640900738"><ele>560.8333333333333</ele><time>2026-04-06T08:27:50Z</time></trkpt><trkpt lat="44.34685034953516" lon="10.883624055576433"><ele>560.0</ele><time>2026-04-06T08:27:51Z</time></trkpt><trkpt lat="44.34697728577147" lon="10.883666485075109"><ele>560.0</ele><time>2026-04-06T08:27:53Z</time></trkpt><trkpt lat="44.34705933671458" lon="10.883704534268306"><ele>560.0</ele><time>2026-04-06T08:27:54Z</time></trkpt><trkpt lat="44.34713906041181" lon="10.883736420570433"><ele>560.0</ele><time>2026-04-06T08:27:55Z</time></trkpt><trkpt lat="44.34720283027318" lon="10.883768224514176"><ele>560.0</ele><time>2026-04-06T08:27:56Z</time></trkpt><trkpt lat="44.347292240607096" lon="10.883798532751133"><ele>560.0</ele><time>2026-04-06T08:27:57Z</time></trkpt><trkpt lat="44.34737405200578" lon="10.883807594151614"><ele>560.0</ele><time>2026-04-06T08:27:58Z</time></trkpt><trkpt lat="44.34744489772948" lon="10.883829068087085"><ele>555.6666666666666</ele><time>2026-04-06T08:27:59Z</time></trkpt><trkpt lat="44.34750906760744" lon="10.883856588903692"><ele>551.3333333333333</ele><time>2026-04-06T08:28:00Z</time></trkpt><trkpt lat="44.347574584668244" lon="10.883917884537677"><ele>547.0</ele><time>2026-04-06T08:28:01Z</time></trkpt><trkpt lat="44.347645357622206" lon="10.88398402773574"><ele>542.6666666666666</ele><time>2026-04-06T08:28:02Z</time></trkpt><trkpt lat="44.347705835450505" lon="10.884045929942692"><ele>538.3333333333334</ele><time>2026-04-06T08:28:03Z</time></trkpt><trkpt lat="44.34775205850275" lon="10.88413104733487"><ele>534.0</ele><time>2026-04-06T08:28:04Z</time></trkpt><trkpt lat="44.347794270073145" lon="10.884211572466247"><ele>537.8</ele><time>2026-04-06T08:28:05Z</time></trkpt><trkpt lat="44.34783907552317" lon="10.884302829161015"><ele>541.5999999999999</ele><time>2026-04-06T08:28:06Z</time></trkpt><trkpt lat="44.34790306421405" lon="10.884337824075986"><ele>545.4</ele><time>2026-04-06T08:28:08Z</time></trkpt><trkpt lat="44.34802121903316" lon="10.884285748322906"><ele>549.1999999999999</ele><time>2026-04-06T08:28:10Z</time></trkpt><trkpt lat="44.3480941380788" lon="10.884246273950737"><ele>553.0</ele><time>2026-04-06T08:28:12Z</time></trkpt><trkpt lat="44.3481481602408" lon="10.884113230772352"><ele>544.4</ele><time>2026-04-06T08:28:15Z</time></trkpt><trkpt lat="44.34822365163057" lon="10.8840698142677"><ele>535.8</ele><time>2026-04-06T08:28:18Z</time></trkpt><trkpt lat="44.34831736843233" lon="10.884069285993265"><ele>527.2</ele><time>2026-04-06T08:28:20Z</time></trkpt><trkpt lat="44.34843150039807" lon="10.88412121294472"><ele>518.6</ele><time>2026-04-06T08:28:22Z</time></trkpt><trkpt lat="44.3485212513787" lon="10.884053712226144"><ele>510.0</ele><time>2026-04-06T08:28:24Z</time></trkpt><trkpt lat="44.348618610246284" lon="10.884029442655754"><ele>510.0</ele><time>2026-04-06T08:28:26Z</time></trkpt><trkpt lat="44.348728316791394" lon="10.883980488944413"><ele>510.0</ele><time>2026-04-06T08:28:28Z</time></trkpt><trkpt lat="44.34878770412404" lon="10.883933861298754"><ele>510.0</ele><time>2026-04-06T08:28:29Z</time></trkpt><trkpt lat="44.348856563445835" lon="10.883895388910666"><ele>510.0</ele><time>2026-04-06T08:28:31Z</time></trkpt><trkpt lat="44.348906419606" lon="10.883809104541058"><ele>510.0</ele><time>2026-04-06T08:28:33.999Z</time></trkpt><trkpt lat="44.348899953158295" lon="10.883641944435738"><ele>508.4</ele><time>2026-04-06T08:28:35.999Z</time></trkpt><trkpt lat="44.34892176639228" lon="10.883515248137316"><ele>506.8</ele><time>2026-04-06T08:28:37.999Z</time></trkpt><trkpt lat="44.34894417964852" lon="10.88338764715293"><ele>505.20000000000005</ele><time>2026-04-06T08:28:40.999Z</time></trkpt><trkpt lat="44.348963253724875" lon="10.883255954331336"><ele>503.6</ele><time>2026-04-06T08:28:42.999Z</time></trkpt><trkpt lat="44.34903320167592" lon="10.883116684387325"><ele>502.0</ele><time>2026-04-06T08:28:44.999Z</time></trkpt><trkpt lat="44.349106596431085" lon="10.883023923500124"><ele>502.00000000000006</ele><time>2026-04-06T08:28:45.999Z</time></trkpt><trkpt lat="44.34918415500058" lon="10.882943605608974"><ele>502.0</ele><time>2026-04-06T08:28:46.999Z</time></trkpt><trkpt lat="44.34926036724919" lon="10.88289234117572"><ele>502.0</ele><time>2026-04-06T08:28:47.999Z</time></trkpt><trkpt lat="44.34936650055874" lon="10.88286147347044"><ele>502.0</ele><time>2026-04-06T08:28:49.999Z</time></trkpt><trkpt lat="44.34944656124635" lon="10.882819030699324"><ele>502.00000000000006</ele><time>2026-04-06T08:28:50.999Z</time></trkpt><trkpt lat="44.34950220156824" lon="10.88276191163707"><ele>502.0</ele><time>2026-04-06T08:28:51.999Z</time></trkpt><trkpt lat="44.34956892177194" lon="10.882730270714601"><ele>502.00000000000006</ele><time>2026-04-06T08:28:52.999Z</time></trkpt><trkpt lat="44.34967987380436" lon="10.882737897152357"><ele>502.0</ele><time>2026-04-06T08:28:54.999Z</time></trkpt><trkpt lat="44.34975763863067" lon="10.882790393162427"><ele>502.0</ele><time>2026-04-06T08:28:55.999Z</time></trkpt><trkpt lat="44.34983137950637" lon="10.882823273952724"><ele>502.0</ele><time>2026-04-06T08:28:56.999Z</time></trkpt><trkpt lat="44.34989245711129" lon="10.882790416124015"><ele>502.00000000000006</ele><time>2026-04-06T08:28:57.999Z</time></trkpt><trkpt lat="44.349955428086965" lon="10.882699924772115"><ele>502.0</ele><time>2026-04-06T08:28:59.999Z</time></trkpt><trkpt lat="44.34997898003963" lon="10.882614760502484"><ele>503.83333333333337</ele><time>2026-04-06T08:29:00.999Z</time></trkpt><trkpt lat="44.35002525428963" lon="10.882482997859997"><ele>505.6666666666667</ele><time>2026-04-06T08:29:01.999Z</time></trkpt><trkpt lat="44.35007320686627" lon="10.882374960651582"><ele>507.5</ele><time>2026-04-06T08:29:02.999Z</time></trkpt><trkpt lat="44.35012440094252" lon="10.882303929143982"><ele>509.33333333333337</ele><time>2026-04-06T08:29:03.999Z</time></trkpt><trkpt lat="44.35018403556927" lon="10.882244124311459"><ele>511.1666666666667</ele><time>2026-04-06T08:29:04.999Z</time></trkpt><trkpt lat="44.350252980435016" lon="10.882231558031046"><ele>513.0</ele><time>2026-04-06T08:29:05.999Z</time></trkpt><trkpt lat="44.35033258864936" lon="10.882246103704256"><ele>513.0</ele><time>2026-04-06T08:29:06.999Z</time></trkpt><trkpt lat="44.35041014832535" lon="10.882296358746913"><ele>513.0</ele><time>2026-04-06T08:29:07.999Z</time></trkpt><trkpt lat="44.35048656835665" lon="10.882322982905567"><ele>513.0</ele><time>2026-04-06T08:29:08.999Z</time></trkpt><trkpt lat="44.350590134443955" lon="10.882231325865495"><ele>513.0</ele><time>2026-04-06T08:29:10.999Z</time></trkpt><trkpt lat="44.35067790865805" lon="10.882163538408019"><ele>513.0</ele><time>2026-04-06T08:29:11.999Z</time></trkpt><trkpt lat="44.35074978466125" lon="10.882140253275967"><ele>512.3333333333334</ele><time>2026-04-06T08:29:12.999Z</time></trkpt><trkpt lat="44.350857155695074" lon="10.882109498595751"><ele>511.66666666666663</ele><time>2026-04-06T08:29:14.999Z</time></trkpt><trkpt lat="44.35093198825146" lon="10.882096831151939"><ele>511.0</ele><time>2026-04-06T08:29:15.999Z</time></trkpt><trkpt lat="44.35100338692188" lon="10.882106251294283"><ele>510.3333333333333</ele><time>2026-04-06T08:29:17.999Z</time></trkpt><trkpt lat="44.35093614186413" lon="10.882095177777709"><ele>509.66666666666663</ele><time>2026-04-06T08:29:23.999Z</time></trkpt><trkpt lat="44.350974990478704" lon="10.882012058790313"><ele>509.0</ele><time>2026-04-06T08:29:33.999Z</time></trkpt><trkpt lat="44.35103626951797" lon="10.881956488948125"><ele>509.0</ele><time>2026-04-06T08:29:35.999Z</time></trkpt><trkpt lat="44.351118047630884" lon="10.8818753498789"><ele>509.0</ele><time>2026-04-06T08:29:37.999Z</time></trkpt><trkpt lat="44.351170758198656" lon="10.881760971835961"><ele>509.0</ele><time>2026-04-06T08:29:40Z</time></trkpt><trkpt lat="44.35119865148297" lon="10.881640202590729"><ele>509.0</ele><time>2026-04-06T08:29:42Z</time></trkpt><trkpt lat="44.35117452542429" lon="10.881522005487271"><ele>509.0</ele><time>2026-04-06T08:29:44Z</time></trkpt><trkpt lat="44.35123490743761" lon="10.88137892734382"><ele>514.2</ele><time>2026-04-06T08:29:46Z</time></trkpt><trkpt lat="44.35128494956939" lon="10.881309227350394"><ele>519.4</ele><time>2026-04-06T08:29:47Z</time></trkpt><trkpt lat="44.35135887315164" lon="10.881202873577713"><ele>524.6</ele><time>2026-04-06T08:29:49Z</time></trkpt><trkpt lat="44.3513738444034" lon="10.881037176943858"><ele>529.8</ele><time>2026-04-06T08:29:51Z</time></trkpt><trkpt lat="44.35138277625842" lon="10.880882579759415"><ele>535.0</ele><time>2026-04-06T08:29:53Z</time></trkpt><trkpt lat="44.351395041524675" lon="10.880730307418203"><ele>535.2</ele><time>2026-04-06T08:29:55Z</time></trkpt><trkpt lat="44.35140837998497" lon="10.880629353279174"><ele>535.4</ele><time>2026-04-06T08:29:56Z</time></trkpt><trkpt lat="44.35142849646333" lon="10.880463134309288"><ele>535.6</ele><time>2026-04-06T08:29:58Z</time></trkpt><trkpt lat="44.35143342662702" lon="10.880295676249496"><ele>535.8</ele><time>2026-04-06T08:30:00Z</time></trkpt><trkpt lat="44.35147629501207" lon="10.880144383638685"><ele>536.0</ele><time>2026-04-06T08:30:02Z</time></trkpt><trkpt lat="44.35150539010496" lon="10.880027093180564"><ele>538.3333333333333</ele><time>2026-04-06T08:30:04Z</time></trkpt><trkpt lat="44.35158256668757" lon="10.880041960741726"><ele>540.6666666666666</ele><time>2026-04-06T08:30:07Z</time></trkpt><trkpt lat="44.35164186956318" lon="10.879985700643461"><ele>543.0</ele><time>2026-04-06T08:30:09Z</time></trkpt><trkpt lat="44.351670688011765" lon="10.879855541026862"><ele>545.3333333333334</ele><time>2026-04-06T08:30:11Z</time></trkpt><trkpt lat="44.35166197356917" lon="10.879755351793342"><ele>547.6666666666667</ele><time>2026-04-06T08:30:12Z</time></trkpt><trkpt lat="44.351644545340505" lon="10.879641067106395"><ele>550.0</ele><time>2026-04-06T08:30:13Z</time></trkpt><trkpt lat="44.35159703366081" lon="10.8795539691426"><ele>550.0</ele><time>2026-04-06T08:30:15Z</time></trkpt><trkpt lat="44.35152799552565" lon="10.879539936400011"><ele>550.0</ele><time>2026-04-06T08:30:17Z</time></trkpt><trkpt lat="44.35154488432441" lon="10.879431177596508"><ele>550.0</ele><time>2026-04-06T08:30:20Z</time></trkpt><trkpt lat="44.35156010488764" lon="10.87932174672391"><ele>550.0</ele><time>2026-04-06T08:30:22Z</time></trkpt><trkpt lat="44.3516345733702" lon="10.879329235832527"><ele>550.0</ele><time>2026-04-06T08:30:25Z</time></trkpt><trkpt lat="44.351702371912936" lon="10.879338571728406"><ele>550.0</ele><time>2026-04-06T08:30:27Z</time></trkpt><trkpt lat="44.35178856527028" lon="10.879304179485702"><ele>550.0</ele><time>2026-04-06T08:30:31Z</time></trkpt><trkpt lat="44.35184484056062" lon="10.879363063402131"><ele>550.0</ele><time>2026-04-06T08:30:49.999Z</time></trkpt><trkpt lat="44.351906595944726" lon="10.879438135274842"><ele>550.0</ele><time>2026-04-06T08:30:53.999Z</time></trkpt><trkpt lat="44.351933873221256" lon="10.879530514445486"><ele>550.0</ele><time>2026-04-06T08:30:55.999Z</time></trkpt><trkpt lat="44.3519828583469" lon="10.879472862591317"><ele>550.0</ele><time>2026-04-06T08:30:58.999Z</time></trkpt><trkpt lat="44.35196975933324" lon="10.879383538725659"><ele>550.0</ele><time>2026-04-06T08:31:00.999Z</time></trkpt><trkpt lat="44.3519582478902" lon="10.879280605734886"><ele>550.0</ele><time>2026-04-06T08:31:02.999Z</time></trkpt><trkpt lat="44.35193118489493" lon="10.879151772025088"><ele>551.6</ele><time>2026-04-06T08:31:04.999Z</time></trkpt><trkpt lat="44.35188194041476" lon="10.879039302134673"><ele>553.2</ele><time>2026-04-06T08:31:06.999Z</time></trkpt><trkpt lat="44.351885325755234" lon="10.878897613693733"><ele>554.8</ele><time>2026-04-06T08:31:08.999Z</time></trkpt><trkpt lat="44.35190040283918" lon="10.8787930784149"><ele>556.4</ele><time>2026-04-06T08:31:09.999Z</time></trkpt><trkpt lat="44.35189953368859" lon="10.878649094156627"><ele>558.0</ele><time>2026-04-06T08:31:11.999Z</time></trkpt><trkpt lat="44.351875305920615" lon="10.87850228307623"><ele>557.6666666666666</ele><time>2026-04-06T08:31:13.999Z</time></trkpt><trkpt lat="44.35184875409574" lon="10.878387018094955"><ele>557.3333333333334</ele><time>2026-04-06T08:31:15.999Z</time></trkpt><trkpt lat="44.35185729873459" lon="10.878280297621709"><ele>557.0</ele><time>2026-04-06T08:31:17.999Z</time></trkpt><trkpt lat="44.35186056833446" lon="10.878151744801983"><ele>556.6666666666667</ele><time>2026-04-06T08:31:19.999Z</time></trkpt><trkpt lat="44.35187051312804" lon="10.878063209172801"><ele>556.3333333333334</ele><time>2026-04-06T08:31:20.999Z</time></trkpt><trkpt lat="44.3519135323772" lon="10.877922190329965"><ele>556.0</ele><time>2026-04-06T08:31:22.999Z</time></trkpt><trkpt lat="44.35198760783057" lon="10.877855852818033"><ele>556.0</ele><time>2026-04-06T08:31:23.999Z</time></trkpt><trkpt lat="44.352030590255296" lon="10.877791204480463"><ele>556.0</ele><time>2026-04-06T08:31:24.999Z</time></trkpt><trkpt lat="44.35210781668618" lon="10.877683797992502"><ele>556.0</ele><time>2026-04-06T08:31:26.999Z</time></trkpt><trkpt lat="44.35214230616298" lon="10.877572358163034"><ele>556.0</ele><time>2026-04-06T08:31:28.999Z</time></trkpt><trkpt lat="44.35216536573356" lon="10.877419500862144"><ele>556.0</ele><time>2026-04-06T08:31:30.999Z</time></trkpt><trkpt lat="44.35218339572867" lon="10.87730673968731"><ele>556.4</ele><time>2026-04-06T08:31:31.999Z</time></trkpt><trkpt lat="44.35219748290356" lon="10.877197616753161"><ele>556.8</ele><time>2026-04-06T08:31:32.999Z</time></trkpt><trkpt lat="44.352236955046116" lon="10.877063931257664"><ele>557.1999999999999</ele><time>2026-04-06T08:31:34.999Z</time></trkpt><trkpt lat="44.35228447700731" lon="10.876983878457755"><ele>557.6</ele><time>2026-04-06T08:31:36.999Z</time></trkpt><trkpt lat="44.35234574530977" lon="10.8768539389795"><ele>558.0</ele><time>2026-04-06T08:31:38.999Z</time></trkpt><trkpt lat="44.35239093297584" lon="10.876742848012972"><ele>552.8333333333334</ele><time>2026-04-06T08:31:40.999Z</time></trkpt><trkpt lat="44.35242539335768" lon="10.876650715647365"><ele>547.6666666666666</ele><time>2026-04-06T08:31:42.999Z</time></trkpt><trkpt lat="44.3524552366421" lon="10.876566779403502"><ele>542.5</ele><time>2026-04-06T08:31:45Z</time></trkpt><trkpt lat="44.35249135849364" lon="10.876445834492696"><ele>537.3333333333333</ele><time>2026-04-06T08:31:48Z</time></trkpt><trkpt lat="44.35247145394206" lon="10.87632246825161"><ele>532.1666666666666</ele><time>2026-04-06T08:31:51Z</time></trkpt><trkpt lat="44.35241830799983" lon="10.876217000640677"><ele>527.0</ele><time>2026-04-06T08:31:54Z</time></trkpt><trkpt lat="44.35237901569519" lon="10.87609590374866"><ele>527.0</ele><time>2026-04-06T08:31:57Z</time></trkpt><trkpt lat="44.35237713734033" lon="10.875969137399483"><ele>527.0</ele><time>2026-04-06T08:32:00Z</time></trkpt><trkpt lat="44.35243394592809" lon="10.875860477573951"><ele>527.0</ele><time>2026-04-06T08:32:03Z</time></trkpt><trkpt lat="44.35250590143389" lon="10.87575394410022"><ele>527.0</ele><time>2026-04-06T08:32:06Z</time></trkpt><trkpt lat="44.352557254034515" lon="10.87563252074403"><ele>527.0</ele><time>2026-04-06T08:32:09Z</time></trkpt><trkpt lat="44.3525556613135" lon="10.875503903360311"><ele>525.3333333333333</ele><time>2026-04-06T08:32:11Z</time></trkpt><trkpt lat="44.35256187754516" lon="10.875382288891913"><ele>523.6666666666666</ele><time>2026-04-06T08:32:13Z</time></trkpt><trkpt lat="44.352570663049626" lon="10.875284209222793"><ele>522.0</ele><time>2026-04-06T08:32:15Z</time></trkpt><trkpt lat="44.352571380269" lon="10.875167203723759"><ele>520.3333333333334</ele><time>2026-04-06T08:32:18Z</time></trkpt><trkpt lat="44.35255622359647" lon="10.875070611377033"><ele>518.6666666666667</ele><time>2026-04-06T08:32:32Z</time></trkpt><trkpt lat="44.35258255005624" lon="10.874943254518813"><ele>517.0</ele><time>2026-04-06T08:32:34.999Z</time></trkpt><trkpt lat="44.352586824796774" lon="10.874837618194732"><ele>516.0</ele><time>2026-04-06T08:32:36.999Z</time></trkpt><trkpt lat="44.352579752186685" lon="10.874742927369928"><ele>515.0</ele><time>2026-04-06T08:32:38.999Z</time></trkpt><trkpt lat="44.35263311696341" lon="10.874689475044763"><ele>514.0</ele><time>2026-04-06T08:32:41.999Z</time></trkpt><trkpt lat="44.352706579397854" lon="10.874672732481468"><ele>513.0</ele><time>2026-04-06T08:32:44.999Z</time></trkpt><trkpt lat="44.352717719263936" lon="10.874540369380123"><ele>512.0</ele><time>2026-04-06T08:32:48.999Z</time></trkpt><trkpt lat="44.3527206097012" lon="10.87443790117261"><ele>511.0</ele><time>2026-04-06T08:32:50.999Z</time></trkpt><trkpt lat="44.35273233238619" lon="10.874335034375259"><ele>511.1666666666667</ele><time>2026-04-06T08:32:52.999Z</time></trkpt><trkpt lat="44.35274489360237" lon="10.874222840772484"><ele>511.33333333333337</ele><time>2026-04-06T08:32:54.999Z</time></trkpt><trkpt lat="44.35272491297683" lon="10.874090906657344"><ele>511.5</ele><time>2026-04-06T08:32:57.999Z</time></trkpt><trkpt lat="44.352672476650866" lon="10.87400272440652"><ele>511.66666666666663</ele><time>2026-04-06T08:32:59.999Z</time></trkpt><trkpt lat="44.35267101867293" lon="10.873864042399058"><ele>511.8333333333333</ele><time>2026-04-06T08:33:03.999Z</time></trkpt><trkpt lat="44.35270439998207" lon="10.873776209097826"><ele>512.0</ele><time>2026-04-06T08:33:05.999Z</time></trkpt><trkpt lat="44.35276066990796" lon="10.873679637066132"><ele>511.99999999999994</ele><time>2026-04-06T08:33:07.999Z</time></trkpt><trkpt lat="44.35280464922385" lon="10.873582281054674"><ele>512.0</ele><time>2026-04-06T08:33:09.999Z</time></trkpt><trkpt lat="44.35281286160005" lon="10.873415408265593"><ele>512.0</ele><time>2026-04-06T08:33:11.999Z</time></trkpt><trkpt lat="44.352799933973984" lon="10.87330560933558"><ele>512.0</ele><time>2026-04-06T08:33:13.999Z</time></trkpt><trkpt lat="44.35274668545209" lon="10.873248814240963"><ele>511.99999999999994</ele><time>2026-04-06T08:33:14.999Z</time></trkpt><trkpt lat="44.35267574857797" lon="10.87316153478817"><ele>512.0</ele><time>2026-04-06T08:33:16.999Z</time></trkpt><trkpt lat="44.35264955172745" lon="10.873072657385759"><ele>512.5</ele><time>2026-04-06T08:33:18.999Z</time></trkpt><trkpt lat="44.35265423684303" lon="10.872961662309601"><ele>513.0</ele><time>2026-04-06T08:33:21.999Z</time></trkpt><trkpt lat="44.352689652361256" lon="10.872870842743565"><ele>513.5</ele><time>2026-04-06T08:33:23.999Z</time></trkpt><trkpt lat="44.35276850587949" lon="10.872925269160957"><ele>514.0</ele><time>2026-04-06T08:33:26.999Z</time></trkpt><trkpt lat="44.35281704918074" lon="10.8729847499025"><ele>514.5</ele><time>2026-04-06T08:33:27.999Z</time></trkpt><trkpt lat="44.352891671864604" lon="10.872987238080666"><ele>515.0</ele><time>2026-04-06T08:33:30.999Z</time></trkpt><trkpt lat="44.3529718237692" lon="10.872933883712278"><ele>515.0</ele><time>2026-04-06T08:33:32.999Z</time></trkpt><trkpt lat="44.352976652316514" lon="10.872788687190301"><ele>515.0</ele><time>2026-04-06T08:33:35.999Z</time></trkpt><trkpt lat="44.353006889469334" lon="10.872626244480019"><ele>515.0</ele><time>2026-04-06T08:33:37.999Z</time></trkpt><trkpt lat="44.35308508044203" lon="10.872598912324523"><ele>515.0</ele><time>2026-04-06T08:33:39.999Z</time></trkpt><trkpt lat="44.35315050639168" lon="10.872581250479437"><ele>515.0</ele><time>2026-04-06T08:33:40.999Z</time></trkpt><trkpt lat="44.35322568859067" lon="10.872541286503017"><ele>516.6666666666666</ele><time>2026-04-06T08:33:41.999Z</time></trkpt><trkpt lat="44.35329792074193" lon="10.87252157734514"><ele>518.3333333333333</ele><time>2026-04-06T08:33:42.999Z</time></trkpt><trkpt lat="44.35336504619543" lon="10.872513039450839"><ele>520.0</ele><time>2026-04-06T08:33:43.999Z</time></trkpt><trkpt lat="44.35343521372772" lon="10.87250071446656"><ele>521.6666666666666</ele><time>2026-04-06T08:33:44.998Z</time></trkpt><trkpt lat="44.35349756951668" lon="10.872357352760682"><ele>523.3333333333334</ele><time>2026-04-06T08:33:47.998Z</time></trkpt><trkpt lat="44.353544627382654" lon="10.872246802771045"><ele>525.0</ele><time>2026-04-06T08:33:50Z</time></trkpt><trkpt lat="44.3535543109129" lon="10.87210132174366"><ele>525.0</ele><time>2026-04-06T08:33:52Z</time></trkpt><trkpt lat="44.353531645007244" lon="10.871962095325229"><ele>525.0</ele><time>2026-04-06T08:33:54Z</time></trkpt><trkpt lat="44.353520785456425" lon="10.871868562718964"><ele>525.0</ele><time>2026-04-06T08:33:55Z</time></trkpt><trkpt lat="44.353480899566776" lon="10.871708727516346"><ele>525.0</ele><time>2026-04-06T08:33:57Z</time></trkpt><trkpt lat="44.353470376910586" lon="10.871533069990694"><ele>525.0</ele><time>2026-04-06T08:33:59Z</time></trkpt><trkpt lat="44.35340407062292" lon="10.87140577350819"><ele>527.6</ele><time>2026-04-06T08:34:01Z</time></trkpt><trkpt lat="44.353452527423066" lon="10.871284045864279"><ele>530.2</ele><time>2026-04-06T08:34:04Z</time></trkpt><trkpt lat="44.353501900284755" lon="10.87121943403099"><ele>532.8</ele><time>2026-04-06T08:34:05Z</time></trkpt><trkpt lat="44.35357606327055" lon="10.871130868096463"><ele>535.4</ele><time>2026-04-06T08:34:07Z</time></trkpt><trkpt lat="44.3536480275575" lon="10.871079696789879"><ele>538.0</ele><time>2026-04-06T08:34:09Z</time></trkpt><trkpt lat="44.3536630936988" lon="10.870928106747034"><ele>540.4</ele><time>2026-04-06T08:34:12Z</time></trkpt><trkpt lat="44.353689716410834" lon="10.87082110449417"><ele>542.8</ele><time>2026-04-06T08:34:14Z</time></trkpt><trkpt lat="44.35378024882987" lon="10.870781956061661"><ele>545.2</ele><time>2026-04-06T08:34:16Z</time></trkpt><trkpt lat="44.35385223184532" lon="10.87083388847883"><ele>547.6</ele><time>2026-04-06T08:34:18Z</time></trkpt><trkpt lat="44.35396811879456" lon="10.870968062784005"><ele>550.0</ele><time>2026-04-06T08:34:20Z</time></trkpt><trkpt lat="44.354022437533075" lon="10.871035809712533"><ele>551.2</ele><time>2026-04-06T08:34:21Z</time></trkpt><trkpt lat="44.35413002119841" lon="10.871138156368573"><ele>552.4</ele><time>2026-04-06T08:34:23Z</time></trkpt><trkpt lat="44.35419003043581" lon="10.871269123961536"><ele>553.6</ele><time>2026-04-06T08:34:25Z</time></trkpt><trkpt lat="44.35420719291888" lon="10.871391907981609"><ele>554.8</ele><time>2026-04-06T08:34:27Z</time></trkpt><trkpt lat="44.35428579693416" lon="10.8713479328698"><ele>556.0</ele><time>2026-04-06T08:34:29Z</time></trkpt><trkpt lat="44.35432829487646" lon="10.871182699344496"><ele>556.0</ele><time>2026-04-06T08:34:31Z</time></trkpt><trkpt lat="44.354378171133646" lon="10.87109600316939"><ele>556.0</ele><time>2026-04-06T08:34:32Z</time></trkpt><trkpt lat="44.354449342772774" lon="10.871035049572617"><ele>556.0</ele><time>2026-04-06T08:34:33Z</time></trkpt><trkpt lat="44.35452856917839" lon="10.870950523301245"><ele>556.0</ele><time>2026-04-06T08:34:34Z</time></trkpt><trkpt lat="44.354606153600436" lon="10.870842478699956"><ele>556.0</ele><time>2026-04-06T08:34:35Z</time></trkpt><trkpt lat="44.35465573480755" lon="10.870718314655512"><ele>558.3333333333334</ele><time>2026-04-06T08:34:36Z</time></trkpt><trkpt lat="44.35468024342442" lon="10.87062817228689"><ele>560.6666666666667</ele><time>2026-04-06T08:34:37Z</time></trkpt><trkpt lat="44.35470067715595" lon="10.870535832562089"><ele>563.0</ele><time>2026-04-06T08:34:37.999Z</time></trkpt><trkpt lat="44.35472357711123" lon="10.870425685382038"><ele>565.3333333333334</ele><time>2026-04-06T08:34:38.999Z</time></trkpt><trkpt lat="44.35473899586535" lon="10.870318810738576"><ele>567.6666666666666</ele><time>2026-04-06T08:34:39.999Z</time></trkpt><trkpt lat="44.354785940146165" lon="10.870180693132848"><ele>570.0</ele><time>2026-04-06T08:34:41.999Z</time></trkpt><trkpt lat="44.354854019614244" lon="10.870125893034926"><ele>575.6</ele><time>2026-04-06T08:34:42.999Z</time></trkpt><trkpt lat="44.35491862782796" lon="10.870055181559993"><ele>581.2</ele><time>2026-04-06T08:34:43.999Z</time></trkpt><trkpt lat="44.35500624321052" lon="10.869972370962572"><ele>586.8</ele><time>2026-04-06T08:34:44.999Z</time></trkpt><trkpt lat="44.35507309934767" lon="10.869917459438147"><ele>592.4</ele><time>2026-04-06T08:34:45.999Z</time></trkpt><trkpt lat="44.35521690320494" lon="10.869919714587002"><ele>598.0</ele><time>2026-04-06T08:34:47.999Z</time></trkpt><trkpt lat="44.35528888706372" lon="10.869945496202039"><ele>598.0</ele><time>2026-04-06T08:34:48.999Z</time></trkpt><trkpt lat="44.35537711754624" lon="10.869943720600586"><ele>598.0</ele><time>2026-04-06T08:34:49.999Z</time></trkpt><trkpt lat="44.35548764656332" lon="10.869938663567124"><ele>598.0</ele><time>2026-04-06T08:34:50.999Z</time></trkpt><trkpt lat="44.35556047466978" lon="10.869966967869297"><ele>598.0</ele><time>2026-04-06T08:34:51.999Z</time></trkpt><trkpt lat="44.35562232564312" lon="10.869997075244346"><ele>598.0</ele><time>2026-04-06T08:34:52.999Z</time></trkpt><trkpt lat="44.35571174979819" lon="10.870020762574491"><ele>598.0</ele><time>2026-04-06T08:34:53.999Z</time></trkpt><trkpt lat="44.35579641095653" lon="10.87002406821814"><ele>599.8333333333334</ele><time>2026-04-06T08:34:54.999Z</time></trkpt><trkpt lat="44.35587701340216" lon="10.87002883585479"><ele>601.6666666666667</ele><time>2026-04-06T08:34:55.999Z</time></trkpt><trkpt lat="44.35594682438659" lon="10.870049139929682"><ele>603.5</ele><time>2026-04-06T08:34:56.999Z</time></trkpt><trkpt lat="44.35601331549429" lon="10.870057835804724"><ele>605.3333333333334</ele><time>2026-04-06T08:34:57.999Z</time></trkpt><trkpt lat="44.35610281917836" lon="10.870048836609222"><ele>607.1666666666666</ele><time>2026-04-06T08:34:58.999Z</time></trkpt><trkpt lat="44.35619542978504" lon="10.870020754927864"><ele>609.0</ele><time>2026-04-06T08:34:59.999Z</time></trkpt><trkpt lat="44.356271038782054" lon="10.869998668542848"><ele>609.0</ele><time>2026-04-06T08:35:00.999Z</time></trkpt><trkpt lat="44.356351877230516" lon="10.870005963048461"><ele>609.0</ele><time>2026-04-06T08:35:01.999Z</time></trkpt><trkpt lat="44.35643015401325" lon="10.870019957880327"><ele>609.0</ele><time>2026-04-06T08:35:02.999Z</time></trkpt><trkpt lat="44.35652094036697" lon="10.870041150341075"><ele>609.0</ele><time>2026-04-06T08:35:03.999Z</time></trkpt><trkpt lat="44.35659075200163" lon="10.870028301583025"><ele>609.0</ele><time>2026-04-06T08:35:04.999Z</time></trkpt><trkpt lat="44.35667323742835" lon="10.870017794743447"><ele>609.0</ele><time>2026-04-06T08:35:05.999Z</time></trkpt><trkpt lat="44.356750135079146" lon="10.870016314313753"><ele>607.3333333333334</ele><time>2026-04-06T08:35:06.999Z</time></trkpt><trkpt lat="44.35684791743274" lon="10.870028965633539"><ele>605.6666666666666</ele><time>2026-04-06T08:35:07.999Z</time></trkpt><trkpt lat="44.3569210602951" lon="10.870050343619498"><ele>604.0</ele><time>2026-04-06T08:35:08.999Z</time></trkpt><trkpt lat="44.357023401390066" lon="10.870075668139918"><ele>602.3333333333333</ele><time>2026-04-06T08:35:09.999Z</time></trkpt><trkpt lat="44.35710008898269" lon="10.870083440944386"><ele>600.6666666666666</ele><time>2026-04-06T08:35:10.999Z</time></trkpt><trkpt lat="44.35718645529678" lon="10.870085226465362"><ele>599.0</ele><time>2026-04-06T08:35:11.999Z</time></trkpt><trkpt lat="44.3572492088548" lon="10.870073311423818"><ele>598.0</ele><time>2026-04-06T08:35:12.999Z</time></trkpt><trkpt lat="44.357342225505" lon="10.870020217894927"><ele>597.0</ele><time>2026-04-06T08:35:13.999Z</time></trkpt><trkpt lat="44.357417733080766" lon="10.869957527341592"><ele>596.0</ele><time>2026-04-06T08:35:14.999Z</time></trkpt><trkpt lat="44.357522098525905" lon="10.869875197543408"><ele>595.0</ele><time>2026-04-06T08:35:15.999Z</time></trkpt><trkpt lat="44.357622555959374" lon="10.869822199359957"><ele>594.0</ele><time>2026-04-06T08:35:16.999Z</time></trkpt><trkpt lat="44.35771239505239" lon="10.869774685824291"><ele>594.0</ele><time>2026-04-06T08:35:17.999Z</time></trkpt><trkpt lat="44.357778489469005" lon="10.869727632660599"><ele>594.0</ele><time>2026-04-06T08:35:18.999Z</time></trkpt><trkpt lat="44.357827179763554" lon="10.869657587641079"><ele>594.0</ele><time>2026-04-06T08:35:19.999Z</time></trkpt><trkpt lat="44.3578326473439" lon="10.869568893770305"><ele>594.0</ele><time>2026-04-06T08:35:20.999Z</time></trkpt><trkpt lat="44.3578189178687" lon="10.86946341817165"><ele>594.0</ele><time>2026-04-06T08:35:21.999Z</time></trkpt><trkpt lat="44.35780180440013" lon="10.869328963072691"><ele>594.0</ele><time>2026-04-06T08:35:22.999Z</time></trkpt><trkpt lat="44.35780283803766" lon="10.869214915293464"><ele>594.8333333333334</ele><time>2026-04-06T08:35:23.999Z</time></trkpt><trkpt lat="44.3578259884671" lon="10.869089082574261"><ele>595.6666666666666</ele><time>2026-04-06T08:35:24.999Z</time></trkpt><trkpt lat="44.35786623122884" lon="10.868992271994438"><ele>596.5</ele><time>2026-04-06T08:35:25.999Z</time></trkpt><trkpt lat="44.357923503347436" lon="10.868923236734483"><ele>597.3333333333333</ele><time>2026-04-06T08:35:26.999Z</time></trkpt><trkpt lat="44.35799525230969" lon="10.868848974967172"><ele>598.1666666666666</ele><time>2026-04-06T08:35:27.999Z</time></trkpt><trkpt lat="44.35807431541273" lon="10.868770212629848"><ele>599.0</ele><time>2026-04-06T08:35:28.999Z</time></trkpt><trkpt lat="44.35818468799411" lon="10.868726356015769"><ele>599.0</ele><time>2026-04-06T08:35:29.999Z</time></trkpt><trkpt lat="44.35825760462724" lon="10.86868984105912"><ele>599.0</ele><time>2026-04-06T08:35:30.999Z</time></trkpt><trkpt lat="44.35834692892255" lon="10.868610254605835"><ele>599.0</ele><time>2026-04-06T08:35:31.999Z</time></trkpt><trkpt lat="44.35841778638027" lon="10.868552540400595"><ele>599.0</ele><time>2026-04-06T08:35:32.999Z</time></trkpt><trkpt lat="44.35848222637685" lon="10.868445413922945"><ele>599.0</ele><time>2026-04-06T08:35:33.999Z</time></trkpt><trkpt lat="44.35856671264827" lon="10.868309946402242"><ele>600.5</ele><time>2026-04-06T08:35:34.999Z</time></trkpt><trkpt lat="44.35866551509858" lon="10.868198238331564"><ele>602.0</ele><time>2026-04-06T08:35:35.999Z</time></trkpt><trkpt lat="44.35878758042651" lon="10.868108735134502"><ele>603.5</ele><time>2026-04-06T08:35:36.999Z</time></trkpt><trkpt lat="44.35890127396328" lon="10.868008904812559"><ele>605.0</ele><time>2026-04-06T08:35:37.999Z</time></trkpt><trkpt lat="44.35898671723579" lon="10.867912559001594"><ele>605.0</ele><time>2026-04-06T08:35:38.999Z</time></trkpt><trkpt lat="44.3590835064979" lon="10.867797125080976"><ele>605.0</ele><time>2026-04-06T08:35:39.999Z</time></trkpt><trkpt lat="44.359198739576975" lon="10.867694177653048"><ele>605.0</ele><time>2026-04-06T08:35:40.999Z</time></trkpt><trkpt lat="44.35933809899333" lon="10.86760641726737"><ele>605.0</ele><time>2026-04-06T08:35:41.999Z</time></trkpt><trkpt lat="44.35948288127561" lon="10.867507351923058"><ele>608.0</ele><time>2026-04-06T08:35:42.999Z</time></trkpt><trkpt lat="44.359629469288926" lon="10.867405501933"><ele>611.0</ele><time>2026-04-06T08:35:43.999Z</time></trkpt><trkpt lat="44.359751569866035" lon="10.867322235497282"><ele>614.0</ele><time>2026-04-06T08:35:44.999Z</time></trkpt><trkpt lat="44.35986331773437" lon="10.86724477453611"><ele>617.0</ele><time>2026-04-06T08:35:45.999Z</time></trkpt><trkpt lat="44.35996870896839" lon="10.867183424678364"><ele>617.0</ele><time>2026-04-06T08:35:46.999Z</time></trkpt><trkpt lat="44.36006458517657" lon="10.867152989186684"><ele>617.0</ele><time>2026-04-06T08:35:47.998Z</time></trkpt><trkpt lat="44.36014969268892" lon="10.867189169346677"><ele>617.0</ele><time>2026-04-06T08:35:48.998Z</time></trkpt><trkpt lat="44.36024413315986" lon="10.867242042195056"><ele>617.0</ele><time>2026-04-06T08:35:49.998Z</time></trkpt><trkpt lat="44.36034334745545" lon="10.867283649907963"><ele>617.0</ele><time>2026-04-06T08:35:50.998Z</time></trkpt><trkpt lat="44.360434612081335" lon="10.867322832276521"><ele>617.0</ele><time>2026-04-06T08:35:51.998Z</time></trkpt><trkpt lat="44.36053271905782" lon="10.867313354126024"><ele>617.0</ele><time>2026-04-06T08:35:52.998Z</time></trkpt><trkpt lat="44.3606361439285" lon="10.867309459464611"><ele>617.0</ele><time>2026-04-06T08:35:53.998Z</time></trkpt><trkpt lat="44.3607385983747" lon="10.867305424585599"><ele>617.0</ele><time>2026-04-06T08:35:54.998Z</time></trkpt><trkpt lat="44.360840011350604" lon="10.86729750539995"><ele>617.0</ele><time>2026-04-06T08:35:56Z</time></trkpt><trkpt lat="44.36095168239604" lon="10.867287887513948"><ele>618.75</ele><time>2026-04-06T08:35:57Z</time></trkpt><trkpt lat="44.3610599170033" lon="10.867275935680778"><ele>620.5</ele><time>2026-04-06T08:35:58Z</time></trkpt><trkpt lat="44.361176800837484" lon="10.867250435182877"><ele>622.25</ele><time>2026-04-06T08:35:59Z</time></trkpt><trkpt lat="44.36129306005157" lon="10.867220822855453"><ele>624.0</ele><time>2026-04-06T08:36:00Z</time></trkpt><trkpt lat="44.36141428346692" lon="10.867198321960405"><ele>624.75</ele><time>2026-04-06T08:36:01Z</time></trkpt><trkpt lat="44.36152167060444" lon="10.867174068575013"><ele>625.5</ele><time>2026-04-06T08:36:02Z</time></trkpt><trkpt lat="44.361645451699964" lon="10.867141429863482"><ele>626.25</ele><time>2026-04-06T08:36:03Z</time></trkpt><trkpt lat="44.36177236529653" lon="10.8671150336768"><ele>627.0</ele><time>2026-04-06T08:36:04Z</time></trkpt><trkpt lat="44.361898636202234" lon="10.867085377569426"><ele>627.0</ele><time>2026-04-06T08:36:05Z</time></trkpt><trkpt lat="44.36201371034637" lon="10.867061654986385"><ele>627.0</ele><time>2026-04-06T08:36:06Z</time></trkpt><trkpt lat="44.362137353413985" lon="10.867034823301049"><ele>627.0</ele><time>2026-04-06T08:36:07Z</time></trkpt><trkpt lat="44.3622648257449" lon="10.867004556349244"><ele>627.0</ele><time>2026-04-06T08:36:08Z</time></trkpt><trkpt lat="44.362380646272705" lon="10.866978710455573"><ele>627.0</ele><time>2026-04-06T08:36:09Z</time></trkpt><trkpt lat="44.36249005321648" lon="10.866980214172903"><ele>627.0</ele><time>2026-04-06T08:36:10Z</time></trkpt><trkpt lat="44.3626033778199" lon="10.866961094663715"><ele>627.0</ele><time>2026-04-06T08:36:11Z</time></trkpt><trkpt lat="44.362722747805165" lon="10.86699172630739"><ele>627.0</ele><time>2026-04-06T08:36:12Z</time></trkpt><trkpt lat="44.36283659945912" lon="10.866990378293526"><ele>627.0</ele><time>2026-04-06T08:36:13Z</time></trkpt><trkpt lat="44.362932566045615" lon="10.8670051746914"><ele>627.0</ele><time>2026-04-06T08:36:14Z</time></trkpt><trkpt lat="44.36302520393015" lon="10.867013269459834"><ele>627.0</ele><time>2026-04-06T08:36:15Z</time></trkpt><trkpt lat="44.36311943143817" lon="10.867026509353499"><ele>627.0</ele><time>2026-04-06T08:36:16Z</time></trkpt><trkpt lat="44.363200892000656" lon="10.867037541712053"><ele>627.0</ele><time>2026-04-06T08:36:17Z</time></trkpt><trkpt lat="44.36329053116395" lon="10.867051599120101"><ele>626.6</ele><time>2026-04-06T08:36:18Z</time></trkpt><trkpt lat="44.3633790237953" lon="10.867063340848748"><ele>626.2</ele><time>2026-04-06T08:36:19Z</time></trkpt><trkpt lat="44.36347970561792" lon="10.867058778044997"><ele>625.8</ele><time>2026-04-06T08:36:20Z</time></trkpt><trkpt lat="44.36358001227428" lon="10.867051283489333"><ele>625.4</ele><time>2026-04-06T08:36:21Z</time></trkpt><trkpt lat="44.36367142533963" lon="10.867017242173175"><ele>625.0</ele><time>2026-04-06T08:36:22Z</time></trkpt><trkpt lat="44.36377222278478" lon="10.866942004219563"><ele>625.0</ele><time>2026-04-06T08:36:23Z</time></trkpt><trkpt lat="44.36384403426612" lon="10.86685472792503"><ele>625.0</ele><time>2026-04-06T08:36:24Z</time></trkpt><trkpt lat="44.36391247316979" lon="10.866813864613384"><ele>625.0</ele><time>2026-04-06T08:36:25Z</time></trkpt><trkpt lat="44.364025270527385" lon="10.866759675413496"><ele>625.0</ele><time>2026-04-06T08:36:26Z</time></trkpt><trkpt lat="44.36410887272669" lon="10.866730873355346"><ele>625.0</ele><time>2026-04-06T08:36:27Z</time></trkpt><trkpt lat="44.36420366626386" lon="10.86674382460649"><ele>627.2</ele><time>2026-04-06T08:36:28Z</time></trkpt><trkpt lat="44.3643067916385" lon="10.866728898844261"><ele>629.4</ele><time>2026-04-06T08:36:29Z</time></trkpt><trkpt lat="44.36441666601503" lon="10.86674373511936"><ele>631.6</ele><time>2026-04-06T08:36:30Z</time></trkpt><trkpt lat="44.364527970937296" lon="10.866758977272498"><ele>633.8</ele><time>2026-04-06T08:36:31Z</time></trkpt><trkpt lat="44.364644763860056" lon="10.866777220447501"><ele>636.0</ele><time>2026-04-06T08:36:32Z</time></trkpt><trkpt lat="44.364761614546765" lon="10.866789861082312"><ele>636.0</ele><time>2026-04-06T08:36:33Z</time></trkpt><trkpt lat="44.36485227069108" lon="10.866791910845514"><ele>636.0</ele><time>2026-04-06T08:36:34Z</time></trkpt><trkpt lat="44.36494002594601" lon="10.866799829049533"><ele>636.0</ele><time>2026-04-06T08:36:35Z</time></trkpt><trkpt lat="44.36501590950212" lon="10.86678963693299"><ele>636.0</ele><time>2026-04-06T08:36:35.999Z</time></trkpt><trkpt lat="44.365108386563165" lon="10.866800318784671"><ele>636.0</ele><time>2026-04-06T08:36:37.999Z</time></trkpt><trkpt lat="44.36510398271822" lon="10.866911386172868"><ele>636.0</ele><time>2026-04-06T08:36:39.999Z</time></trkpt><trkpt lat="44.36507456393717" lon="10.867037112840842"><ele>636.0</ele><time>2026-04-06T08:36:40.999Z</time></trkpt><trkpt lat="44.365035348688316" lon="10.867178618781429"><ele>636.0</ele><time>2026-04-06T08:36:41.999Z</time></trkpt><trkpt lat="44.36500183094237" lon="10.86736442781418"><ele>636.0</ele><time>2026-04-06T08:36:42.999Z</time></trkpt><trkpt lat="44.36498101880285" lon="10.8675729287096"><ele>636.0</ele><time>2026-04-06T08:36:43.999Z</time></trkpt><trkpt lat="44.36495782830986" lon="10.86779266014343"><ele>633.3333333333334</ele><time>2026-04-06T08:36:44.999Z</time></trkpt><trkpt lat="44.364928450421935" lon="10.868018479164258"><ele>630.6666666666667</ele><time>2026-04-06T08:36:45.999Z</time></trkpt><trkpt lat="44.364905677764725" lon="10.868219425712436"><ele>628.0</ele><time>2026-04-06T08:36:46.999Z</time></trkpt><trkpt lat="44.36490421509239" lon="10.86844605358042"><ele>627.0</ele><time>2026-04-06T08:36:47.999Z</time></trkpt><trkpt lat="44.3649138681611" lon="10.868649625186407"><ele>626.0</ele><time>2026-04-06T08:36:48.999Z</time></trkpt><trkpt lat="44.364926107186115" lon="10.868868909411079"><ele>625.0</ele><time>2026-04-06T08:36:49.999Z</time></trkpt><trkpt lat="44.36493505669664" lon="10.869103602671254"><ele>625.75</ele><time>2026-04-06T08:36:50.999Z</time></trkpt><trkpt lat="44.36493300288476" lon="10.869305606981431"><ele>626.5</ele><time>2026-04-06T08:36:51.999Z</time></trkpt><trkpt lat="44.364941147787476" lon="10.86951479741532"><ele>627.25</ele><time>2026-04-06T08:36:52.999Z</time></trkpt><trkpt lat="44.36495498163176" lon="10.869697062802295"><ele>628.0</ele><time>2026-04-06T08:36:53.999Z</time></trkpt><trkpt lat="44.36498929922233" lon="10.86989509570227"><ele>628.0</ele><time>2026-04-06T08:36:54.999Z</time></trkpt><trkpt lat="44.3650569521093" lon="10.870065644069951"><ele>628.0</ele><time>2026-04-06T08:36:55.999Z</time></trkpt><trkpt lat="44.365149730960525" lon="10.870243097711061"><ele>628.0</ele><time>2026-04-06T08:36:56.999Z</time></trkpt><trkpt lat="44.36524078507962" lon="10.870438279234595"><ele>627.0</ele><time>2026-04-06T08:36:57.999Z</time></trkpt><trkpt lat="44.36530645945774" lon="10.870646127456558"><ele>626.0</ele><time>2026-04-06T08:36:58.999Z</time></trkpt><trkpt lat="44.36535439593295" lon="10.87085397360582"><ele>625.0</ele><time>2026-04-06T08:36:59.999Z</time></trkpt><trkpt lat="44.36538626118466" lon="10.871032054850748"><ele>624.4</ele><time>2026-04-06T08:37:00.999Z</time></trkpt><trkpt lat="44.3654197334442" lon="10.871199685922916"><ele>623.8</ele><time>2026-04-06T08:37:01.999Z</time></trkpt><trkpt lat="44.36545586349562" lon="10.871355596852469"><ele>623.2</ele><time>2026-04-06T08:37:02.999Z</time></trkpt><trkpt lat="44.3654917091921" lon="10.871490892460676"><ele>622.6</ele><time>2026-04-06T08:37:03.999Z</time></trkpt><trkpt lat="44.36553017666882" lon="10.87160910091759"><ele>622.0</ele><time>2026-04-06T08:37:04.999Z</time></trkpt><trkpt lat="44.365538212284946" lon="10.871727618966625"><ele>620.0</ele><time>2026-04-06T08:37:05.999Z</time></trkpt><trkpt lat="44.365752784524766" lon="10.871830075358604"><ele>618.0</ele><time>2026-04-06T08:37:07.999Z</time></trkpt><trkpt lat="44.365865860734864" lon="10.871871715534843"><ele>616.0</ele><time>2026-04-06T08:37:08.999Z</time></trkpt><trkpt lat="44.36597276755669" lon="10.871890536094805"><ele>616.0</ele><time>2026-04-06T08:37:09.999Z</time></trkpt><trkpt lat="44.3660930889081" lon="10.871907879457078"><ele>616.0</ele><time>2026-04-06T08:37:10.999Z</time></trkpt><trkpt lat="44.36620653858447" lon="10.871951635383295"><ele>616.0</ele><time>2026-04-06T08:37:11.999Z</time></trkpt><trkpt lat="44.366317649207836" lon="10.871970341606529"><ele>616.0</ele><time>2026-04-06T08:37:12.999Z</time></trkpt><trkpt lat="44.366430695049395" lon="10.871987335176238"><ele>612.75</ele><time>2026-04-06T08:37:13.999Z</time></trkpt><trkpt lat="44.36653945259867" lon="10.871992106056378"><ele>609.5</ele><time>2026-04-06T08:37:14.999Z</time></trkpt><trkpt lat="44.366668518126346" lon="10.871948473178293"><ele>606.25</ele><time>2026-04-06T08:37:15.999Z</time></trkpt><trkpt lat="44.36678809686112" lon="10.871919350069204"><ele>603.0</ele><time>2026-04-06T08:37:16.999Z</time></trkpt><trkpt lat="44.36690646412903" lon="10.871895410445383"><ele>603.0</ele><time>2026-04-06T08:37:17.999Z</time></trkpt><trkpt lat="44.36703122765589" lon="10.871888806464833"><ele>603.0</ele><time>2026-04-06T08:37:18.999Z</time></trkpt><trkpt lat="44.36716494595378" lon="10.871898923689383"><ele>603.0</ele><time>2026-04-06T08:37:19.999Z</time></trkpt><trkpt lat="44.36731992551308" lon="10.871950440824566"><ele>603.0</ele><time>2026-04-06T08:37:20.999Z</time></trkpt><trkpt lat="44.3674552772949" lon="10.871966237066347"><ele>602.1999999999999</ele><time>2026-04-06T08:37:21.999Z</time></trkpt><trkpt lat="44.36757680626628" lon="10.871994164780384"><ele>601.4</ele><time>2026-04-06T08:37:22.999Z</time></trkpt><trkpt lat="44.367688260422504" lon="10.872021085641526"><ele>600.5999999999999</ele><time>2026-04-06T08:37:23.999Z</time></trkpt><trkpt lat="44.367795841116134" lon="10.872050666400094"><ele>599.8</ele><time>2026-04-06T08:37:24.999Z</time></trkpt><trkpt lat="44.36789074744202" lon="10.87208911847245"><ele>599.0</ele><time>2026-04-06T08:37:25.999Z</time></trkpt><trkpt lat="44.36798594495695" lon="10.872135016143398"><ele>597.25</ele><time>2026-04-06T08:37:26.999Z</time></trkpt><trkpt lat="44.36810542233509" lon="10.872202436294577"><ele>595.5</ele><time>2026-04-06T08:37:27.999Z</time></trkpt><trkpt lat="44.36821742451102" lon="10.872256604967413"><ele>593.75</ele><time>2026-04-06T08:37:28.999Z</time></trkpt><trkpt lat="44.36832523147209" lon="10.872298118914244"><ele>592.0</ele><time>2026-04-06T08:37:29.999Z</time></trkpt><trkpt lat="44.368426867531724" lon="10.872349759701025"><ele>592.0</ele><time>2026-04-06T08:37:30.999Z</time></trkpt><trkpt lat="44.36853090531784" lon="10.872372799907604"><ele>592.0</ele><time>2026-04-06T08:37:31.999Z</time></trkpt><trkpt lat="44.36862969017129" lon="10.87239854447836"><ele>592.0</ele><time>2026-04-06T08:37:32.999Z</time></trkpt><trkpt lat="44.368734893819486" lon="10.872426377567637"><ele>592.0</ele><time>2026-04-06T08:37:33.999Z</time></trkpt><trkpt lat="44.368822914300964" lon="10.872442824860066"><ele>592.0</ele><time>2026-04-06T08:37:34.999Z</time></trkpt><trkpt lat="44.36892492455953" lon="10.872452823021362"><ele>591.5</ele><time>2026-04-06T08:37:35.999Z</time></trkpt><trkpt lat="44.36900831660917" lon="10.872482576431763"><ele>591.0</ele><time>2026-04-06T08:37:36.999Z</time></trkpt><trkpt lat="44.369102700002315" lon="10.872494393793312"><ele>590.5</ele><time>2026-04-06T08:37:37.999Z</time></trkpt><trkpt lat="44.36917759397073" lon="10.872508348172968"><ele>590.0</ele><time>2026-04-06T08:37:38.999Z</time></trkpt><trkpt lat="44.369258829636685" lon="10.872515966101878"><ele>589.5</ele><time>2026-04-06T08:37:39.999Z</time></trkpt><trkpt lat="44.36933006159979" lon="10.872560413379393"><ele>589.0</ele><time>2026-04-06T08:37:40.999Z</time></trkpt><trkpt lat="44.36940749640452" lon="10.87262759702547"><ele>587.3333333333334</ele><time>2026-04-06T08:37:41.999Z</time></trkpt><trkpt lat="44.36946347068532" lon="10.872697244812052"><ele>585.6666666666667</ele><time>2026-04-06T08:37:42.999Z</time></trkpt><trkpt lat="44.36952062063929" lon="10.872757043277968"><ele>584.0</ele><time>2026-04-06T08:37:43.999Z</time></trkpt><trkpt lat="44.369593352103884" lon="10.872792365048182"><ele>582.3333333333334</ele><time>2026-04-06T08:37:44.999Z</time></trkpt><trkpt lat="44.369664548329496" lon="10.872775130659981"><ele>580.6666666666666</ele><time>2026-04-06T08:37:45.999Z</time></trkpt><trkpt lat="44.36976122392575" lon="10.87273368545474"><ele>579.0</ele><time>2026-04-06T08:37:46.998Z</time></trkpt><trkpt lat="44.369844689169916" lon="10.872661648983357"><ele>579.0</ele><time>2026-04-06T08:37:47.998Z</time></trkpt><trkpt lat="44.36991739318516" lon="10.872593987732124"><ele>579.0</ele><time>2026-04-06T08:37:48.998Z</time></trkpt><trkpt lat="44.369976624058545" lon="10.872538865194388"><ele>579.0</ele><time>2026-04-06T08:37:49.998Z</time></trkpt><trkpt lat="44.37009409251304" lon="10.872378744247978"><ele>579.0</ele><time>2026-04-06T08:37:51.998Z</time></trkpt><trkpt lat="44.37009825649046" lon="10.87226441655788"><ele>579.0</ele><time>2026-04-06T08:37:52.998Z</time></trkpt><trkpt lat="44.37004105285616" lon="10.872152244151046"><ele>579.0</ele><time>2026-04-06T08:37:53.998Z</time></trkpt><trkpt lat="44.36993089076332" lon="10.872106077300966"><ele>579.0</ele><time>2026-04-06T08:37:54.998Z</time></trkpt><trkpt lat="44.36984755292393" lon="10.87203679313435"><ele>579.0</ele><time>2026-04-06T08:37:55.998Z</time></trkpt><trkpt lat="44.369759866003214" lon="10.871972214633754"><ele>579.0</ele><time>2026-04-06T08:37:56.998Z</time></trkpt><trkpt lat="44.36968636307467" lon="10.871917871181651"><ele>579.0</ele><time>2026-04-06T08:37:57.998Z</time></trkpt><trkpt lat="44.369614163304114" lon="10.87185970158869"><ele>579.8333333333334</ele><time>2026-04-06T08:37:58.998Z</time></trkpt><trkpt lat="44.36953758054695" lon="10.871792802993946"><ele>580.6666666666666</ele><time>2026-04-06T08:37:59.998Z</time></trkpt><trkpt lat="44.36948465155423" lon="10.871721548915172"><ele>581.5</ele><time>2026-04-06T08:38:00.998Z</time></trkpt><trkpt lat="44.36946223147624" lon="10.871607599847739"><ele>582.3333333333333</ele><time>2026-04-06T08:38:02Z</time></trkpt><trkpt lat="44.36946474726849" lon="10.871467007707105"><ele>583.1666666666666</ele><time>2026-04-06T08:38:04Z</time></trkpt><trkpt lat="44.36952894674025" lon="10.87139042923481"><ele>584.0</ele><time>2026-04-06T08:38:06Z</time></trkpt><trkpt lat="44.369611053041545" lon="10.87143629654187"><ele>581.8333333333333</ele><time>2026-04-06T08:38:07Z</time></trkpt><trkpt lat="44.36970068156398" lon="10.871473501505747"><ele>579.6666666666666</ele><time>2026-04-06T08:38:08Z</time></trkpt><trkpt lat="44.36979049013212" lon="10.871505925249263"><ele>577.5</ele><time>2026-04-06T08:38:09Z</time></trkpt><trkpt lat="44.36985801049998" lon="10.871533629842387"><ele>575.3333333333334</ele><time>2026-04-06T08:38:10Z</time></trkpt><trkpt lat="44.369949170891346" lon="10.871564449880129"><ele>573.1666666666667</ele><time>2026-04-06T08:38:11Z</time></trkpt><trkpt lat="44.37002536015656" lon="10.871549702273374"><ele>571.0</ele><time>2026-04-06T08:38:12Z</time></trkpt><trkpt lat="44.370118608744384" lon="10.871514730435734"><ele>571.0</ele><time>2026-04-06T08:38:13Z</time></trkpt><trkpt lat="44.370200217890456" lon="10.871441040308982"><ele>571.0</ele><time>2026-04-06T08:38:14Z</time></trkpt><trkpt lat="44.37031707941259" lon="10.871376748615093"><ele>571.0</ele><time>2026-04-06T08:38:15Z</time></trkpt><trkpt lat="44.370406061220685" lon="10.871309327213245"><ele>571.0</ele><time>2026-04-06T08:38:16Z</time></trkpt><trkpt lat="44.37049223692791" lon="10.87121629663433"><ele>571.0</ele><time>2026-04-06T08:38:17Z</time></trkpt><trkpt lat="44.37058222780381" lon="10.871181316363483"><ele>568.3333333333334</ele><time>2026-04-06T08:38:18Z</time></trkpt><trkpt lat="44.37066983845105" lon="10.87114849302249"><ele>565.6666666666667</ele><time>2026-04-06T08:38:19Z</time></trkpt><trkpt lat="44.37073105498642" lon="10.871177734266704"><ele>563.0</ele><time>2026-04-06T08:38:20Z</time></trkpt><trkpt lat="44.370800191055174" lon="10.871234580861051"><ele>560.3333333333334</ele><time>2026-04-06T08:38:21Z</time></trkpt><trkpt lat="44.3708660250998" lon="10.871266641113234"><ele>557.6666666666666</ele><time>2026-04-06T08:38:22Z</time></trkpt><trkpt lat="44.37092463309012" lon="10.871328751387912"><ele>555.0</ele><time>2026-04-06T08:38:23Z</time></trkpt><trkpt lat="44.370964123159716" lon="10.871419466336306"><ele>555.0</ele><time>2026-04-06T08:38:24Z</time></trkpt><trkpt lat="44.371044423448126" lon="10.871559218541375"><ele>555.0</ele><time>2026-04-06T08:38:26Z</time></trkpt><trkpt lat="44.37112552107114" lon="10.87168981278298"><ele>555.0</ele><time>2026-04-06T08:38:28Z</time></trkpt><trkpt lat="44.371191643163684" lon="10.871737562632"><ele>555.0</ele><time>2026-04-06T08:38:29Z</time></trkpt><trkpt lat="44.37131811446968" lon="10.871867184416356"><ele>554.5</ele><time>2026-04-06T08:38:31Z</time></trkpt><trkpt lat="44.371339228884466" lon="10.8719579986465"><ele>554.0</ele><time>2026-04-06T08:38:32Z</time></trkpt><trkpt lat="44.371379502309466" lon="10.872047908819532"><ele>553.5</ele><time>2026-04-06T08:38:33Z</time></trkpt><trkpt lat="44.371431017215116" lon="10.87213587446758"><ele>553.0</ele><time>2026-04-06T08:38:34Z</time></trkpt><trkpt lat="44.37147692319563" lon="10.872240765453677"><ele>552.5</ele><time>2026-04-06T08:38:35Z</time></trkpt><trkpt lat="44.37152312306424" lon="10.872336707964678"><ele>552.0</ele><time>2026-04-06T08:38:36Z</time></trkpt><trkpt lat="44.37156951149741" lon="10.872440656835789"><ele>548.6666666666666</ele><time>2026-04-06T08:38:37Z</time></trkpt><trkpt lat="44.371614233445605" lon="10.872545543490208"><ele>545.3333333333334</ele><time>2026-04-06T08:38:38Z</time></trkpt><trkpt lat="44.37166053618513" lon="10.87265129540717"><ele>542.0</ele><time>2026-04-06T08:38:39Z</time></trkpt><trkpt lat="44.37170283056564" lon="10.872737718240508"><ele>538.6666666666667</ele><time>2026-04-06T08:38:39.999Z</time></trkpt><trkpt lat="44.37176419599849" lon="10.872817825937913"><ele>535.3333333333334</ele><time>2026-04-06T08:38:40.999Z</time></trkpt><trkpt lat="44.37183671760409" lon="10.872876360874697"><ele>532.0</ele><time>2026-04-06T08:38:41.999Z</time></trkpt><trkpt lat="44.37192758200242" lon="10.872928975073881"><ele>531.2</ele><time>2026-04-06T08:38:42.999Z</time></trkpt><trkpt lat="44.37201516157276" lon="10.872966833541703"><ele>530.4000000000001</ele><time>2026-04-06T08:38:43.999Z</time></trkpt><trkpt lat="44.372123624272426" lon="10.873028881685455"><ele>529.5999999999999</ele><time>2026-04-06T08:38:44.999Z</time></trkpt><trkpt lat="44.372218891477225" lon="10.87308411484375"><ele>528.8</ele><time>2026-04-06T08:38:45.999Z</time></trkpt><trkpt lat="44.37229765643977" lon="10.873135251635182"><ele>528.0</ele><time>2026-04-06T08:38:46.999Z</time></trkpt><trkpt lat="44.372369425158304" lon="10.873173806464541"><ele>524.4</ele><time>2026-04-06T08:38:47.999Z</time></trkpt><trkpt lat="44.37245127631216" lon="10.873217958506425"><ele>520.8</ele><time>2026-04-06T08:38:48.999Z</time></trkpt><trkpt lat="44.372556181129156" lon="10.873275191577015"><ele>517.2</ele><time>2026-04-06T08:38:49.999Z</time></trkpt><trkpt lat="44.37265376255608" lon="10.873336325350419"><ele>513.6</ele><time>2026-04-06T08:38:50.999Z</time></trkpt><trkpt lat="44.3727628754183" lon="10.873400218725283"><ele>510.0</ele><time>2026-04-06T08:38:51.999Z</time></trkpt><trkpt lat="44.37286159221401" lon="10.873459836317805"><ele>508.0</ele><time>2026-04-06T08:38:52.999Z</time></trkpt><trkpt lat="44.37295480449226" lon="10.873515573641738"><ele>506.0</ele><time>2026-04-06T08:38:53.999Z</time></trkpt><trkpt lat="44.37304090424448" lon="10.873568909602552"><ele>504.0</ele><time>2026-04-06T08:38:54.999Z</time></trkpt><trkpt lat="44.37313926157046" lon="10.873632753417759"><ele>502.0</ele><time>2026-04-06T08:38:55.999Z</time></trkpt><trkpt lat="44.37323972441546" lon="10.87369339528218"><ele>500.0</ele><time>2026-04-06T08:38:56.999Z</time></trkpt><trkpt lat="44.37335061042921" lon="10.87374808218032"><ele>497.2</ele><time>2026-04-06T08:38:57.999Z</time></trkpt><trkpt lat="44.37344588552295" lon="10.873794592176008"><ele>494.4</ele><time>2026-04-06T08:38:58.999Z</time></trkpt><trkpt lat="44.373549911823346" lon="10.873818782771238"><ele>491.6</ele><time>2026-04-06T08:38:59.999Z</time></trkpt><trkpt lat="44.37363869970023" lon="10.873824419222878"><ele>488.8</ele><time>2026-04-06T08:39:00.999Z</time></trkpt><trkpt lat="44.37373768976742" lon="10.873840359713657"><ele>486.0</ele><time>2026-04-06T08:39:01.999Z</time></trkpt><trkpt lat="44.37380032961154" lon="10.873873974152538"><ele>484.4</ele><time>2026-04-06T08:39:02.999Z</time></trkpt><trkpt lat="44.3738840432076" lon="10.873887459004742"><ele>482.8</ele><time>2026-04-06T08:39:03.999Z</time></trkpt><trkpt lat="44.37398182915545" lon="10.87389963051368"><ele>481.19999999999993</ele><time>2026-04-06T08:39:04.999Z</time></trkpt><trkpt lat="44.37407011948408" lon="10.873904307673456"><ele>479.59999999999997</ele><time>2026-04-06T08:39:05.999Z</time></trkpt><trkpt lat="44.37417365406088" lon="10.873904809240463"><ele>478.0</ele><time>2026-04-06T08:39:06.999Z</time></trkpt><trkpt lat="44.374257817650566" lon="10.873899617498628"><ele>478.0</ele><time>2026-04-06T08:39:07.999Z</time></trkpt><trkpt lat="44.374358769772755" lon="10.873893132812153"><ele>477.99999999999994</ele><time>2026-04-06T08:39:08.999Z</time></trkpt><trkpt lat="44.37443596679588" lon="10.87388781543084"><ele>477.99999999999994</ele><time>2026-04-06T08:39:09.999Z</time></trkpt><trkpt lat="44.37453953694727" lon="10.873879901543264"><ele>478.0</ele><time>2026-04-06T08:39:10.999Z</time></trkpt><trkpt lat="44.37463641671556" lon="10.873872498879694"><ele>478.0</ele><time>2026-04-06T08:39:11.999Z</time></trkpt><trkpt lat="44.37471797126897" lon="10.873866267226802"><ele>475.59999999999997</ele><time>2026-04-06T08:39:12.999Z</time></trkpt><trkpt lat="44.37481520197905" lon="10.873832800096004"><ele>473.19999999999993</ele><time>2026-04-06T08:39:13.999Z</time></trkpt><trkpt lat="44.37493116794204" lon="10.873810416745297"><ele>470.8</ele><time>2026-04-06T08:39:14.999Z</time></trkpt><trkpt lat="44.37504351194649" lon="10.87380816840981"><ele>468.4</ele><time>2026-04-06T08:39:15.999Z</time></trkpt><trkpt lat="44.37512730684344" lon="10.87378812587968"><ele>466.0</ele><time>2026-04-06T08:39:16.999Z</time></trkpt><trkpt lat="44.37523700767643" lon="10.873760337481244"><ele>466.0</ele><time>2026-04-06T08:39:17.999Z</time></trkpt><trkpt lat="44.37533819691268" lon="10.873732900365352"><ele>466.0</ele><time>2026-04-06T08:39:18.999Z</time></trkpt><trkpt lat="44.37541665522305" lon="10.873692141898657"><ele>466.0</ele><time>2026-04-06T08:39:19.999Z</time></trkpt><trkpt lat="44.37552227313031" lon="10.873663127359093"><ele>466.0</ele><time>2026-04-06T08:39:20.999Z</time></trkpt><trkpt lat="44.37561419921356" lon="10.873631237894381"><ele>466.0</ele><time>2026-04-06T08:39:21.999Z</time></trkpt><trkpt lat="44.37570100088364" lon="10.873581356587335"><ele>465.20000000000005</ele><time>2026-04-06T08:39:22.999Z</time></trkpt><trkpt lat="44.375772088237426" lon="10.8735360502502"><ele>464.40000000000003</ele><time>2026-04-06T08:39:23.999Z</time></trkpt><trkpt lat="44.375854801637374" lon="10.873482786536549"><ele>463.6</ele><time>2026-04-06T08:39:24.999Z</time></trkpt><trkpt lat="44.37594469989703" lon="10.873408268672588"><ele>462.8</ele><time>2026-04-06T08:39:25.999Z</time></trkpt><trkpt lat="44.37603136943733" lon="10.87333827704576"><ele>462.0</ele><time>2026-04-06T08:39:26.999Z</time></trkpt><trkpt lat="44.37611145095457" lon="10.87326462044785"><ele>462.0</ele><time>2026-04-06T08:39:27.999Z</time></trkpt><trkpt lat="44.376192309161596" lon="10.873199504133154"><ele>462.0</ele><time>2026-04-06T08:39:28.999Z</time></trkpt><trkpt lat="44.37626196882154" lon="10.873144093079116"><ele>462.0</ele><time>2026-04-06T08:39:29.999Z</time></trkpt><trkpt lat="44.376329385223336" lon="10.873093831035261"><ele>462.0</ele><time>2026-04-06T08:39:30.999Z</time></trkpt><trkpt lat="44.37640191867122" lon="10.873062011253328"><ele>462.0</ele><time>2026-04-06T08:39:31.999Z</time></trkpt><trkpt lat="44.376473073895575" lon="10.873074435654171"><ele>462.0</ele><time>2026-04-06T08:39:32.999Z</time></trkpt><trkpt lat="44.37654017963422" lon="10.873128040925316"><ele>459.6</ele><time>2026-04-06T08:39:33.999Z</time></trkpt><trkpt lat="44.37657978101323" lon="10.873232611156688"><ele>457.20000000000005</ele><time>2026-04-06T08:39:34.999Z</time></trkpt><trkpt lat="44.37669944921786" lon="10.87336268298758"><ele>454.8</ele><time>2026-04-06T08:39:36.999Z</time></trkpt><trkpt lat="44.37678047523698" lon="10.873433539673124"><ele>452.4</ele><time>2026-04-06T08:39:37.999Z</time></trkpt><trkpt lat="44.37685899176261" lon="10.873473684175968"><ele>450.0</ele><time>2026-04-06T08:39:38.999Z</time></trkpt><trkpt lat="44.37694361925167" lon="10.873482470588165"><ele>448.6666666666667</ele><time>2026-04-06T08:39:39.999Z</time></trkpt><trkpt lat="44.37703087138352" lon="10.87347975831148"><ele>447.33333333333337</ele><time>2026-04-06T08:39:40.999Z</time></trkpt><trkpt lat="44.37710286600516" lon="10.873500409395138"><ele>446.0</ele><time>2026-04-06T08:39:41.999Z</time></trkpt><trkpt lat="44.377174211037826" lon="10.87347608859608"><ele>444.6666666666667</ele><time>2026-04-06T08:39:42.999Z</time></trkpt><trkpt lat="44.37727725189341" lon="10.873506756191256"><ele>443.33333333333337</ele><time>2026-04-06T08:39:44.999Z</time></trkpt><trkpt lat="44.37731077904797" lon="10.87364426957591"><ele>442.0</ele><time>2026-04-06T08:39:47.999Z</time></trkpt><trkpt lat="44.37729183147624" lon="10.873734972758356"><ele>441.00000000000006</ele><time>2026-04-06T08:39:48.999Z</time></trkpt><trkpt lat="44.37726129128166" lon="10.873853740843046"><ele>440.0</ele><time>2026-04-06T08:39:50.999Z</time></trkpt><trkpt lat="44.3773000264685" lon="10.873971132846894"><ele>439.0</ele><time>2026-04-06T08:39:52.999Z</time></trkpt><trkpt lat="44.37733270791225" lon="10.874091085807077"><ele>438.0</ele><time>2026-04-06T08:39:54.998Z</time></trkpt><trkpt lat="44.377364666097215" lon="10.874182870624763"><ele>437.00000000000006</ele><time>2026-04-06T08:39:55.998Z</time></trkpt><trkpt lat="44.37740048266707" lon="10.874276165558623"><ele>436.0</ele><time>2026-04-06T08:39:57.998Z</time></trkpt><trkpt lat="44.37744945116537" lon="10.874391452354493"><ele>433.6666666666667</ele><time>2026-04-06T08:39:59.998Z</time></trkpt><trkpt lat="44.377495322977076" lon="10.874497784612624"><ele>431.33333333333337</ele><time>2026-04-06T08:40:01.998Z</time></trkpt><trkpt lat="44.37754212086007" lon="10.874573730183155"><ele>429.0</ele><time>2026-04-06T08:40:03.998Z</time></trkpt><trkpt lat="44.37758979577771" lon="10.874688616409202"><ele>426.66666666666663</ele><time>2026-04-06T08:40:06.998Z</time></trkpt><trkpt lat="44.37760567186644" lon="10.874787066648443"><ele>424.3333333333333</ele><time>2026-04-06T08:40:09Z</time></trkpt><trkpt lat="44.37764356574063" lon="10.874862365186367"><ele>422.0</ele><time>2026-04-06T08:40:11Z</time></trkpt><trkpt lat="44.37767198907327" lon="10.874964817273872"><ele>421.99999999999994</ele><time>2026-04-06T08:40:13Z</time></trkpt><trkpt lat="44.377690701563004" lon="10.875096288518687"><ele>422.0</ele><time>2026-04-06T08:40:16Z</time></trkpt><trkpt lat="44.377733795636786" lon="10.875212349148462"><ele>422.0</ele><time>2026-04-06T08:40:18Z</time></trkpt><trkpt lat="44.377768077643346" lon="10.87532401263217"><ele>422.0</ele><time>2026-04-06T08:40:20Z</time></trkpt><trkpt lat="44.37783577690791" lon="10.875383039330085"><ele>421.99999999999994</ele><time>2026-04-06T08:40:22Z</time></trkpt><trkpt lat="44.377905807051064" lon="10.875459815537049"><ele>422.0</ele><time>2026-04-06T08:40:24Z</time></trkpt><trkpt lat="44.37796374011922" lon="10.87550887007281"><ele>419.6</ele><time>2026-04-06T08:40:26Z</time></trkpt><trkpt lat="44.37801577633642" lon="10.875561361314793"><ele>417.20000000000005</ele><time>2026-04-06T08:40:27Z</time></trkpt><trkpt lat="44.3780796126743" lon="10.875626294599217"><ele>414.8</ele><time>2026-04-06T08:40:29Z</time></trkpt><trkpt lat="44.37816456319304" lon="10.8757046151789"><ele>412.4</ele><time>2026-04-06T08:40:31Z</time></trkpt><trkpt lat="44.37825604705842" lon="10.875782865994724"><ele>410.0</ele><time>2026-04-06T08:40:33Z</time></trkpt><trkpt lat="44.378344865749305" lon="10.875851867124505"><ele>409.3333333333333</ele><time>2026-04-06T08:40:35Z</time></trkpt><trkpt lat="44.37840022974252" lon="10.875910635541953"><ele>408.66666666666663</ele><time>2026-04-06T08:40:37Z</time></trkpt><trkpt lat="44.37845882460247" lon="10.87600138401029"><ele>408.0</ele><time>2026-04-06T08:40:39Z</time></trkpt><trkpt lat="44.37850412722799" lon="10.876068600259595"><ele>407.33333333333337</ele><time>2026-04-06T08:40:41Z</time></trkpt><trkpt lat="44.37855641028293" lon="10.876151973298231"><ele>406.6666666666667</ele><time>2026-04-06T08:40:43Z</time></trkpt><trkpt lat="44.37860378980887" lon="10.876254038198413"><ele>406.0</ele><time>2026-04-06T08:40:44.999Z</time></trkpt><trkpt lat="44.37870846608571" lon="10.876302349741724"><ele>404.0</ele><time>2026-04-06T08:40:46.999Z</time></trkpt><trkpt lat="44.37880774896061" lon="10.876348611483337"><ele>402.0</ele><time>2026-04-06T08:40:48.999Z</time></trkpt><trkpt lat="44.37890382993149" lon="10.876290786773207"><ele>400.0</ele><time>2026-04-06T08:40:50.999Z</time></trkpt><trkpt lat="44.37901545632942" lon="10.876288583795098"><ele>398.0</ele><time>2026-04-06T08:40:52.999Z</time></trkpt><trkpt lat="44.37909880683349" lon="10.876287243562274"><ele>396.0</ele><time>2026-04-06T08:40:54.999Z</time></trkpt><trkpt lat="44.37918433567576" lon="10.876266806664523"><ele>394.1666666666667</ele><time>2026-04-06T08:40:56.999Z</time></trkpt><trkpt lat="44.379305259910936" lon="10.876287290189927"><ele>392.33333333333337</ele><time>2026-04-06T08:40:58.999Z</time></trkpt><trkpt lat="44.37939799231345" lon="10.876275866638228"><ele>390.5</ele><time>2026-04-06T08:41:00.999Z</time></trkpt><trkpt lat="44.379478266285226" lon="10.87626597782474"><ele>388.6666666666667</ele><time>2026-04-06T08:41:01.999Z</time></trkpt><trkpt lat="44.379547762833184" lon="10.876257312904507"><ele>386.83333333333337</ele><time>2026-04-06T08:41:02.999Z</time></trkpt><trkpt lat="44.37962791855105" lon="10.876249380396722"><ele>385.0</ele><time>2026-04-06T08:41:04.999Z</time></trkpt><trkpt lat="44.37971832411068" lon="10.876232237791827"><ele>383.33333333333337</ele><time>2026-04-06T08:41:06.999Z</time></trkpt><trkpt lat="44.37979139167416" lon="10.87627285820255"><ele>381.6666666666667</ele><time>2026-04-06T08:41:08.999Z</time></trkpt><trkpt lat="44.3798698902269" lon="10.87629822823852"><ele>380.0</ele><time>2026-04-06T08:41:10.999Z</time></trkpt><trkpt lat="44.37994824365958" lon="10.876305886068167"><ele>378.33333333333337</ele><time>2026-04-06T08:41:12.999Z</time></trkpt><trkpt lat="44.38002920356059" lon="10.876312400437467"><ele>376.6666666666667</ele><time>2026-04-06T08:41:14.999Z</time></trkpt><trkpt lat="44.38011096584067" lon="10.876288280641921"><ele>375.0</ele><time>2026-04-06T08:41:16.999Z</time></trkpt><trkpt lat="44.38017779317431" lon="10.876243298130188"><ele>375.0</ele><time>2026-04-06T08:41:18.999Z</time></trkpt><trkpt lat="44.38025969801231" lon="10.876183040947877"><ele>375.0</ele><time>2026-04-06T08:41:23.999Z</time></trkpt><trkpt lat="44.3803365971541" lon="10.876118843427346"><ele>375.0</ele><time>2026-04-06T08:41:25.999Z</time></trkpt><trkpt lat="44.38039987301607" lon="10.876059802246196"><ele>375.0</ele><time>2026-04-06T08:41:27.999Z</time></trkpt><trkpt lat="44.380458787782395" lon="10.876002559917634"><ele>375.0</ele><time>2026-04-06T08:41:29.999Z</time></trkpt><trkpt lat="44.38069972084492" lon="10.876307736027277"><ele>373.6</ele><time>2026-04-06T08:41:32.999Z</time></trkpt><trkpt lat="44.38077456878643" lon="10.876378725344559"><ele>372.2</ele><time>2026-04-06T08:41:34.999Z</time></trkpt><trkpt lat="44.38087423455234" lon="10.876434745512928"><ele>370.79999999999995</ele><time>2026-04-06T08:41:36.999Z</time></trkpt><trkpt lat="44.380981035364776" lon="10.876438600979542"><ele>369.4</ele><time>2026-04-06T08:41:38.999Z</time></trkpt><trkpt lat="44.381060593778535" lon="10.876405178854979"><ele>368.0</ele><time>2026-04-06T08:41:41.999Z</time></trkpt><trkpt lat="44.38113857646199" lon="10.876281912651724"><ele>368.0</ele><time>2026-04-06T08:41:43.999Z</time></trkpt><trkpt lat="44.381202815209825" lon="10.876196400084487"><ele>368.0</ele><time>2026-04-06T08:41:44.999Z</time></trkpt><trkpt lat="44.38126736205341" lon="10.876124497709014"><ele>368.0</ele><time>2026-04-06T08:41:46.999Z</time></trkpt></trkseg><trkseg><trkpt lat="44.38136067991962" lon="10.876057677787937"><ele>363.0</ele><time>2026-04-06T09:04:57.998Z</time></trkpt><trkpt lat="44.38144099764722" lon="10.876022233248808"><ele>363.0</ele><time>2026-04-06T09:05:02.998Z</time></trkpt><trkpt lat="44.381516634555034" lon="10.876027058387496"><ele>363.0</ele><time>2026-04-06T09:05:06.998Z</time></trkpt><trkpt lat="44.3815781337022" lon="10.875987680772003"><ele>363.0</ele><time>2026-04-06T09:05:09.998Z</time></trkpt><trkpt lat="44.38153411285635" lon="10.875881326008926"><ele>363.0</ele><time>2026-04-06T09:05:12.998Z</time></trkpt><trkpt lat="44.38148543851194" lon="10.875819165801282"><ele>363.0</ele><time>2026-04-06T09:05:14.998Z</time></trkpt><trkpt lat="44.38138248567913" lon="10.87576761741803"><ele>365.79999999999995</ele><time>2026-04-06T09:05:16.999Z</time></trkpt><trkpt lat="44.3812797646701" lon="10.875681625909651"><ele>368.6</ele><time>2026-04-06T09:05:18.999Z</time></trkpt><trkpt lat="44.381189036784065" lon="10.875609891950013"><ele>371.4</ele><time>2026-04-06T09:05:20.999Z</time></trkpt><trkpt lat="44.38109614641412" lon="10.875546288644646"><ele>374.20000000000005</ele><time>2026-04-06T09:05:22.999Z</time></trkpt><trkpt lat="44.38103043633672" lon="10.875515193841933"><ele>377.0</ele><time>2026-04-06T09:05:24.999Z</time></trkpt><trkpt lat="44.38103604174731" lon="10.875404900656267"><ele>377.0</ele><time>2026-04-06T09:05:36.999Z</time></trkpt><trkpt lat="44.381118712859205" lon="10.875363711321667"><ele>377.0</ele><time>2026-04-06T09:05:39.999Z</time></trkpt><trkpt lat="44.38121214859621" lon="10.87529663155155"><ele>377.0</ele><time>2026-04-06T09:05:41.999Z</time></trkpt><trkpt lat="44.38128001002658" lon="10.87526032374489"><ele>377.0</ele><time>2026-04-06T09:05:42.999Z</time></trkpt><trkpt lat="44.38134013177522" lon="10.875233746448583"><ele>377.0</ele><time>2026-04-06T09:05:43.999Z</time></trkpt><trkpt lat="44.38145576330891" lon="10.875184081084514"><ele>377.0</ele><time>2026-04-06T09:05:45.999Z</time></trkpt><trkpt lat="44.381515252002394" lon="10.875136977909628"><ele>372.8</ele><time>2026-04-06T09:05:46.999Z</time></trkpt><trkpt lat="44.38156958276119" lon="10.87509137180356"><ele>368.6</ele><time>2026-04-06T09:05:47.999Z</time></trkpt><trkpt lat="44.38167211325667" lon="10.87499480571267"><ele>364.40000000000003</ele><time>2026-04-06T09:05:49.999Z</time></trkpt><trkpt lat="44.38173733776842" lon="10.874974903286843"><ele>360.20000000000005</ele><time>2026-04-06T09:05:50.999Z</time></trkpt><trkpt lat="44.381835455070025" lon="10.87494572771306"><ele>356.0</ele><time>2026-04-06T09:05:52.999Z</time></trkpt><trkpt lat="44.38196181533796" lon="10.874961210547683"><ele>356.0</ele><time>2026-04-06T09:05:54.999Z</time></trkpt><trkpt lat="44.38203199082991" lon="10.874953272140077"><ele>356.0</ele><time>2026-04-06T09:05:55.999Z</time></trkpt><trkpt lat="44.38209622856116" lon="10.874957670373215"><ele>356.0</ele><time>2026-04-06T09:05:56.999Z</time></trkpt><trkpt lat="44.38215772415326" lon="10.874927989098689"><ele>356.0</ele><time>2026-04-06T09:05:57.999Z</time></trkpt><trkpt lat="44.38221914763658" lon="10.874896182268236"><ele>356.0</ele><time>2026-04-06T09:05:58.999Z</time></trkpt><trkpt lat="44.38228341788815" lon="10.87489272527115"><ele>356.0</ele><time>2026-04-06T09:05:59.999Z</time></trkpt><trkpt lat="44.38241020414625" lon="10.874889333902015"><ele>352.20000000000005</ele><time>2026-04-06T09:06:01.999Z</time></trkpt><trkpt lat="44.38251364667296" lon="10.874988977990535"><ele>348.40000000000003</ele><time>2026-04-06T09:06:03.999Z</time></trkpt><trkpt lat="44.38257827167794" lon="10.875068396146037"><ele>344.6</ele><time>2026-04-06T09:06:05.999Z</time></trkpt><trkpt lat="44.38266777026196" lon="10.875077615269541"><ele>340.8</ele><time>2026-04-06T09:06:07.999Z</time></trkpt><trkpt lat="44.382694348882794" lon="10.87492801935734"><ele>337.0</ele><time>2026-04-06T09:06:08.999Z</time></trkpt><trkpt lat="44.38270843631431" lon="10.874806691726072"><ele>337.0</ele><time>2026-04-06T09:06:09.999Z</time></trkpt><trkpt lat="44.382715119561844" lon="10.874696761221454"><ele>337.0</ele><time>2026-04-06T09:06:10.999Z</time></trkpt><trkpt lat="44.382727889274705" lon="10.874597569786618"><ele>337.0</ele><time>2026-04-06T09:06:11.999Z</time></trkpt><trkpt lat="44.38275310791408" lon="10.87447294763674"><ele>337.0</ele><time>2026-04-06T09:06:12.999Z</time></trkpt><trkpt lat="44.3827607342401" lon="10.874382345208147"><ele>337.0</ele><time>2026-04-06T09:06:13.999Z</time></trkpt><trkpt lat="44.38273516182565" lon="10.874250831460008"><ele>337.0</ele><time>2026-04-06T09:06:16.999Z</time></trkpt><trkpt lat="44.38263834424466" lon="10.874143797880352"><ele>336.40000000000003</ele><time>2026-04-06T09:06:18.999Z</time></trkpt><trkpt lat="44.38260759362172" lon="10.874057227498898"><ele>335.8</ele><time>2026-04-06T09:06:19.999Z</time></trkpt><trkpt lat="44.38256776579148" lon="10.87394952658622"><ele>335.2</ele><time>2026-04-06T09:06:20.999Z</time></trkpt><trkpt lat="44.38250816280584" lon="10.873836535160416"><ele>334.6</ele><time>2026-04-06T09:06:21.999Z</time></trkpt><trkpt lat="44.38243347808656" lon="10.873715007675065"><ele>334.0</ele><time>2026-04-06T09:06:22.999Z</time></trkpt><trkpt lat="44.38235230911466" lon="10.873588074358063"><ele>334.0</ele><time>2026-04-06T09:06:23.999Z</time></trkpt><trkpt lat="44.3822860086487" lon="10.873464571072812"><ele>334.0</ele><time>2026-04-06T09:06:24.999Z</time></trkpt><trkpt lat="44.38222889242903" lon="10.87337777508266"><ele>334.0</ele><time>2026-04-06T09:06:25.999Z</time></trkpt><trkpt lat="44.38217486143306" lon="10.873316929893349"><ele>334.0</ele><time>2026-04-06T09:06:26.999Z</time></trkpt><trkpt lat="44.38213375547353" lon="10.873160504669507"><ele>334.0</ele><time>2026-04-06T09:06:27.999Z</time></trkpt><trkpt lat="44.382120630632265" lon="10.873048534591865"><ele>334.6</ele><time>2026-04-06T09:06:28.999Z</time></trkpt><trkpt lat="44.382106271088915" lon="10.872917441270529"><ele>335.2</ele><time>2026-04-06T09:06:29.999Z</time></trkpt><trkpt lat="44.382082380157954" lon="10.872793088749678"><ele>335.8</ele><time>2026-04-06T09:06:30.999Z</time></trkpt><trkpt lat="44.38203774077288" lon="10.872694395563373"><ele>336.40000000000003</ele><time>2026-04-06T09:06:31.999Z</time></trkpt><trkpt lat="44.38197787577154" lon="10.87260916531736"><ele>337.0</ele><time>2026-04-06T09:06:32.999Z</time></trkpt><trkpt lat="44.38188811002262" lon="10.872568305496712"><ele>337.0</ele><time>2026-04-06T09:06:33.999Z</time></trkpt><trkpt lat="44.381789595254936" lon="10.872563971736575"><ele>337.0</ele><time>2026-04-06T09:06:34.999Z</time></trkpt><trkpt lat="44.38169656041667" lon="10.872533864586645"><ele>337.0</ele><time>2026-04-06T09:06:35.999Z</time></trkpt><trkpt lat="44.381606435397195" lon="10.872507667650366"><ele>337.0</ele><time>2026-04-06T09:06:36.999Z</time></trkpt><trkpt lat="44.38153799031145" lon="10.872439287838496"><ele>337.0</ele><time>2026-04-06T09:06:37.999Z</time></trkpt><trkpt lat="44.38148437990609" lon="10.87233795318647"><ele>337.0</ele><time>2026-04-06T09:06:38.999Z</time></trkpt><trkpt lat="44.38141555251808" lon="10.872265542208345"><ele>337.0</ele><time>2026-04-06T09:06:39.999Z</time></trkpt><trkpt lat="44.38134663684577" lon="10.872199785706147"><ele>337.0</ele><time>2026-04-06T09:06:40.999Z</time></trkpt><trkpt lat="44.38126553378862" lon="10.87217979462862"><ele>337.0</ele><time>2026-04-06T09:06:41.999Z</time></trkpt><trkpt lat="44.38117980958958" lon="10.872153545449784"><ele>337.0</ele><time>2026-04-06T09:06:42.999Z</time></trkpt><trkpt lat="44.3811122994044" lon="10.872097081368949"><ele>337.0</ele><time>2026-04-06T09:06:43.999Z</time></trkpt><trkpt lat="44.38103117432568" lon="10.872027108069242"><ele>338.40000000000003</ele><time>2026-04-06T09:06:45.999Z</time></trkpt><trkpt lat="44.38105454783475" lon="10.87189502168784"><ele>339.8</ele><time>2026-04-06T09:06:47.999Z</time></trkpt><trkpt lat="44.381066366036336" lon="10.871777319162593"><ele>341.2</ele><time>2026-04-06T09:06:48.999Z</time></trkpt><trkpt lat="44.38108730060481" lon="10.8716413676086"><ele>342.6</ele><time>2026-04-06T09:06:49.999Z</time></trkpt><trkpt lat="44.38112491397982" lon="10.871507798220867"><ele>344.0</ele><time>2026-04-06T09:06:50.999Z</time></trkpt><trkpt lat="44.38115706940004" lon="10.87137720526756"><ele>344.0</ele><time>2026-04-06T09:06:51.999Z</time></trkpt><trkpt lat="44.38118140407009" lon="10.871254389050382"><ele>344.0</ele><time>2026-04-06T09:06:52.999Z</time></trkpt><trkpt lat="44.38118738635558" lon="10.871143530642316"><ele>344.0</ele><time>2026-04-06T09:06:53.999Z</time></trkpt><trkpt lat="44.38115953189777" lon="10.871029561657734"><ele>344.0</ele><time>2026-04-06T09:06:54.999Z</time></trkpt><trkpt lat="44.38113396590954" lon="10.870939072507012"><ele>344.0</ele><time>2026-04-06T09:06:55.999Z</time></trkpt><trkpt lat="44.381109393973425" lon="10.8707898634705"><ele>344.0</ele><time>2026-04-06T09:06:56.999Z</time></trkpt><trkpt lat="44.38106215091629" lon="10.870621193580146"><ele>345.79999999999995</ele><time>2026-04-06T09:06:57.999Z</time></trkpt><trkpt lat="44.38101090882662" lon="10.870487632584567"><ele>347.59999999999997</ele><time>2026-04-06T09:06:58.999Z</time></trkpt><trkpt lat="44.38098525274918" lon="10.870343873001035"><ele>349.4</ele><time>2026-04-06T09:06:59.998Z</time></trkpt><trkpt lat="44.38095297205144" lon="10.870142634392407"><ele>351.2</ele><time>2026-04-06T09:07:01.998Z</time></trkpt><trkpt lat="44.38094984359902" lon="10.870033200313886"><ele>353.0</ele><time>2026-04-06T09:07:02.998Z</time></trkpt><trkpt lat="44.380930985636674" lon="10.869903330483817"><ele>354.0</ele><time>2026-04-06T09:07:03.998Z</time></trkpt><trkpt lat="44.380942841157236" lon="10.8697731377714"><ele>355.0</ele><time>2026-04-06T09:07:04.998Z</time></trkpt><trkpt lat="44.38094107184055" lon="10.8696697497614"><ele>356.0</ele><time>2026-04-06T09:07:05.998Z</time></trkpt><trkpt lat="44.38093954292288" lon="10.869568490788579"><ele>357.0</ele><time>2026-04-06T09:07:06.998Z</time></trkpt><trkpt lat="44.38092445682204" lon="10.869462902016883"><ele>358.0</ele><time>2026-04-06T09:07:07.998Z</time></trkpt><trkpt lat="44.380924443998715" lon="10.8693498375265"><ele>359.0</ele><time>2026-04-06T09:07:08.998Z</time></trkpt><trkpt lat="44.38092510653432" lon="10.869252104573716"><ele>359.0</ele><time>2026-04-06T09:07:09.998Z</time></trkpt><trkpt lat="44.380922328807685" lon="10.869161588630174"><ele>359.0</ele><time>2026-04-06T09:07:10.998Z</time></trkpt><trkpt lat="44.380921664928735" lon="10.869039889338758"><ele>359.0</ele><time>2026-04-06T09:07:11.998Z</time></trkpt><trkpt lat="44.38092276852282" lon="10.868915907249914"><ele>359.0</ele><time>2026-04-06T09:07:12.998Z</time></trkpt><trkpt lat="44.380921967417805" lon="10.86879833326532"><ele>359.0</ele><time>2026-04-06T09:07:13.998Z</time></trkpt><trkpt lat="44.38092960102381" lon="10.868663586281365"><ele>359.0</ele><time>2026-04-06T09:07:14.998Z</time></trkpt><trkpt lat="44.380951779937796" lon="10.868536697291015"><ele>359.33333333333337</ele><time>2026-04-06T09:07:15.998Z</time></trkpt><trkpt lat="44.38094307835354" lon="10.868415181696289"><ele>359.6666666666667</ele><time>2026-04-06T09:07:16.998Z</time></trkpt><trkpt lat="44.38094773132192" lon="10.868298299873759"><ele>360.0</ele><time>2026-04-06T09:07:17.998Z</time></trkpt><trkpt lat="44.38095429136465" lon="10.868185926878404"><ele>360.3333333333333</ele><time>2026-04-06T09:07:18.998Z</time></trkpt><trkpt lat="44.380962401056095" lon="10.868052215195872"><ele>360.66666666666663</ele><time>2026-04-06T09:07:19.998Z</time></trkpt><trkpt lat="44.38097299715781" lon="10.867930158116897"><ele>361.0</ele><time>2026-04-06T09:07:20.998Z</time></trkpt><trkpt lat="44.38099490009457" lon="10.867813601577879"><ele>361.0</ele><time>2026-04-06T09:07:21.998Z</time></trkpt><trkpt lat="44.38100109201666" lon="10.867719134014823"><ele>361.0</ele><time>2026-04-06T09:07:22.999Z</time></trkpt><trkpt lat="44.38099941628432" lon="10.86760185619676"><ele>361.0</ele><time>2026-04-06T09:07:23.999Z</time></trkpt><trkpt lat="44.38099019715623" lon="10.86748490430153"><ele>361.0</ele><time>2026-04-06T09:07:24.999Z</time></trkpt><trkpt lat="44.38097763057896" lon="10.867374407307656"><ele>361.0</ele><time>2026-04-06T09:07:25.999Z</time></trkpt><trkpt lat="44.38095902745046" lon="10.867219473434142"><ele>361.0</ele><time>2026-04-06T09:07:27.999Z</time></trkpt><trkpt lat="44.38094330804105" lon="10.867103044197771"><ele>362.8</ele><time>2026-04-06T09:07:29.999Z</time></trkpt><trkpt lat="44.38092174948009" lon="10.866949786822351"><ele>364.6</ele><time>2026-04-06T09:07:31.999Z</time></trkpt><trkpt lat="44.38090654940243" lon="10.866845553960435"><ele>366.4</ele><time>2026-04-06T09:07:32.999Z</time></trkpt><trkpt lat="44.38089159761116" lon="10.866743023655328"><ele>368.2</ele><time>2026-04-06T09:07:33.999Z</time></trkpt><trkpt lat="44.380872907398064" lon="10.866611166496334"><ele>370.0</ele><time>2026-04-06T09:07:34.999Z</time></trkpt><trkpt lat="44.38085057264677" lon="10.866431026094883"><ele>371.4</ele><time>2026-04-06T09:07:35.999Z</time></trkpt><trkpt lat="44.3808293806708" lon="10.86628440971552"><ele>372.8</ele><time>2026-04-06T09:07:36.999Z</time></trkpt><trkpt lat="44.380793633755786" lon="10.866133042599143"><ele>374.20000000000005</ele><time>2026-04-06T09:07:37.999Z</time></trkpt><trkpt lat="44.380749422010005" lon="10.86598906419789"><ele>375.6</ele><time>2026-04-06T09:07:39Z</time></trkpt><trkpt lat="44.38070910139446" lon="10.865869064147526"><ele>377.0</ele><time>2026-04-06T09:07:40Z</time></trkpt><trkpt lat="44.380651372375766" lon="10.865740847356522"><ele>377.33333333333337</ele><time>2026-04-06T09:07:41Z</time></trkpt><trkpt lat="44.38062253937682" lon="10.86560868769456"><ele>377.6666666666667</ele><time>2026-04-06T09:07:42Z</time></trkpt><trkpt lat="44.380598366825275" lon="10.865484163270372"><ele>378.0</ele><time>2026-04-06T09:07:43Z</time></trkpt><trkpt lat="44.38061261708266" lon="10.865376266419863"><ele>378.3333333333333</ele><time>2026-04-06T09:07:44Z</time></trkpt><trkpt lat="44.38059442977623" lon="10.865271631680919"><ele>378.66666666666663</ele><time>2026-04-06T09:07:45Z</time></trkpt><trkpt lat="44.380596249847684" lon="10.865156963064772"><ele>379.0</ele><time>2026-04-06T09:07:46Z</time></trkpt><trkpt lat="44.380586231715064" lon="10.865058576809046"><ele>379.2</ele><time>2026-04-06T09:07:47Z</time></trkpt><trkpt lat="44.38056998840529" lon="10.864968505538743"><ele>379.4</ele><time>2026-04-06T09:07:48Z</time></trkpt><trkpt lat="44.38053689479835" lon="10.864815513177005"><ele>379.6</ele><time>2026-04-06T09:07:50Z</time></trkpt><trkpt lat="44.38052259287634" lon="10.864659974448246"><ele>379.8</ele><time>2026-04-06T09:07:52Z</time></trkpt><trkpt lat="44.380514060351544" lon="10.864557716097337"><ele>380.0</ele><time>2026-04-06T09:07:53Z</time></trkpt><trkpt lat="44.3804453451609" lon="10.864411519176558"><ele>382.0</ele><time>2026-04-06T09:07:55Z</time></trkpt><trkpt lat="44.38042344734451" lon="10.864273713228291"><ele>384.0</ele><time>2026-04-06T09:07:57Z</time></trkpt><trkpt lat="44.380408115522364" lon="10.864138694054885"><ele>386.0</ele><time>2026-04-06T09:07:59Z</time></trkpt><trkpt lat="44.38042705236913" lon="10.863972179037109"><ele>388.0</ele><time>2026-04-06T09:08:01Z</time></trkpt><trkpt lat="44.38041728347977" lon="10.863853796146492"><ele>390.0</ele><time>2026-04-06T09:08:02Z</time></trkpt><trkpt lat="44.38039967462457" lon="10.863698403639608"><ele>390.0</ele><time>2026-04-06T09:08:04Z</time></trkpt><trkpt lat="44.380341925083535" lon="10.86363968775242"><ele>390.0</ele><time>2026-04-06T09:08:05Z</time></trkpt><trkpt lat="44.38032778547165" lon="10.863484130896607"><ele>390.0</ele><time>2026-04-06T09:08:07Z</time></trkpt><trkpt lat="44.38033843578615" lon="10.863381653486735"><ele>390.0</ele><time>2026-04-06T09:08:08Z</time></trkpt><trkpt lat="44.380326958441394" lon="10.863275471652198"><ele>390.0</ele><time>2026-04-06T09:08:09Z</time></trkpt><trkpt lat="44.38030162124472" lon="10.863190419387612"><ele>390.0</ele><time>2026-04-06T09:08:10Z</time></trkpt><trkpt lat="44.380278913482265" lon="10.863063763593354"><ele>390.75</ele><time>2026-04-06T09:08:12Z</time></trkpt><trkpt lat="44.3802428055015" lon="10.862903803410683"><ele>391.5</ele><time>2026-04-06T09:08:14Z</time></trkpt><trkpt lat="44.38028052502875" lon="10.86270167249405"><ele>392.25</ele><time>2026-04-06T09:08:16Z</time></trkpt><trkpt lat="44.38033484272641" lon="10.862652719149686"><ele>393.0</ele><time>2026-04-06T09:08:17Z</time></trkpt><trkpt lat="44.38042049543186" lon="10.862527167825354"><ele>393.5</ele><time>2026-04-06T09:08:19Z</time></trkpt><trkpt lat="44.380445445935216" lon="10.862445291911726"><ele>394.0</ele><time>2026-04-06T09:08:20Z</time></trkpt><trkpt lat="44.38048023932203" lon="10.86236674718389"><ele>394.5</ele><time>2026-04-06T09:08:21Z</time></trkpt><trkpt lat="44.38053801403805" lon="10.86224878903297"><ele>395.0</ele><time>2026-04-06T09:08:23Z</time></trkpt><trkpt lat="44.38058379154775" lon="10.862158379108946"><ele>395.5</ele><time>2026-04-06T09:08:24Z</time></trkpt><trkpt lat="44.380640075293584" lon="10.862089447323093"><ele>396.0</ele><time>2026-04-06T09:08:25Z</time></trkpt><trkpt lat="44.38069600282648" lon="10.861979194760584"><ele>395.1666666666667</ele><time>2026-04-06T09:08:27Z</time></trkpt><trkpt lat="44.38072457503267" lon="10.861887168916711"><ele>394.33333333333337</ele><time>2026-04-06T09:08:29Z</time></trkpt><trkpt lat="44.3807286541775" lon="10.861761738634792"><ele>393.5</ele><time>2026-04-06T09:08:33Z</time></trkpt><trkpt lat="44.380756554429354" lon="10.861661419682564"><ele>392.6666666666667</ele><time>2026-04-06T09:08:34Z</time></trkpt><trkpt lat="44.380793794635984" lon="10.861564196789432"><ele>391.83333333333337</ele><time>2026-04-06T09:08:35Z</time></trkpt><trkpt lat="44.380842056440564" lon="10.861460723627465"><ele>391.0</ele><time>2026-04-06T09:08:36Z</time></trkpt><trkpt lat="44.38086157968154" lon="10.861326966765857"><ele>391.00000000000006</ele><time>2026-04-06T09:08:37Z</time></trkpt><trkpt lat="44.38088804533492" lon="10.861226369279498"><ele>391.0</ele><time>2026-04-06T09:08:38Z</time></trkpt><trkpt lat="44.38088992088555" lon="10.861114423130772"><ele>391.0</ele><time>2026-04-06T09:08:39Z</time></trkpt><trkpt lat="44.38088037088144" lon="10.860964156556765"><ele>391.0</ele><time>2026-04-06T09:08:40Z</time></trkpt><trkpt lat="44.38086862699445" lon="10.860813624504084"><ele>391.00000000000006</ele><time>2026-04-06T09:08:41Z</time></trkpt><trkpt lat="44.38086250337008" lon="10.860709850189496"><ele>391.0</ele><time>2026-04-06T09:08:42Z</time></trkpt><trkpt lat="44.38087681775934" lon="10.860623883078663"><ele>391.6666666666667</ele><time>2026-04-06T09:08:43Z</time></trkpt><trkpt lat="44.38088542419672" lon="10.86052605033194"><ele>392.33333333333337</ele><time>2026-04-06T09:08:44Z</time></trkpt><trkpt lat="44.3809050640675" lon="10.860416029602018"><ele>393.0</ele><time>2026-04-06T09:08:45Z</time></trkpt><trkpt lat="44.380924522395915" lon="10.860296499839809"><ele>393.66666666666663</ele><time>2026-04-06T09:08:46Z</time></trkpt><trkpt lat="44.380942620743646" lon="10.860175695410183"><ele>394.3333333333333</ele><time>2026-04-06T09:08:47Z</time></trkpt><trkpt lat="44.380946367845766" lon="10.860047372356927"><ele>395.0</ele><time>2026-04-06T09:08:48Z</time></trkpt><trkpt lat="44.38095181349758" lon="10.859949823692283"><ele>395.3333333333333</ele><time>2026-04-06T09:08:49Z</time></trkpt><trkpt lat="44.38094342166635" lon="10.859845131771072"><ele>395.66666666666663</ele><time>2026-04-06T09:08:50Z</time></trkpt><trkpt lat="44.38094939541426" lon="10.85973207854748"><ele>396.0</ele><time>2026-04-06T09:08:51Z</time></trkpt><trkpt lat="44.38092081264856" lon="10.859611473936242"><ele>396.33333333333337</ele><time>2026-04-06T09:08:52Z</time></trkpt><trkpt lat="44.380921076636874" lon="10.85948305554097"><ele>396.6666666666667</ele><time>2026-04-06T09:08:53Z</time></trkpt><trkpt lat="44.380891026998626" lon="10.85936432012558"><ele>397.0</ele><time>2026-04-06T09:08:54Z</time></trkpt><trkpt lat="44.3808840638176" lon="10.859255245785258"><ele>397.6666666666667</ele><time>2026-04-06T09:08:55Z</time></trkpt><trkpt lat="44.380875527906895" lon="10.85916277936939"><ele>398.33333333333337</ele><time>2026-04-06T09:08:56Z</time></trkpt><trkpt lat="44.380866285616776" lon="10.859051002368776"><ele>399.0</ele><time>2026-04-06T09:08:57Z</time></trkpt><trkpt lat="44.38081019035857" lon="10.85898383675087"><ele>399.66666666666663</ele><time>2026-04-06T09:08:58Z</time></trkpt><trkpt lat="44.38072526481628" lon="10.858938726678957"><ele>400.3333333333333</ele><time>2026-04-06T09:08:59Z</time></trkpt><trkpt lat="44.38065814708345" lon="10.858870321054402"><ele>401.0</ele><time>2026-04-06T09:09:00Z</time></trkpt><trkpt lat="44.38060647620865" lon="10.858792734395207"><ele>401.0</ele><time>2026-04-06T09:09:01Z</time></trkpt><trkpt lat="44.38055448993682" lon="10.858717613057971"><ele>401.0</ele><time>2026-04-06T09:09:02Z</time></trkpt><trkpt lat="44.38051827351678" lon="10.858560521345863"><ele>401.0</ele><time>2026-04-06T09:09:04Z</time></trkpt><trkpt lat="44.38052225879758" lon="10.858457288079322"><ele>401.0</ele><time>2026-04-06T09:09:05Z</time></trkpt><trkpt lat="44.380511702771244" lon="10.85832326312764"><ele>401.0</ele><time>2026-04-06T09:09:06Z</time></trkpt><trkpt lat="44.38048457794836" lon="10.85818167155556"><ele>401.66666666666663</ele><time>2026-04-06T09:09:07Z</time></trkpt><trkpt lat="44.38043565879434" lon="10.858079066271461"><ele>402.3333333333333</ele><time>2026-04-06T09:09:08Z</time></trkpt><trkpt lat="44.38042807762216" lon="10.857976418391585"><ele>403.0</ele><time>2026-04-06T09:09:09Z</time></trkpt><trkpt lat="44.38041573642524" lon="10.857883848382158"><ele>403.66666666666663</ele><time>2026-04-06T09:09:10Z</time></trkpt><trkpt lat="44.38041987570011" lon="10.857776947736719"><ele>404.3333333333333</ele><time>2026-04-06T09:09:11Z</time></trkpt><trkpt lat="44.38042455769428" lon="10.85766956825948"><ele>405.0</ele><time>2026-04-06T09:09:12Z</time></trkpt><trkpt lat="44.38043104312773" lon="10.857559087604685"><ele>405.2857142857143</ele><time>2026-04-06T09:09:13Z</time></trkpt><trkpt lat="44.380435156426564" lon="10.85746111570795"><ele>405.57142857142856</ele><time>2026-04-06T09:09:14Z</time></trkpt><trkpt lat="44.380469924053656" lon="10.857367489075179"><ele>405.8571428571429</ele><time>2026-04-06T09:09:15Z</time></trkpt><trkpt lat="44.38045720645558" lon="10.857271382156236"><ele>406.1428571428571</ele><time>2026-04-06T09:09:15.999Z</time></trkpt><trkpt lat="44.38045068725737" lon="10.857179509831456"><ele>406.42857142857144</ele><time>2026-04-06T09:09:16.999Z</time></trkpt><trkpt lat="44.38042543879844" lon="10.857071549478407"><ele>406.7142857142857</ele><time>2026-04-06T09:09:17.999Z</time></trkpt><trkpt lat="44.38040014322567" lon="10.856959597455687"><ele>407.0</ele><time>2026-04-06T09:09:18.999Z</time></trkpt><trkpt lat="44.38034820695956" lon="10.856765964430076"><ele>406.99999999999994</ele><time>2026-04-06T09:09:20.999Z</time></trkpt><trkpt lat="44.38033451416494" lon="10.856650550937037"><ele>407.0</ele><time>2026-04-06T09:09:21.999Z</time></trkpt><trkpt lat="44.38031734603219" lon="10.856560763785575"><ele>407.0</ele><time>2026-04-06T09:09:22.999Z</time></trkpt><trkpt lat="44.38028798718894" lon="10.85643822892747"><ele>407.0</ele><time>2026-04-06T09:09:24.999Z</time></trkpt><trkpt lat="44.380287585541055" lon="10.856337597723694"><ele>406.99999999999994</ele><time>2026-04-06T09:09:25.999Z</time></trkpt><trkpt lat="44.38028515806617" lon="10.856226381334714"><ele>407.0</ele><time>2026-04-06T09:09:26.999Z</time></trkpt><trkpt lat="44.38030955523525" lon="10.856141637649069"><ele>406.99999999999994</ele><time>2026-04-06T09:09:27.999Z</time></trkpt><trkpt lat="44.38032249967331" lon="10.856043285240764"><ele>407.0</ele><time>2026-04-06T09:09:29.001Z</time></trkpt><trkpt lat="44.380319953219264" lon="10.85593970692878"><ele>407.0</ele><time>2026-04-06T09:09:30.001Z</time></trkpt><trkpt lat="44.38033389239573" lon="10.855836804964827"><ele>407.0</ele><time>2026-04-06T09:09:31.001Z</time></trkpt><trkpt lat="44.38035335471783" lon="10.855655433803179"><ele>406.99999999999994</ele><time>2026-04-06T09:09:33.001Z</time></trkpt><trkpt lat="44.38035727281089" lon="10.855558923169632"><ele>407.0</ele><time>2026-04-06T09:09:34.001Z</time></trkpt><trkpt lat="44.380362038347485" lon="10.855466987909695"><ele>407.8</ele><time>2026-04-06T09:09:35.001Z</time></trkpt><trkpt lat="44.38039454249136" lon="10.855328237045972"><ele>408.6</ele><time>2026-04-06T09:09:37.001Z</time></trkpt><trkpt lat="44.380463448671286" lon="10.855174066738423"><ele>409.40000000000003</ele><time>2026-04-06T09:09:39.001Z</time></trkpt><trkpt lat="44.38050325583562" lon="10.855100559113309"><ele>410.20000000000005</ele><time>2026-04-06T09:09:40.001Z</time></trkpt><trkpt lat="44.38053872261204" lon="10.8549913429559"><ele>411.0</ele><time>2026-04-06T09:09:42.001Z</time></trkpt><trkpt lat="44.380489639679475" lon="10.854865317365148"><ele>412.3333333333333</ele><time>2026-04-06T09:09:44.001Z</time></trkpt><trkpt lat="44.38042871771496" lon="10.854807198609908"><ele>413.66666666666663</ele><time>2026-04-06T09:09:45Z</time></trkpt><trkpt lat="44.380356876435386" lon="10.85476262978693"><ele>415.0</ele><time>2026-04-06T09:09:46Z</time></trkpt><trkpt lat="44.38025537702345" lon="10.85471455965584"><ele>416.3333333333333</ele><time>2026-04-06T09:09:48Z</time></trkpt><trkpt lat="44.380152713268224" lon="10.854772504097864"><ele>417.66666666666663</ele><time>2026-04-06T09:09:50Z</time></trkpt><trkpt lat="44.38009894048777" lon="10.854847037913771"><ele>419.0</ele><time>2026-04-06T09:09:51Z</time></trkpt><trkpt lat="44.37999492667969" lon="10.854947968662213"><ele>419.0</ele><time>2026-04-06T09:09:53Z</time></trkpt><trkpt lat="44.37992622003195" lon="10.854984272874031"><ele>419.0</ele><time>2026-04-06T09:09:54Z</time></trkpt><trkpt lat="44.37979786103461" lon="10.855017288706808"><ele>419.0</ele><time>2026-04-06T09:09:56Z</time></trkpt><trkpt lat="44.37968328616676" lon="10.855008120505227"><ele>419.0</ele><time>2026-04-06T09:09:58Z</time></trkpt><trkpt lat="44.37959718721706" lon="10.854892537293805"><ele>419.0</ele><time>2026-04-06T09:10:00Z</time></trkpt><trkpt lat="44.379591409015205" lon="10.854713213373309"><ele>419.0</ele><time>2026-04-06T09:10:02Z</time></trkpt><trkpt lat="44.379701735344646" lon="10.854692381456518"><ele>419.0</ele><time>2026-04-06T09:10:03Z</time></trkpt><trkpt lat="44.37953144041905" lon="10.854560189700884"><ele>419.0</ele><time>2026-04-06T09:10:04Z</time></trkpt><trkpt lat="44.37968944897869" lon="10.854482204941934"><ele>419.5</ele><time>2026-04-06T09:10:06Z</time></trkpt><trkpt lat="44.379663068210455" lon="10.85432891980051"><ele>420.0</ele><time>2026-04-06T09:10:08Z</time></trkpt><trkpt lat="44.37916624668095" lon="10.854201437885209"><ele>421.2</ele><time>2026-04-06T09:10:10Z</time></trkpt><trkpt lat="44.379099862769664" lon="10.854154757769425"><ele>422.4</ele><time>2026-04-06T09:10:11Z</time></trkpt><trkpt lat="44.37899730495597" lon="10.854054968455529"><ele>423.6</ele><time>2026-04-06T09:10:13Z</time></trkpt><trkpt lat="44.37895706739204" lon="10.85388774020607"><ele>424.8</ele><time>2026-04-06T09:10:15Z</time></trkpt><trkpt lat="44.378942445264585" lon="10.853781205595732"><ele>426.0</ele><time>2026-04-06T09:10:16Z</time></trkpt><trkpt lat="44.37891818944689" lon="10.853671962982428"><ele>426.0</ele><time>2026-04-06T09:10:17Z</time></trkpt><trkpt lat="44.37888924861421" lon="10.853576820301834"><ele>426.0</ele><time>2026-04-06T09:10:18Z</time></trkpt><trkpt lat="44.378852937556665" lon="10.853482886121741"><ele>426.0</ele><time>2026-04-06T09:10:19Z</time></trkpt><trkpt lat="44.37880346666289" lon="10.853375364053917"><ele>426.0</ele><time>2026-04-06T09:10:20Z</time></trkpt><trkpt lat="44.37876758983224" lon="10.85328979128829"><ele>426.0</ele><time>2026-04-06T09:10:21Z</time></trkpt><trkpt lat="44.37872750035518" lon="10.853132095474251"><ele>426.0</ele><time>2026-04-06T09:10:23Z</time></trkpt><trkpt lat="44.378688709143795" lon="10.852977699304276"><ele>430.20000000000005</ele><time>2026-04-06T09:10:25Z</time></trkpt><trkpt lat="44.378644154039286" lon="10.852898250281015"><ele>434.40000000000003</ele><time>2026-04-06T09:10:26Z</time></trkpt><trkpt lat="44.37857957622303" lon="10.852793220151023"><ele>438.6</ele><time>2026-04-06T09:10:28Z</time></trkpt><trkpt lat="44.37847458566088" lon="10.852794743938054"><ele>442.8</ele><time>2026-04-06T09:10:31Z</time></trkpt><trkpt lat="44.37838031152782" lon="10.852769087587632"><ele>447.0</ele><time>2026-04-06T09:10:33Z</time></trkpt><trkpt lat="44.37829193494889" lon="10.852745682371722"><ele>447.0</ele><time>2026-04-06T09:10:35Z</time></trkpt><trkpt lat="44.37822772388661" lon="10.852693136945888"><ele>447.0</ele><time>2026-04-06T09:10:37Z</time></trkpt><trkpt lat="44.37823919461048" lon="10.852578858714406"><ele>447.0</ele><time>2026-04-06T09:10:40Z</time></trkpt><trkpt lat="44.37831585797085" lon="10.852532438780873"><ele>447.0</ele><time>2026-04-06T09:10:42Z</time></trkpt><trkpt lat="44.378376108106316" lon="10.852412639594354"><ele>447.0</ele><time>2026-04-06T09:10:44Z</time></trkpt><trkpt lat="44.37842456025437" lon="10.852315950792928"><ele>447.0</ele><time>2026-04-06T09:10:45Z</time></trkpt><trkpt lat="44.37847450780506" lon="10.852258471363015"><ele>450.0</ele><time>2026-04-06T09:10:46Z</time></trkpt><trkpt lat="44.3785460011448" lon="10.852166625413254"><ele>453.0</ele><time>2026-04-06T09:10:47Z</time></trkpt><trkpt lat="44.37863809508825" lon="10.85206292952497"><ele>456.0</ele><time>2026-04-06T09:10:48Z</time></trkpt><trkpt lat="44.3787048724961" lon="10.852056783293053"><ele>459.0</ele><time>2026-04-06T09:10:49Z</time></trkpt><trkpt lat="44.37877043031516" lon="10.852045721749432"><ele>462.0</ele><time>2026-04-06T09:10:50Z</time></trkpt><trkpt lat="44.37884788145311" lon="10.85203033096189"><ele>465.0</ele><time>2026-04-06T09:10:51Z</time></trkpt><trkpt lat="44.37890485113091" lon="10.851978080632774"><ele>465.3333333333333</ele><time>2026-04-06T09:10:52Z</time></trkpt><trkpt lat="44.37894605611495" lon="10.851893136658044"><ele>465.66666666666663</ele><time>2026-04-06T09:10:53Z</time></trkpt><trkpt lat="44.37895837532576" lon="10.851805278114444"><ele>466.0</ele><time>2026-04-06T09:10:54Z</time></trkpt><trkpt lat="44.37897333647756" lon="10.85167596647984"><ele>466.3333333333333</ele><time>2026-04-06T09:10:55Z</time></trkpt><trkpt lat="44.37901766541372" lon="10.851533614543529"><ele>466.66666666666663</ele><time>2026-04-06T09:10:56Z</time></trkpt><trkpt lat="44.37906907051901" lon="10.851408118044157"><ele>467.0</ele><time>2026-04-06T09:10:57Z</time></trkpt><trkpt lat="44.37910320751404" lon="10.851330583579696"><ele>471.8</ele><time>2026-04-06T09:10:58Z</time></trkpt><trkpt lat="44.37914232164519" lon="10.851245115798177"><ele>476.6</ele><time>2026-04-06T09:10:59Z</time></trkpt><trkpt lat="44.37919098105131" lon="10.851139916670364"><ele>481.40000000000003</ele><time>2026-04-06T09:11:00Z</time></trkpt><trkpt lat="44.37924243257785" lon="10.850960775452718"><ele>486.20000000000005</ele><time>2026-04-06T09:11:02Z</time></trkpt><trkpt lat="44.37929616561339" lon="10.85082560373611"><ele>491.0</ele><time>2026-04-06T09:11:04Z</time></trkpt><trkpt lat="44.37935271136626" lon="10.850740274605974"><ele>493.99999999999994</ele><time>2026-04-06T09:11:06Z</time></trkpt><trkpt lat="44.37940702035054" lon="10.850656074801453"><ele>497.0</ele><time>2026-04-06T09:11:08Z</time></trkpt><trkpt lat="44.37940570143068" lon="10.85055696009694"><ele>500.0</ele><time>2026-04-06T09:11:12Z</time></trkpt><trkpt lat="44.379345473801166" lon="10.850492826958186"><ele>503.0</ele><time>2026-04-06T09:11:14Z</time></trkpt><trkpt lat="44.37933273503951" lon="10.850330899084968"><ele>505.99999999999994</ele><time>2026-04-06T09:11:17Z</time></trkpt><trkpt lat="44.379329480352084" lon="10.85023107627639"><ele>509.0</ele><time>2026-04-06T09:11:19Z</time></trkpt><trkpt lat="44.3792932482426" lon="10.850075147741157"><ele>511.3333333333333</ele><time>2026-04-06T09:11:21.999Z</time></trkpt><trkpt lat="44.37923672563127" lon="10.849963452768577"><ele>513.6666666666666</ele><time>2026-04-06T09:11:23.999Z</time></trkpt><trkpt lat="44.37920227323508" lon="10.849869653146854"><ele>516.0</ele><time>2026-04-06T09:11:25.999Z</time></trkpt><trkpt lat="44.379172126163795" lon="10.849785786311589"><ele>518.3333333333334</ele><time>2026-04-06T09:11:27.999Z</time></trkpt><trkpt lat="44.37916176938868" lon="10.849645835274876"><ele>520.6666666666667</ele><time>2026-04-06T09:11:29.999Z</time></trkpt><trkpt lat="44.37913345331619" lon="10.849560886897889"><ele>523.0</ele><time>2026-04-06T09:11:30.999Z</time></trkpt><trkpt lat="44.379094755417" lon="10.849465232065677"><ele>523.0</ele><time>2026-04-06T09:11:31.999Z</time></trkpt><trkpt lat="44.37905486238402" lon="10.849380981643863"><ele>523.0</ele><time>2026-04-06T09:11:32.999Z</time></trkpt><trkpt lat="44.37903523978965" lon="10.849285892839628"><ele>523.0</ele><time>2026-04-06T09:11:33.999Z</time></trkpt><trkpt lat="44.379001604600944" lon="10.849185516875776"><ele>523.0</ele><time>2026-04-06T09:11:35.001Z</time></trkpt><trkpt lat="44.378968706104565" lon="10.849081360169533"><ele>523.0</ele><time>2026-04-06T09:11:36.001Z</time></trkpt><trkpt lat="44.37895414554928" lon="10.848949105655361"><ele>523.0</ele><time>2026-04-06T09:11:37.001Z</time></trkpt><trkpt lat="44.378918552813964" lon="10.84880986236185"><ele>524.1999999999999</ele><time>2026-04-06T09:11:38.001Z</time></trkpt><trkpt lat="44.37884950820834" lon="10.848704717667196"><ele>525.4</ele><time>2026-04-06T09:11:39.001Z</time></trkpt><trkpt lat="44.3787858688735" lon="10.848610383044562"><ele>526.5999999999999</ele><time>2026-04-06T09:11:40Z</time></trkpt><trkpt lat="44.37872383010516" lon="10.848508077871191"><ele>527.8</ele><time>2026-04-06T09:11:41Z</time></trkpt><trkpt lat="44.378689550780955" lon="10.848385161911258"><ele>529.0</ele><time>2026-04-06T09:11:42Z</time></trkpt><trkpt lat="44.37865308239086" lon="10.848261560080834"><ele>532.25</ele><time>2026-04-06T09:11:43Z</time></trkpt><trkpt lat="44.378617879596305" lon="10.84810716178813"><ele>535.5</ele><time>2026-04-06T09:11:44Z</time></trkpt><trkpt lat="44.37855802148333" lon="10.84794513718839"><ele>538.75</ele><time>2026-04-06T09:11:45Z</time></trkpt><trkpt lat="44.37851043620754" lon="10.847797268957907"><ele>542.0</ele><time>2026-04-06T09:11:46Z</time></trkpt><trkpt lat="44.37848395591847" lon="10.847646711956378"><ele>544.8000000000001</ele><time>2026-04-06T09:11:47Z</time></trkpt><trkpt lat="44.378446239428165" lon="10.84749601273715"><ele>547.6</ele><time>2026-04-06T09:11:48Z</time></trkpt><trkpt lat="44.37840185528454" lon="10.847374179461465"><ele>550.4000000000001</ele><time>2026-04-06T09:11:49Z</time></trkpt><trkpt lat="44.378372122585766" lon="10.847247282963231"><ele>553.2</ele><time>2026-04-06T09:11:50Z</time></trkpt><trkpt lat="44.378344584759816" lon="10.847103339527113"><ele>556.0</ele><time>2026-04-06T09:11:51Z</time></trkpt><trkpt lat="44.37821843068939" lon="10.847019104342898"><ele>556.0</ele><time>2026-04-06T09:11:52Z</time></trkpt><trkpt lat="44.37810866525243" lon="10.846942889284238"><ele>556.0</ele><time>2026-04-06T09:11:53Z</time></trkpt><trkpt lat="44.37799677074786" lon="10.84687188442474"><ele>556.0</ele><time>2026-04-06T09:11:54Z</time></trkpt><trkpt lat="44.37789099920848" lon="10.84679079428927"><ele>556.0</ele><time>2026-04-06T09:11:55Z</time></trkpt><trkpt lat="44.37778185186483" lon="10.846740703270987"><ele>557.6</ele><time>2026-04-06T09:11:56Z</time></trkpt><trkpt lat="44.37771030429334" lon="10.846665115261693"><ele>559.2</ele><time>2026-04-06T09:11:57Z</time></trkpt><trkpt lat="44.377656922149306" lon="10.84657548582643"><ele>560.8</ele><time>2026-04-06T09:11:58Z</time></trkpt><trkpt lat="44.37763256766256" lon="10.846455465470706"><ele>562.4</ele><time>2026-04-06T09:11:59Z</time></trkpt><trkpt lat="44.37758653397245" lon="10.846313901989175"><ele>564.0</ele><time>2026-04-06T09:12:00Z</time></trkpt><trkpt lat="44.377516366802176" lon="10.846162805563552"><ele>564.0</ele><time>2026-04-06T09:12:01Z</time></trkpt><trkpt lat="44.37743856390465" lon="10.846002900215714"><ele>564.0</ele><time>2026-04-06T09:12:02Z</time></trkpt><trkpt lat="44.37737328958602" lon="10.845838425706926"><ele>564.0</ele><time>2026-04-06T09:12:03Z</time></trkpt><trkpt lat="44.37731301253967" lon="10.845672809655248"><ele>564.0</ele><time>2026-04-06T09:12:04Z</time></trkpt><trkpt lat="44.37725742994111" lon="10.8455174675666"><ele>566.0</ele><time>2026-04-06T09:12:05Z</time></trkpt><trkpt lat="44.37720619823211" lon="10.845367870912122"><ele>568.0</ele><time>2026-04-06T09:12:06Z</time></trkpt><trkpt lat="44.37716857758805" lon="10.845205650691945"><ele>570.0</ele><time>2026-04-06T09:12:07Z</time></trkpt><trkpt lat="44.377135932834776" lon="10.84503586320539"><ele>572.0</ele><time>2026-04-06T09:12:08Z</time></trkpt><trkpt lat="44.377100518471686" lon="10.84486247914651"><ele>575.25</ele><time>2026-04-06T09:12:09Z</time></trkpt><trkpt lat="44.37705917531781" lon="10.8446903280675"><ele>578.5</ele><time>2026-04-06T09:12:10Z</time></trkpt><trkpt lat="44.37701514381791" lon="10.844521584229645"><ele>581.75</ele><time>2026-04-06T09:12:11Z</time></trkpt><trkpt lat="44.37697435323329" lon="10.844365776560736"><ele>585.0</ele><time>2026-04-06T09:12:12Z</time></trkpt><trkpt lat="44.37693797032817" lon="10.844214689137189"><ele>586.2</ele><time>2026-04-06T09:12:13Z</time></trkpt><trkpt lat="44.37690873199891" lon="10.84408709897812"><ele>587.4</ele><time>2026-04-06T09:12:14Z</time></trkpt><trkpt lat="44.37687514582797" lon="10.843960008886281"><ele>588.6</ele><time>2026-04-06T09:12:15Z</time></trkpt><trkpt lat="44.3768232187664" lon="10.843850885052793"><ele>589.8</ele><time>2026-04-06T09:12:16Z</time></trkpt><trkpt lat="44.37677058835679" lon="10.843740404772602"><ele>591.0</ele><time>2026-04-06T09:12:17Z</time></trkpt><trkpt lat="44.3767156135624" lon="10.84362730855095"><ele>591.0</ele><time>2026-04-06T09:12:18Z</time></trkpt><trkpt lat="44.37665068374091" lon="10.84352754923207"><ele>591.0</ele><time>2026-04-06T09:12:19Z</time></trkpt><trkpt lat="44.37660092365782" lon="10.84341916546113"><ele>591.0</ele><time>2026-04-06T09:12:20Z</time></trkpt><trkpt lat="44.37655107700612" lon="10.843312223289571"><ele>591.0</ele><time>2026-04-06T09:12:21Z</time></trkpt><trkpt lat="44.37649684713802" lon="10.843193744142603"><ele>591.0</ele><time>2026-04-06T09:12:22Z</time></trkpt><trkpt lat="44.37644666468511" lon="10.843083457309335"><ele>592.2</ele><time>2026-04-06T09:12:23Z</time></trkpt><trkpt lat="44.376400572211836" lon="10.842981181075073"><ele>593.4000000000001</ele><time>2026-04-06T09:12:24Z</time></trkpt><trkpt lat="44.37633693345905" lon="10.842942778381062"><ele>594.6</ele><time>2026-04-06T09:12:25Z</time></trkpt><trkpt lat="44.37625833514859" lon="10.842922675884262"><ele>595.8000000000001</ele><time>2026-04-06T09:12:26Z</time></trkpt><trkpt lat="44.37615315260481" lon="10.842907902446475"><ele>597.0</ele><time>2026-04-06T09:12:27Z</time></trkpt><trkpt lat="44.376019825554" lon="10.842899469830432"><ele>599.0</ele><time>2026-04-06T09:12:28Z</time></trkpt><trkpt lat="44.37589340870983" lon="10.842881721809325"><ele>601.0</ele><time>2026-04-06T09:12:29Z</time></trkpt><trkpt lat="44.375781458046035" lon="10.842876654613368"><ele>603.0</ele><time>2026-04-06T09:12:30Z</time></trkpt><trkpt lat="44.37567978317573" lon="10.842866740329006"><ele>605.0</ele><time>2026-04-06T09:12:31Z</time></trkpt><trkpt lat="44.375577854687094" lon="10.84286572455068"><ele>607.0</ele><time>2026-04-06T09:12:32Z</time></trkpt><trkpt lat="44.37549381353215" lon="10.842875471398193"><ele>608.0</ele><time>2026-04-06T09:12:33Z</time></trkpt><trkpt lat="44.37540022564239" lon="10.842875949702973"><ele>609.0</ele><time>2026-04-06T09:12:34Z</time></trkpt><trkpt lat="44.37530891904132" lon="10.842851846451682"><ele>610.0</ele><time>2026-04-06T09:12:35Z</time></trkpt><trkpt lat="44.37521618328001" lon="10.842829387802174"><ele>611.0</ele><time>2026-04-06T09:12:36Z</time></trkpt><trkpt lat="44.37513135381179" lon="10.84277274539101"><ele>612.0</ele><time>2026-04-06T09:12:37Z</time></trkpt><trkpt lat="44.37506433610885" lon="10.842738380945226"><ele>613.0</ele><time>2026-04-06T09:12:38Z</time></trkpt><trkpt lat="44.37500628741119" lon="10.842695281182378"><ele>614.3333333333334</ele><time>2026-04-06T09:12:39Z</time></trkpt><trkpt lat="44.37496167704052" lon="10.842614326458616"><ele>615.6666666666667</ele><time>2026-04-06T09:12:40Z</time></trkpt><trkpt lat="44.374942420344524" lon="10.84251128549111"><ele>617.0</ele><time>2026-04-06T09:12:41Z</time></trkpt><trkpt lat="44.37492688980408" lon="10.842398938898505"><ele>618.3333333333334</ele><time>2026-04-06T09:12:42Z</time></trkpt><trkpt lat="44.374952912608975" lon="10.842279121308833"><ele>619.6666666666666</ele><time>2026-04-06T09:12:43Z</time></trkpt><trkpt lat="44.37496686396453" lon="10.842118049686205"><ele>621.0</ele><time>2026-04-06T09:12:44Z</time></trkpt><trkpt lat="44.374995939180025" lon="10.841923011534906"><ele>622.5</ele><time>2026-04-06T09:12:45Z</time></trkpt><trkpt lat="44.375006345886895" lon="10.841732650954782"><ele>624.0</ele><time>2026-04-06T09:12:46Z</time></trkpt><trkpt lat="44.375025573445804" lon="10.841574418361871"><ele>625.5</ele><time>2026-04-06T09:12:47Z</time></trkpt><trkpt lat="44.375016856906505" lon="10.841424064859007"><ele>627.0</ele><time>2026-04-06T09:12:48Z</time></trkpt><trkpt lat="44.37498853477971" lon="10.841257389506533"><ele>627.0</ele><time>2026-04-06T09:12:49Z</time></trkpt><trkpt lat="44.374986628127054" lon="10.841094968945242"><ele>627.0</ele><time>2026-04-06T09:12:50Z</time></trkpt><trkpt lat="44.374986722198564" lon="10.840933660247936"><ele>627.0</ele><time>2026-04-06T09:12:51Z</time></trkpt><trkpt lat="44.37499457900293" lon="10.84076723765901"><ele>627.0</ele><time>2026-04-06T09:12:52Z</time></trkpt><trkpt lat="44.375006678901094" lon="10.840638833301359"><ele>627.0</ele><time>2026-04-06T09:12:53Z</time></trkpt><trkpt lat="44.3750743064974" lon="10.840515601498602"><ele>628.2</ele><time>2026-04-06T09:12:55Z</time></trkpt><trkpt lat="44.37510945474617" lon="10.84041902410401"><ele>629.4000000000001</ele><time>2026-04-06T09:12:57Z</time></trkpt><trkpt lat="44.37514811581577" lon="10.840299570199306"><ele>630.5999999999999</ele><time>2026-04-06T09:12:59Z</time></trkpt><trkpt lat="44.375158078254096" lon="10.840159235079268"><ele>631.8</ele><time>2026-04-06T09:13:01Z</time></trkpt><trkpt lat="44.37517721095855" lon="10.840001056983933"><ele>633.0</ele><time>2026-04-06T09:13:03Z</time></trkpt><trkpt lat="44.37518406990985" lon="10.83991112283992"><ele>634.0</ele><time>2026-04-06T09:13:04Z</time></trkpt><trkpt lat="44.375192038526265" lon="10.83982293139775"><ele>635.0</ele><time>2026-04-06T09:13:05Z</time></trkpt><trkpt lat="44.375206042343926" lon="10.839723811993395"><ele>636.0</ele><time>2026-04-06T09:13:06Z</time></trkpt><trkpt lat="44.375225648618645" lon="10.839622579469673"><ele>637.0</ele><time>2026-04-06T09:13:07Z</time></trkpt><trkpt lat="44.375244716585755" lon="10.839504719664125"><ele>638.0</ele><time>2026-04-06T09:13:08Z</time></trkpt><trkpt lat="44.375240720058045" lon="10.839392966245669"><ele>639.0</ele><time>2026-04-06T09:13:09Z</time></trkpt><trkpt lat="44.37521698971223" lon="10.839282676045592"><ele>639.6</ele><time>2026-04-06T09:13:10Z</time></trkpt><trkpt lat="44.3751493188382" lon="10.839200963687297"><ele>640.2</ele><time>2026-04-06T09:13:11Z</time></trkpt><trkpt lat="44.37507526536855" lon="10.839122479413138"><ele>640.8000000000001</ele><time>2026-04-06T09:13:12Z</time></trkpt><trkpt lat="44.37499544856608" lon="10.839039794492738"><ele>641.4</ele><time>2026-04-06T09:13:13Z</time></trkpt><trkpt lat="44.374910588811666" lon="10.83893200548476"><ele>642.0</ele><time>2026-04-06T09:13:14Z</time></trkpt><trkpt lat="44.37481651745172" lon="10.838810950201394"><ele>642.0</ele><time>2026-04-06T09:13:15Z</time></trkpt><trkpt lat="44.374723698580084" lon="10.838696822106511"><ele>642.0</ele><time>2026-04-06T09:13:16Z</time></trkpt><trkpt lat="44.37463216716571" lon="10.838581983683518"><ele>642.0</ele><time>2026-04-06T09:13:17Z</time></trkpt><trkpt lat="44.37452758376763" lon="10.838481221682263"><ele>642.0</ele><time>2026-04-06T09:13:18Z</time></trkpt><trkpt lat="44.3744051860045" lon="10.838377748447959"><ele>646.5</ele><time>2026-04-06T09:13:19Z</time></trkpt><trkpt lat="44.37426375050701" lon="10.838290367603333"><ele>651.0</ele><time>2026-04-06T09:13:20Z</time></trkpt><trkpt lat="44.37411533042527" lon="10.83822851681626"><ele>655.5</ele><time>2026-04-06T09:13:21Z</time></trkpt><trkpt lat="44.37402375296767" lon="10.838158614747906"><ele>660.0</ele><time>2026-04-06T09:13:22Z</time></trkpt><trkpt lat="44.373942283745706" lon="10.838081842246751"><ele>660.0</ele><time>2026-04-06T09:13:23Z</time></trkpt><trkpt lat="44.373860308630256" lon="10.837985706936928"><ele>660.0</ele><time>2026-04-06T09:13:24Z</time></trkpt><trkpt lat="44.373780797474915" lon="10.837880092890348"><ele>660.0</ele><time>2026-04-06T09:13:25Z</time></trkpt><trkpt lat="44.37371758153804" lon="10.837762959908105"><ele>660.0</ele><time>2026-04-06T09:13:26Z</time></trkpt><trkpt lat="44.37367346826728" lon="10.837615883878883"><ele>660.0</ele><time>2026-04-06T09:13:27Z</time></trkpt><trkpt lat="44.37362012633501" lon="10.83742445659609"><ele>662.5</ele><time>2026-04-06T09:13:28Z</time></trkpt><trkpt lat="44.37356907402543" lon="10.83723595498432"><ele>665.0</ele><time>2026-04-06T09:13:29Z</time></trkpt><trkpt lat="44.373522962216796" lon="10.837049797210213"><ele>667.5</ele><time>2026-04-06T09:13:30Z</time></trkpt><trkpt lat="44.37345704407498" lon="10.836852782093477"><ele>670.0</ele><time>2026-04-06T09:13:31Z</time></trkpt><trkpt lat="44.37338166074655" lon="10.836739070700393"><ele>672.0</ele><time>2026-04-06T09:13:31.999Z</time></trkpt><trkpt lat="44.37329949649165" lon="10.836667608031144"><ele>674.0</ele><time>2026-04-06T09:13:32.999Z</time></trkpt><trkpt lat="44.373188253863475" lon="10.836628112818413"><ele>676.0</ele><time>2026-04-06T09:13:33.999Z</time></trkpt><trkpt lat="44.373056575588" lon="10.836590462146548"><ele>678.0</ele><time>2026-04-06T09:13:34.999Z</time></trkpt><trkpt lat="44.372989189651854" lon="10.836495321302118"><ele>680.0</ele><time>2026-04-06T09:13:35.999Z</time></trkpt><trkpt lat="44.372936596488366" lon="10.836410352175688"><ele>682.75</ele><time>2026-04-06T09:13:36.999Z</time></trkpt><trkpt lat="44.37295197968643" lon="10.836270347038747"><ele>685.5</ele><time>2026-04-06T09:13:37.999Z</time></trkpt><trkpt lat="44.37292009760035" lon="10.836139191441553"><ele>688.25</ele><time>2026-04-06T09:13:38.999Z</time></trkpt><trkpt lat="44.37282863252208" lon="10.835893849013154"><ele>691.0</ele><time>2026-04-06T09:13:41.001Z</time></trkpt><trkpt lat="44.372751754803936" lon="10.835790880086941"><ele>692.5</ele><time>2026-04-06T09:13:42.001Z</time></trkpt><trkpt lat="44.37272808124441" lon="10.835684084005743"><ele>694.0</ele><time>2026-04-06T09:13:43.001Z</time></trkpt><trkpt lat="44.37271689870496" lon="10.835576178443201"><ele>695.5</ele><time>2026-04-06T09:13:44.001Z</time></trkpt><trkpt lat="44.37269186655925" lon="10.83546331651465"><ele>697.0</ele><time>2026-04-06T09:13:45.001Z</time></trkpt><trkpt lat="44.37268504133984" lon="10.835333701797481"><ele>698.5</ele><time>2026-04-06T09:13:46.001Z</time></trkpt><trkpt lat="44.37269236015762" lon="10.835245424229939"><ele>700.0</ele><time>2026-04-06T09:13:47.001Z</time></trkpt><trkpt lat="44.37267572074959" lon="10.83513493875656"><ele>701.5</ele><time>2026-04-06T09:13:49.001Z</time></trkpt><trkpt lat="44.37279436830058" lon="10.83511540232782"><ele>703.0</ele><time>2026-04-06T09:13:52.001Z</time></trkpt><trkpt lat="44.37289902568887" lon="10.835124345764378"><ele>704.5</ele><time>2026-04-06T09:13:53.001Z</time></trkpt><trkpt lat="44.3730232734503" lon="10.835160389730202"><ele>706.0</ele><time>2026-04-06T09:13:54.001Z</time></trkpt><trkpt lat="44.37317811663222" lon="10.835160704475484"><ele>704.6666666666667</ele><time>2026-04-06T09:13:55.001Z</time></trkpt><trkpt lat="44.37332989799777" lon="10.835110490517541"><ele>703.3333333333334</ele><time>2026-04-06T09:13:56.001Z</time></trkpt><trkpt lat="44.373466233410724" lon="10.835001947769678"><ele>702.0</ele><time>2026-04-06T09:13:57.001Z</time></trkpt><trkpt lat="44.373576123519825" lon="10.83484056444035"><ele>702.0</ele><time>2026-04-06T09:13:58.001Z</time></trkpt><trkpt lat="44.373674762103434" lon="10.834643747062316"><ele>702.0</ele><time>2026-04-06T09:13:59.001Z</time></trkpt><trkpt lat="44.373785329731106" lon="10.834436665624875"><ele>702.0</ele><time>2026-04-06T09:14:00.001Z</time></trkpt><trkpt lat="44.37390034497519" lon="10.8342378976736"><ele>700.6666666666666</ele><time>2026-04-06T09:14:01Z</time></trkpt><trkpt lat="44.37401870428617" lon="10.834067830234153"><ele>699.3333333333333</ele><time>2026-04-06T09:14:02Z</time></trkpt><trkpt lat="44.37413424243428" lon="10.833925079209394"><ele>698.0</ele><time>2026-04-06T09:14:03Z</time></trkpt><trkpt lat="44.374278898673296" lon="10.833816935461636"><ele>698.0</ele><time>2026-04-06T09:14:04Z</time></trkpt><trkpt lat="44.37443289319926" lon="10.833673464901361"><ele>698.0</ele><time>2026-04-06T09:14:05Z</time></trkpt><trkpt lat="44.374604435217584" lon="10.833505248545345"><ele>698.0</ele><time>2026-04-06T09:14:06Z</time></trkpt><trkpt lat="44.37478821688758" lon="10.833365846554637"><ele>695.0</ele><time>2026-04-06T09:14:07Z</time></trkpt><trkpt lat="44.374975475884014" lon="10.83321592094604"><ele>692.0</ele><time>2026-04-06T09:14:08Z</time></trkpt><trkpt lat="44.375133969153055" lon="10.833072391421677"><ele>689.0</ele><time>2026-04-06T09:14:09Z</time></trkpt><trkpt lat="44.37529851242242" lon="10.83292090431905"><ele>689.0</ele><time>2026-04-06T09:14:10Z</time></trkpt><trkpt lat="44.37544200199219" lon="10.832759032878819"><ele>689.0</ele><time>2026-04-06T09:14:11Z</time></trkpt><trkpt lat="44.37558033273349" lon="10.832537045503855"><ele>689.0</ele><time>2026-04-06T09:14:12Z</time></trkpt><trkpt lat="44.375696321551565" lon="10.832323768243837"><ele>688.6666666666666</ele><time>2026-04-06T09:14:13Z</time></trkpt><trkpt lat="44.37581611539239" lon="10.8321078790375"><ele>688.3333333333334</ele><time>2026-04-06T09:14:14Z</time></trkpt><trkpt lat="44.375954164485634" lon="10.831897529103903"><ele>688.0</ele><time>2026-04-06T09:14:15Z</time></trkpt><trkpt lat="44.376080330434334" lon="10.831693317405096"><ele>688.0</ele><time>2026-04-06T09:14:16Z</time></trkpt><trkpt lat="44.37620227738069" lon="10.831496983560859"><ele>688.0</ele><time>2026-04-06T09:14:17Z</time></trkpt><trkpt lat="44.37630523929289" lon="10.831307235553396"><ele>688.0</ele><time>2026-04-06T09:14:18Z</time></trkpt><trkpt lat="44.37644705923733" lon="10.831108820783566"><ele>685.3333333333334</ele><time>2026-04-06T09:14:19Z</time></trkpt><trkpt lat="44.376578494251476" lon="10.830925439074486"><ele>682.6666666666666</ele><time>2026-04-06T09:14:20Z</time></trkpt><trkpt lat="44.37674042339856" lon="10.830792970712809"><ele>680.0</ele><time>2026-04-06T09:14:21Z</time></trkpt><trkpt lat="44.37691140593337" lon="10.830664159232425"><ele>680.0</ele><time>2026-04-06T09:14:22Z</time></trkpt><trkpt lat="44.37708282212747" lon="10.830515025991179"><ele>680.0</ele><time>2026-04-06T09:14:23Z</time></trkpt><trkpt lat="44.37725499622329" lon="10.83040077513202"><ele>680.0</ele><time>2026-04-06T09:14:24Z</time></trkpt><trkpt lat="44.377421870909544" lon="10.830290416477856"><ele>680.3333333333333</ele><time>2026-04-06T09:14:25Z</time></trkpt><trkpt lat="44.37761169859306" lon="10.830161391468286"><ele>680.6666666666666</ele><time>2026-04-06T09:14:26Z</time></trkpt><trkpt lat="44.37781504501613" lon="10.830048453239796"><ele>681.0</ele><time>2026-04-06T09:14:27Z</time></trkpt><trkpt lat="44.37803268276594" lon="10.829955792518126"><ele>677.6666666666666</ele><time>2026-04-06T09:14:28Z</time></trkpt><trkpt lat="44.37823567609616" lon="10.829876387387083"><ele>674.3333333333333</ele><time>2026-04-06T09:14:29Z</time></trkpt><trkpt lat="44.37844278867587" lon="10.829806264495243"><ele>671.0</ele><time>2026-04-06T09:14:30Z</time></trkpt><trkpt lat="44.37866638149218" lon="10.82978464270544"><ele>670.0</ele><time>2026-04-06T09:14:31Z</time></trkpt><trkpt lat="44.37887210009212" lon="10.829768624553376"><ele>669.0</ele><time>2026-04-06T09:14:32Z</time></trkpt><trkpt lat="44.37908588317861" lon="10.829757353776595"><ele>668.0</ele><time>2026-04-06T09:14:33Z</time></trkpt><trkpt lat="44.37928338002924" lon="10.82972281250839"><ele>668.0</ele><time>2026-04-06T09:14:34Z</time></trkpt><trkpt lat="44.3794650575448" lon="10.829713765782698"><ele>668.0</ele><time>2026-04-06T09:14:35Z</time></trkpt><trkpt lat="44.37964141575911" lon="10.829711371046585"><ele>668.0</ele><time>2026-04-06T09:14:36Z</time></trkpt><trkpt lat="44.37981387936964" lon="10.829745039156025"><ele>667.0</ele><time>2026-04-06T09:14:37Z</time></trkpt><trkpt lat="44.37998087921066" lon="10.82978318241576"><ele>666.0</ele><time>2026-04-06T09:14:38Z</time></trkpt><trkpt lat="44.3801576423632" lon="10.829802503885107"><ele>665.0</ele><time>2026-04-06T09:14:39Z</time></trkpt><trkpt lat="44.3803379794163" lon="10.829837823481245"><ele>662.6666666666666</ele><time>2026-04-06T09:14:40Z</time></trkpt><trkpt lat="44.380525630174056" lon="10.8298103151372"><ele>660.3333333333334</ele><time>2026-04-06T09:14:41Z</time></trkpt><trkpt lat="44.380724524080065" lon="10.82972328165075"><ele>658.0</ele><time>2026-04-06T09:14:42Z</time></trkpt><trkpt lat="44.38093338896248" lon="10.82960808274756"><ele>658.0</ele><time>2026-04-06T09:14:43Z</time></trkpt><trkpt lat="44.381149481227524" lon="10.829485429641666"><ele>658.0</ele><time>2026-04-06T09:14:44Z</time></trkpt><trkpt lat="44.38134640076426" lon="10.829395708639453"><ele>658.0</ele><time>2026-04-06T09:14:45Z</time></trkpt><trkpt lat="44.38154007364855" lon="10.829348022173285"><ele>658.6666666666667</ele><time>2026-04-06T09:14:46Z</time></trkpt><trkpt lat="44.38174004627684" lon="10.829306101008443"><ele>659.3333333333334</ele><time>2026-04-06T09:14:47Z</time></trkpt><trkpt lat="44.38193156600585" lon="10.829248808377521"><ele>660.0</ele><time>2026-04-06T09:14:48Z</time></trkpt><trkpt lat="44.382135707585576" lon="10.8292178035718"><ele>657.6666666666666</ele><time>2026-04-06T09:14:49Z</time></trkpt><trkpt lat="44.38231281330859" lon="10.829162060287066"><ele>655.3333333333333</ele><time>2026-04-06T09:14:50Z</time></trkpt><trkpt lat="44.38248750899812" lon="10.829110584549131"><ele>653.0</ele><time>2026-04-06T09:14:51Z</time></trkpt><trkpt lat="44.382663234286206" lon="10.829109358287969"><ele>653.0</ele><time>2026-04-06T09:14:52Z</time></trkpt><trkpt lat="44.38282453619744" lon="10.829137526094996"><ele>653.0</ele><time>2026-04-06T09:14:53Z</time></trkpt><trkpt lat="44.383005074036" lon="10.829188293810505"><ele>653.0</ele><time>2026-04-06T09:14:54Z</time></trkpt><trkpt lat="44.383191963389066" lon="10.829208283541876"><ele>651.0</ele><time>2026-04-06T09:14:55Z</time></trkpt><trkpt lat="44.38338005400282" lon="10.829212040917588"><ele>649.0</ele><time>2026-04-06T09:14:56Z</time></trkpt><trkpt lat="44.3835849930974" lon="10.82917283546419"><ele>647.0</ele><time>2026-04-06T09:14:57Z</time></trkpt><trkpt lat="44.38378769358267" lon="10.829108292376842"><ele>644.3333333333333</ele><time>2026-04-06T09:14:58Z</time></trkpt><trkpt lat="44.383977765503296" lon="10.829048229319758"><ele>641.6666666666666</ele><time>2026-04-06T09:14:59Z</time></trkpt><trkpt lat="44.38416170927748" lon="10.828989678248156"><ele>639.0</ele><time>2026-04-06T09:15:00Z</time></trkpt><trkpt lat="44.384334866718476" lon="10.82892981102464"><ele>639.0</ele><time>2026-04-06T09:15:01Z</time></trkpt><trkpt lat="44.384505216059004" lon="10.82886710197392"><ele>639.0</ele><time>2026-04-06T09:15:02Z</time></trkpt><trkpt lat="44.384669544957404" lon="10.828798260610153"><ele>639.0</ele><time>2026-04-06T09:15:03Z</time></trkpt><trkpt lat="44.384823577837935" lon="10.828728375698343"><ele>637.75</ele><time>2026-04-06T09:15:04Z</time></trkpt><trkpt lat="44.38495933085454" lon="10.828648673076783"><ele>636.5</ele><time>2026-04-06T09:15:05Z</time></trkpt><trkpt lat="44.38508779598055" lon="10.828568283953722"><ele>635.25</ele><time>2026-04-06T09:15:06Z</time></trkpt><trkpt lat="44.385218151568544" lon="10.82847433562516"><ele>634.0</ele><time>2026-04-06T09:15:07Z</time></trkpt><trkpt lat="44.3853417552495" lon="10.828397222509954"><ele>633.5</ele><time>2026-04-06T09:15:08Z</time></trkpt><trkpt lat="44.38546004442186" lon="10.828318718704276"><ele>633.0</ele><time>2026-04-06T09:15:09Z</time></trkpt><trkpt lat="44.385574788076234" lon="10.828283095470496"><ele>632.5</ele><time>2026-04-06T09:15:10Z</time></trkpt><trkpt lat="44.38565054882075" lon="10.828072730647559"><ele>632.0</ele><time>2026-04-06T09:15:11Z</time></trkpt><trkpt lat="44.3857251313247" lon="10.827923754403592"><ele>632.0</ele><time>2026-04-06T09:15:12Z</time></trkpt><trkpt lat="44.38579970808589" lon="10.82777333127677"><ele>632.0</ele><time>2026-04-06T09:15:13Z</time></trkpt><trkpt lat="44.38590932443966" lon="10.827689937771476"><ele>632.0</ele><time>2026-04-06T09:15:14Z</time></trkpt><trkpt lat="44.386025112914105" lon="10.82762626683264"><ele>632.0</ele><time>2026-04-06T09:15:15Z</time></trkpt><trkpt lat="44.38615376092198" lon="10.827631322017506"><ele>632.0</ele><time>2026-04-06T09:15:15.999Z</time></trkpt><trkpt lat="44.38628789560714" lon="10.827649100058697"><ele>632.0</ele><time>2026-04-06T09:15:16.999Z</time></trkpt><trkpt lat="44.386432895716204" lon="10.827675828581839"><ele>632.0</ele><time>2026-04-06T09:15:17.999Z</time></trkpt><trkpt lat="44.386602281792015" lon="10.827712039772294"><ele>633.0</ele><time>2026-04-06T09:15:18.999Z</time></trkpt><trkpt lat="44.38679772032493" lon="10.827735402293497"><ele>634.0</ele><time>2026-04-06T09:15:19.999Z</time></trkpt><trkpt lat="44.38700810444411" lon="10.827778267170034"><ele>635.0</ele><time>2026-04-06T09:15:20.999Z</time></trkpt><trkpt lat="44.38722572626531" lon="10.82782094128381"><ele>635.0</ele><time>2026-04-06T09:15:21.999Z</time></trkpt><trkpt lat="44.38740885052834" lon="10.82785747854734"><ele>635.0</ele><time>2026-04-06T09:15:22.999Z</time></trkpt><trkpt lat="44.38757459222557" lon="10.827881722792494"><ele>635.0</ele><time>2026-04-06T09:15:23.999Z</time></trkpt><trkpt lat="44.387728242559724" lon="10.827904262088754"><ele>635.0</ele><time>2026-04-06T09:15:24.999Z</time></trkpt><trkpt lat="44.38786986483752" lon="10.827933351530202"><ele>635.0</ele><time>2026-04-06T09:15:25.999Z</time></trkpt><trkpt lat="44.38799303752086" lon="10.82797524905971"><ele>635.0</ele><time>2026-04-06T09:15:26.999Z</time></trkpt><trkpt lat="44.388090429625215" lon="10.82804920749065"><ele>635.0</ele><time>2026-04-06T09:15:27.999Z</time></trkpt><trkpt lat="44.388116407208834" lon="10.828229031588439"><ele>636.6666666666666</ele><time>2026-04-06T09:15:28.999Z</time></trkpt><trkpt lat="44.38817605290015" lon="10.828405413708156"><ele>638.3333333333334</ele><time>2026-04-06T09:15:29.999Z</time></trkpt><trkpt lat="44.388270285618965" lon="10.828594949125272"><ele>640.0</ele><time>2026-04-06T09:15:30.999Z</time></trkpt><trkpt lat="44.38835748653715" lon="10.82880045809531"><ele>636.6666666666667</ele><time>2026-04-06T09:15:31.999Z</time></trkpt><trkpt lat="44.38846864778892" lon="10.828946643079048"><ele>633.3333333333334</ele><time>2026-04-06T09:15:32.999Z</time></trkpt><trkpt lat="44.38860069496431" lon="10.829053574375678"><ele>630.0</ele><time>2026-04-06T09:15:33.999Z</time></trkpt><trkpt lat="44.38876157513073" lon="10.829124455310177"><ele>632.3333333333334</ele><time>2026-04-06T09:15:34.999Z</time></trkpt><trkpt lat="44.38893401506762" lon="10.829197483511955"><ele>634.6666666666667</ele><time>2026-04-06T09:15:35.999Z</time></trkpt><trkpt lat="44.38909059992833" lon="10.829279494961066"><ele>637.0</ele><time>2026-04-06T09:15:36.999Z</time></trkpt><trkpt lat="44.389224405546976" lon="10.829353472328062"><ele>637.0</ele><time>2026-04-06T09:15:37.999Z</time></trkpt><trkpt lat="44.38934971655538" lon="10.829387931959692"><ele>637.0</ele><time>2026-04-06T09:15:38.999Z</time></trkpt><trkpt lat="44.389467782964964" lon="10.829310889249923"><ele>637.0</ele><time>2026-04-06T09:15:39.999Z</time></trkpt><trkpt lat="44.389538544245774" lon="10.829185491912526"><ele>637.0</ele><time>2026-04-06T09:15:40.999Z</time></trkpt><trkpt lat="44.38960238916382" lon="10.829047527011962"><ele>637.0</ele><time>2026-04-06T09:15:41.999Z</time></trkpt><trkpt lat="44.38962861415186" lon="10.828854304175547"><ele>637.0</ele><time>2026-04-06T09:15:42.999Z</time></trkpt><trkpt lat="44.38965623814339" lon="10.828639690297218"><ele>637.0</ele><time>2026-04-06T09:15:43.999Z</time></trkpt><trkpt lat="44.38968591442363" lon="10.828440004689591"><ele>637.0</ele><time>2026-04-06T09:15:44.999Z</time></trkpt><trkpt lat="44.38973263647484" lon="10.828297749693307"><ele>637.4</ele><time>2026-04-06T09:15:45.999Z</time></trkpt><trkpt lat="44.389793754700044" lon="10.828195951404759"><ele>637.8000000000001</ele><time>2026-04-06T09:15:47Z</time></trkpt><trkpt lat="44.38987088637964" lon="10.828139778109648"><ele>638.2</ele><time>2026-04-06T09:15:48Z</time></trkpt><trkpt lat="44.38996150124802" lon="10.828126898761088"><ele>638.6</ele><time>2026-04-06T09:15:49Z</time></trkpt><trkpt lat="44.39007299771696" lon="10.828129475822305"><ele>639.0</ele><time>2026-04-06T09:15:50Z</time></trkpt><trkpt lat="44.390170241524984" lon="10.828179929954297"><ele>639.0</ele><time>2026-04-06T09:15:51Z</time></trkpt><trkpt lat="44.390213970600556" lon="10.828316222128342"><ele>639.0</ele><time>2026-04-06T09:15:52Z</time></trkpt><trkpt lat="44.39029691208962" lon="10.828486295772851"><ele>639.0</ele><time>2026-04-06T09:15:53Z</time></trkpt><trkpt lat="44.39039522440899" lon="10.828636796407475"><ele>639.0</ele><time>2026-04-06T09:15:54.001Z</time></trkpt><trkpt lat="44.39050263120966" lon="10.828733147220687"><ele>637.25</ele><time>2026-04-06T09:15:55.001Z</time></trkpt><trkpt lat="44.3906511559027" lon="10.828756779821523"><ele>635.5</ele><time>2026-04-06T09:15:56.001Z</time></trkpt><trkpt lat="44.390777987957804" lon="10.828794160642964"><ele>633.75</ele><time>2026-04-06T09:15:57.001Z</time></trkpt><trkpt lat="44.39087838452284" lon="10.828860644073135"><ele>632.0</ele><time>2026-04-06T09:15:58.001Z</time></trkpt><trkpt lat="44.39095363103544" lon="10.828963930030056"><ele>632.0</ele><time>2026-04-06T09:15:59.001Z</time></trkpt><trkpt lat="44.3909709827455" lon="10.829117691491955"><ele>632.0</ele><time>2026-04-06T09:16:00.001Z</time></trkpt><trkpt lat="44.39091209985462" lon="10.82926915318405"><ele>632.0</ele><time>2026-04-06T09:16:01.001Z</time></trkpt><trkpt lat="44.390842267574484" lon="10.829434379782816"><ele>632.0</ele><time>2026-04-06T09:16:02.001Z</time></trkpt><trkpt lat="44.39076546330376" lon="10.829598261135486"><ele>630.5</ele><time>2026-04-06T09:16:03.001Z</time></trkpt><trkpt lat="44.39071156647331" lon="10.829752733363682"><ele>629.0</ele><time>2026-04-06T09:16:04Z</time></trkpt><trkpt lat="44.39068799577091" lon="10.829904213260694"><ele>627.5</ele><time>2026-04-06T09:16:05Z</time></trkpt><trkpt lat="44.39072421122965" lon="10.830059011937738"><ele>626.0</ele><time>2026-04-06T09:16:06Z</time></trkpt><trkpt lat="44.39081050816308" lon="10.830225399612672"><ele>624.0</ele><time>2026-04-06T09:16:07Z</time></trkpt><trkpt lat="44.39092891437351" lon="10.83039499652148"><ele>622.0</ele><time>2026-04-06T09:16:08Z</time></trkpt><trkpt lat="44.39107024470309" lon="10.830573569194177"><ele>620.0</ele><time>2026-04-06T09:16:09Z</time></trkpt><trkpt lat="44.391239741025636" lon="10.83076803790136"><ele>621.5</ele><time>2026-04-06T09:16:10Z</time></trkpt><trkpt lat="44.391407290586194" lon="10.830968458189169"><ele>623.0</ele><time>2026-04-06T09:16:11Z</time></trkpt><trkpt lat="44.391577681094624" lon="10.831204536589127"><ele>623.0</ele><time>2026-04-06T09:16:12Z</time></trkpt><trkpt lat="44.39174871166152" lon="10.831445354959778"><ele>623.0</ele><time>2026-04-06T09:16:13Z</time></trkpt><trkpt lat="44.39190028837709" lon="10.831651630604192"><ele>622.0</ele><time>2026-04-06T09:16:14Z</time></trkpt><trkpt lat="44.3920396285038" lon="10.831830522230893"><ele>621.0</ele><time>2026-04-06T09:16:15Z</time></trkpt><trkpt lat="44.39218340243181" lon="10.8320137554585"><ele>620.0</ele><time>2026-04-06T09:16:16Z</time></trkpt><trkpt lat="44.392324846986234" lon="10.832201939472716"><ele>620.0</ele><time>2026-04-06T09:16:17Z</time></trkpt><trkpt lat="44.39246030887601" lon="10.83239004691944"><ele>620.0</ele><time>2026-04-06T09:16:18Z</time></trkpt><trkpt lat="44.39258652520616" lon="10.832569311673257"><ele>620.0</ele><time>2026-04-06T09:16:19Z</time></trkpt><trkpt lat="44.39272567425617" lon="10.832746307568184"><ele>619.6666666666666</ele><time>2026-04-06T09:16:20Z</time></trkpt><trkpt lat="44.39285828163246" lon="10.832908721013403"><ele>619.3333333333334</ele><time>2026-04-06T09:16:21Z</time></trkpt><trkpt lat="44.39297494925447" lon="10.83306644256674"><ele>619.0</ele><time>2026-04-06T09:16:22Z</time></trkpt><trkpt lat="44.39310691894323" lon="10.833233423245145"><ele>619.0</ele><time>2026-04-06T09:16:23Z</time></trkpt><trkpt lat="44.39323028279489" lon="10.833397548747186"><ele>619.0</ele><time>2026-04-06T09:16:24Z</time></trkpt><trkpt lat="44.39334356196522" lon="10.833563776278993"><ele>619.0</ele><time>2026-04-06T09:16:25Z</time></trkpt><trkpt lat="44.3934641843157" lon="10.833726254266521"><ele>616.6666666666667</ele><time>2026-04-06T09:16:26Z</time></trkpt><trkpt lat="44.39359181368024" lon="10.833877731406945"><ele>614.3333333333334</ele><time>2026-04-06T09:16:27Z</time></trkpt><trkpt lat="44.39370418403604" lon="10.834016052120443"><ele>612.0</ele><time>2026-04-06T09:16:28Z</time></trkpt><trkpt lat="44.39379764489986" lon="10.834152685344415"><ele>612.0</ele><time>2026-04-06T09:16:29Z</time></trkpt><trkpt lat="44.39388613042828" lon="10.834256066234296"><ele>612.0</ele><time>2026-04-06T09:16:30Z</time></trkpt><trkpt lat="44.393990855307216" lon="10.834296545886357"><ele>612.0</ele><time>2026-04-06T09:16:31Z</time></trkpt><trkpt lat="44.394119688354564" lon="10.834265099305549"><ele>612.0</ele><time>2026-04-06T09:16:32Z</time></trkpt><trkpt lat="44.39426235952293" lon="10.834180264322544"><ele>612.0</ele><time>2026-04-06T09:16:33Z</time></trkpt><trkpt lat="44.394423847984335" lon="10.834071445204279"><ele>612.0</ele><time>2026-04-06T09:16:34Z</time></trkpt><trkpt lat="44.394589423251915" lon="10.83396662355544"><ele>612.0</ele><time>2026-04-06T09:16:35Z</time></trkpt><trkpt lat="44.394754841774606" lon="10.83387733902941"><ele>610.0</ele><time>2026-04-06T09:16:36Z</time></trkpt><trkpt lat="44.39491715163357" lon="10.833791277852326"><ele>608.0</ele><time>2026-04-06T09:16:37Z</time></trkpt><trkpt lat="44.39507214751885" lon="10.833708031606289"><ele>606.0</ele><time>2026-04-06T09:16:38Z</time></trkpt><trkpt lat="44.39523322200399" lon="10.833621769434615"><ele>606.0</ele><time>2026-04-06T09:16:39Z</time></trkpt><trkpt lat="44.39537689160601" lon="10.83354740075273"><ele>606.0</ele><time>2026-04-06T09:16:40Z</time></trkpt><trkpt lat="44.395523973168345" lon="10.83347119506518"><ele>606.0</ele><time>2026-04-06T09:16:41Z</time></trkpt><trkpt lat="44.3956494358456" lon="10.833403452238583"><ele>606.0</ele><time>2026-04-06T09:16:42Z</time></trkpt><trkpt lat="44.39577081062511" lon="10.833318988001649"><ele>605.5</ele><time>2026-04-06T09:16:43Z</time></trkpt><trkpt lat="44.395865492943855" lon="10.833184119356819"><ele>605.0</ele><time>2026-04-06T09:16:44Z</time></trkpt><trkpt lat="44.395929719517476" lon="10.832996241115087"><ele>604.5</ele><time>2026-04-06T09:16:45Z</time></trkpt><trkpt lat="44.39596925383416" lon="10.83277373798685"><ele>604.0</ele><time>2026-04-06T09:16:46Z</time></trkpt><trkpt lat="44.396022930719276" lon="10.83256143861532"><ele>604.0</ele><time>2026-04-06T09:16:47Z</time></trkpt><trkpt lat="44.39612842982716" lon="10.83238321215487"><ele>604.0</ele><time>2026-04-06T09:16:48Z</time></trkpt><trkpt lat="44.39622097864455" lon="10.832205455997649"><ele>604.0</ele><time>2026-04-06T09:16:49Z</time></trkpt><trkpt lat="44.396305046727505" lon="10.832060824589673"><ele>603.2</ele><time>2026-04-06T09:16:50Z</time></trkpt><trkpt lat="44.39637820439662" lon="10.831931992269565"><ele>602.4</ele><time>2026-04-06T09:16:51Z</time></trkpt><trkpt lat="44.396455043932754" lon="10.831824099077169"><ele>601.6</ele><time>2026-04-06T09:16:52Z</time></trkpt><trkpt lat="44.3965420905183" lon="10.831747964751525"><ele>600.8</ele><time>2026-04-06T09:16:53Z</time></trkpt><trkpt lat="44.3966402386551" lon="10.831729151851789"><ele>600.0</ele><time>2026-04-06T09:16:54Z</time></trkpt><trkpt lat="44.396762027849974" lon="10.831711779628215"><ele>600.0</ele><time>2026-04-06T09:16:55Z</time></trkpt><trkpt lat="44.396864951508725" lon="10.831684794735196"><ele>600.0</ele><time>2026-04-06T09:16:56Z</time></trkpt><trkpt lat="44.39698071622526" lon="10.831698194353587"><ele>600.0</ele><time>2026-04-06T09:16:57Z</time></trkpt><trkpt lat="44.39708362308389" lon="10.831744336673335"><ele>600.0</ele><time>2026-04-06T09:16:58Z</time></trkpt><trkpt lat="44.39716690869477" lon="10.831824979503338"><ele>600.0</ele><time>2026-04-06T09:16:59Z</time></trkpt><trkpt lat="44.39723596915319" lon="10.831954477802046"><ele>600.6</ele><time>2026-04-06T09:17:00Z</time></trkpt><trkpt lat="44.39727726465306" lon="10.832116054913302"><ele>601.2</ele><time>2026-04-06T09:17:01Z</time></trkpt><trkpt lat="44.397304291870284" lon="10.83229327764317"><ele>601.8</ele><time>2026-04-06T09:17:02Z</time></trkpt><trkpt lat="44.397349932112284" lon="10.83240148431232"><ele>602.4</ele><time>2026-04-06T09:17:03Z</time></trkpt><trkpt lat="44.39743508551692" lon="10.832486414393685"><ele>603.0</ele><time>2026-04-06T09:17:04Z</time></trkpt><trkpt lat="44.397551547561896" lon="10.832554527941513"><ele>602.0</ele><time>2026-04-06T09:17:05Z</time></trkpt><trkpt lat="44.397690927565385" lon="10.832656138844843"><ele>601.0</ele><time>2026-04-06T09:17:06Z</time></trkpt><trkpt lat="44.39784498447524" lon="10.832746010262413"><ele>600.0</ele><time>2026-04-06T09:17:07Z</time></trkpt><trkpt lat="44.398025857696396" lon="10.832819039653112"><ele>604.0</ele><time>2026-04-06T09:17:08Z</time></trkpt><trkpt lat="44.398181065016175" lon="10.83290559196925"><ele>608.0</ele><time>2026-04-06T09:17:09Z</time></trkpt><trkpt lat="44.39833637684218" lon="10.83296140540304"><ele>612.0</ele><time>2026-04-06T09:17:10Z</time></trkpt><trkpt lat="44.39848229768523" lon="10.833018139720757"><ele>612.0</ele><time>2026-04-06T09:17:11Z</time></trkpt><trkpt lat="44.398632795309155" lon="10.83306382978678"><ele>612.0</ele><time>2026-04-06T09:17:12Z</time></trkpt><trkpt lat="44.39879780073646" lon="10.83311032440938"><ele>612.0</ele><time>2026-04-06T09:17:13Z</time></trkpt><trkpt lat="44.39895963328711" lon="10.83316616637014"><ele>613.25</ele><time>2026-04-06T09:17:14Z</time></trkpt><trkpt lat="44.399085023024" lon="10.833250089465116"><ele>614.5</ele><time>2026-04-06T09:17:15Z</time></trkpt><trkpt lat="44.39921116769699" lon="10.833296599712227"><ele>615.75</ele><time>2026-04-06T09:17:16Z</time></trkpt><trkpt lat="44.39932141235502" lon="10.833361748653678"><ele>617.0</ele><time>2026-04-06T09:17:17Z</time></trkpt><trkpt lat="44.39942580352189" lon="10.833389488662252"><ele>617.0</ele><time>2026-04-06T09:17:18Z</time></trkpt><trkpt lat="44.39951824121572" lon="10.833388631104723"><ele>617.0</ele><time>2026-04-06T09:17:19Z</time></trkpt><trkpt lat="44.399592404433385" lon="10.833362878186634"><ele>617.0</ele><time>2026-04-06T09:17:20Z</time></trkpt><trkpt lat="44.39964947865691" lon="10.833291497400598"><ele>617.0</ele><time>2026-04-06T09:17:21Z</time></trkpt><trkpt lat="44.399671044785045" lon="10.833180672561538"><ele>617.0</ele><time>2026-04-06T09:17:22Z</time></trkpt><trkpt lat="44.39965121531125" lon="10.833039340496917"><ele>617.0</ele><time>2026-04-06T09:17:23Z</time></trkpt><trkpt lat="44.399615118095305" lon="10.83287272951766"><ele>617.0</ele><time>2026-04-06T09:17:24Z</time></trkpt><trkpt lat="44.39958341436624" lon="10.832647096769461"><ele>617.0</ele><time>2026-04-06T09:17:25Z</time></trkpt><trkpt lat="44.39952922630976" lon="10.832415814320981"><ele>617.0</ele><time>2026-04-06T09:17:26Z</time></trkpt><trkpt lat="44.399503812677516" lon="10.8321587253742"><ele>620.3333333333333</ele><time>2026-04-06T09:17:27Z</time></trkpt><trkpt lat="44.39954652150359" lon="10.83190787991452"><ele>623.6666666666666</ele><time>2026-04-06T09:17:28Z</time></trkpt><trkpt lat="44.3995907600673" lon="10.831657056388597"><ele>627.0</ele><time>2026-04-06T09:17:29Z</time></trkpt><trkpt lat="44.39960546557733" lon="10.831395210416249"><ele>630.0</ele><time>2026-04-06T09:17:30Z</time></trkpt><trkpt lat="44.399624883353844" lon="10.831147540373225"><ele>633.0</ele><time>2026-04-06T09:17:31Z</time></trkpt><trkpt lat="44.399625902332545" lon="10.830917582641158"><ele>636.0</ele><time>2026-04-06T09:17:32Z</time></trkpt><trkpt lat="44.39962813287328" lon="10.8307101093144"><ele>638.3333333333334</ele><time>2026-04-06T09:17:32.999Z</time></trkpt><trkpt lat="44.39962524735232" lon="10.830501800749722"><ele>640.6666666666667</ele><time>2026-04-06T09:17:33.999Z</time></trkpt><trkpt lat="44.3996173441488" lon="10.830249418817713"><ele>643.0</ele><time>2026-04-06T09:17:34.999Z</time></trkpt><trkpt lat="44.399633569283935" lon="10.829960935000312"><ele>645.0</ele><time>2026-04-06T09:17:35.999Z</time></trkpt><trkpt lat="44.39962637629125" lon="10.829661773753367"><ele>647.0</ele><time>2026-04-06T09:17:36.999Z</time></trkpt><trkpt lat="44.39959452213211" lon="10.829367760543628"><ele>649.0</ele><time>2026-04-06T09:17:37.999Z</time></trkpt><trkpt lat="44.399576459079505" lon="10.829073268811928"><ele>650.0</ele><time>2026-04-06T09:17:38.999Z</time></trkpt><trkpt lat="44.39958761116797" lon="10.828814076717558"><ele>651.0</ele><time>2026-04-06T09:17:39.999Z</time></trkpt><trkpt lat="44.3995647679136" lon="10.828551079547005"><ele>652.0</ele><time>2026-04-06T09:17:40.999Z</time></trkpt><trkpt lat="44.39954600282019" lon="10.828268690207036"><ele>652.6666666666667</ele><time>2026-04-06T09:17:41.999Z</time></trkpt><trkpt lat="44.39950197628861" lon="10.828015093875157"><ele>653.3333333333334</ele><time>2026-04-06T09:17:42.999Z</time></trkpt><trkpt lat="44.39943363524214" lon="10.827739090258838"><ele>654.0</ele><time>2026-04-06T09:17:43.999Z</time></trkpt><trkpt lat="44.39936090041914" lon="10.82746332408071"><ele>654.0</ele><time>2026-04-06T09:17:44.999Z</time></trkpt><trkpt lat="44.39934467091445" lon="10.827185880719862"><ele>654.0</ele><time>2026-04-06T09:17:45.999Z</time></trkpt><trkpt lat="44.39932561175938" lon="10.826889487830492"><ele>654.0</ele><time>2026-04-06T09:17:46.999Z</time></trkpt><trkpt lat="44.3992862674369" lon="10.826595208469282"><ele>655.3333333333334</ele><time>2026-04-06T09:17:47.999Z</time></trkpt><trkpt lat="44.39925857941071" lon="10.826281684339104"><ele>656.6666666666667</ele><time>2026-04-06T09:17:48.999Z</time></trkpt><trkpt lat="44.399216470930135" lon="10.825996489789137"><ele>658.0</ele><time>2026-04-06T09:17:49.999Z</time></trkpt><trkpt lat="44.399183840338196" lon="10.825741407244646"><ele>659.3333333333334</ele><time>2026-04-06T09:17:50.999Z</time></trkpt><trkpt lat="44.39911939523956" lon="10.825514240235433"><ele>660.6666666666666</ele><time>2026-04-06T09:17:52.001Z</time></trkpt><trkpt lat="44.39910256598074" lon="10.825285028397367"><ele>662.0</ele><time>2026-04-06T09:17:53.001Z</time></trkpt><trkpt lat="44.399112382515725" lon="10.825100552427"><ele>662.5</ele><time>2026-04-06T09:17:54.001Z</time></trkpt><trkpt lat="44.399158902076266" lon="10.8249470999764"><ele>663.0</ele><time>2026-04-06T09:17:55.001Z</time></trkpt><trkpt lat="44.39922680259507" lon="10.824817593443422"><ele>663.5</ele><time>2026-04-06T09:17:56.001Z</time></trkpt><trkpt lat="44.39931376198753" lon="10.824641099789062"><ele>664.0</ele><time>2026-04-06T09:17:57.001Z</time></trkpt><trkpt lat="44.39939517148609" lon="10.824443589642941"><ele>664.25</ele><time>2026-04-06T09:17:58.001Z</time></trkpt><trkpt lat="44.399429405132665" lon="10.82428093936845"><ele>664.5</ele><time>2026-04-06T09:17:59.001Z</time></trkpt><trkpt lat="44.39943041272893" lon="10.824122360593888"><ele>664.75</ele><time>2026-04-06T09:18:00.001Z</time></trkpt><trkpt lat="44.399392330488965" lon="10.823950363347873"><ele>665.0</ele><time>2026-04-06T09:18:01.001Z</time></trkpt><trkpt lat="44.39932953078043" lon="10.823792659564774"><ele>665.0</ele><time>2026-04-06T09:18:02.001Z</time></trkpt><trkpt lat="44.39925113463456" lon="10.823629906537125"><ele>665.0</ele><time>2026-04-06T09:18:03.001Z</time></trkpt><trkpt lat="44.39917221973915" lon="10.823457781836359"><ele>665.0</ele><time>2026-04-06T09:18:04.001Z</time></trkpt><trkpt lat="44.39908662927869" lon="10.823241494689519"><ele>665.5</ele><time>2026-04-06T09:18:05.001Z</time></trkpt><trkpt lat="44.39901369298058" lon="10.82305082157267"><ele>666.0</ele><time>2026-04-06T09:18:06.001Z</time></trkpt><trkpt lat="44.39895067820718" lon="10.82288761216697"><ele>666.5</ele><time>2026-04-06T09:18:07.001Z</time></trkpt><trkpt lat="44.39889919309673" lon="10.8227486602328"><ele>667.0</ele><time>2026-04-06T09:18:08.001Z</time></trkpt><trkpt lat="44.39885941355651" lon="10.822637760460559"><ele>667.3333333333334</ele><time>2026-04-06T09:18:09.001Z</time></trkpt><trkpt lat="44.3988207785342" lon="10.82254083120611"><ele>667.6666666666667</ele><time>2026-04-06T09:18:10.001Z</time></trkpt><trkpt lat="44.398788463682855" lon="10.822461649739065"><ele>668.0</ele><time>2026-04-06T09:18:11.001Z</time></trkpt><trkpt lat="44.39877239517296" lon="10.822373992401554"><ele>668.3333333333334</ele><time>2026-04-06T09:18:13.001Z</time></trkpt><trkpt lat="44.398822753815395" lon="10.822446240716404"><ele>668.6666666666666</ele><time>2026-04-06T09:18:17Z</time></trkpt><trkpt lat="44.398940811024794" lon="10.822389653031966"><ele>669.0</ele><time>2026-04-06T09:18:18Z</time></trkpt><trkpt lat="44.3990195996782" lon="10.822399396735447"><ele>669.0</ele><time>2026-04-06T09:18:21Z</time></trkpt></trkseg></trk></gpx>